[[{"header":{"parameterUnit":"m.s-1","parameterCategory":1,"la1":30.6,"la2":29.2853,"lo1":-89.7004,"lo2":-87.6739,"dy":0.0162,"dx":0.0183,"nx":112,"ny":82,"refTime":"2024-07-16T00:00:00:Z","depth":0,"parameterNumber":2,"parameterNumberName":"U-component_of_WINDS"},"data":[0.0,0.0,0.0,0.0,0.0,0.0,0.0,0.0,0.0,0.0,0.0,0.0,0.0,0.0,0.0,0.0,0.0,0.0,0.0,0.0,0.0,0.0,0.0,0.0,0.0,0.0,0.0,0.0,0.0,0.0,0.0,0.0,0.0,0.0,0.0,0.0,0.0,0.0,0.0,0.0,0.0,0.0,0.0,0.0,0.0,0.0,0.0,0.0,0.0,0.0,0.0,0.0,0.0,0.0,0.0,0.0,0.0,0.0,0.0,0.0,0.0,0.0,0.0,0.0,0.0,0.0,0.0,0.0,0.0,0.0,0.0,0.0,0.0,0.0,0.0,0.0,0.0,0.0,0.0,0.0,0.0,0.0,0.0,0.0,0.0,0.0,0.0,0.0,0.0,0.0,-4.2094,-4.3359,-4.3739,-4.3721,-4.3265,-4.2852,-4.1148,-3.7724,0.0,0.0,0.0,0.0,0.0,0.0,0.0,0.0,0.0,0.0,0.0,0.0,0.0,0.0,0.0,0.0,0.0,0.0,0.0,0.0,0.0,0.0,0.0,0.0,0.0,0.0,0.0,0.0,0.0,0.0,0.0,0.0,0.0,0.0,0.0,0.0,0.0,0.0,0.0,0.0,0.0,0.0,0.0,0.0,0.0,0.0,0.0,0.0,0.0,0.0,0.0,0.0,0.0,0.0,0.0,0.0,0.0,0.0,0.0,0.0,0.0,0.0,0.0,0.0,0.0,0.0,0.0,0.0,0.0,0.0,0.0,0.0,0.0,0.0,0.0,0.0,0.0,0.0,0.0,0.0,0.0,0.0,0.0,0.0,0.0,0.0,0.0,0.0,0.0,0.0,0.0,0.0,0.0,0.0,0.0,0.0,0.0,0.0,0.0,0.0,0.0,0.0,0.0,0.0,-4.175,-4.4526,-4.4255,-4.3624,-4.2922,-4.2192,-4.0554,-3.7687,0.0,0.0,0.0,0.0,0.0,0.0,0.0,0.0,0.0,0.0,0.0,0.0,0.0,0.0,0.0,0.0,0.0,0.0,0.0,0.0,0.0,0.0,0.0,0.0,0.0,0.0,0.0,0.0,0.0,0.0,0.0,0.0,0.0,0.0,0.0,0.0,0.0,0.0,0.0,0.0,0.0,0.0,0.0,0.0,0.0,0.0,0.0,0.0,0.0,0.0,0.0,0.0,0.0,0.0,0.0,0.0,0.0,0.0,0.0,0.0,0.0,0.0,0.0,0.0,0.0,0.0,0.0,0.0,0.0,0.0,0.0,0.0,0.0,0.0,0.0,0.0,0.0,0.0,0.0,0.0,0.0,0.0,0.0,0.0,0.0,0.0,0.0,0.0,0.0,0.0,0.0,0.0,0.0,0.0,0.0,0.0,0.0,0.0,0.0,0.0,0.0,0.0,0.0,-4.0792,-4.1848,-4.4194,-4.3365,-4.234,-4.1558,-4.0989,-3.9579,-3.7011,-3.5854,0.0,0.0,0.0,0.0,0.0,0.0,0.0,0.0,0.0,0.0,0.0,0.0,0.0,0.0,0.0,0.0,0.0,0.0,0.0,0.0,0.0,0.0,0.0,0.0,0.0,0.0,0.0,0.0,0.0,0.0,0.0,0.0,0.0,0.0,0.0,0.0,0.0,0.0,0.0,0.0,0.0,0.0,0.0,0.0,0.0,0.0,0.0,0.0,0.0,0.0,0.0,0.0,0.0,0.0,0.0,0.0,0.0,0.0,0.0,0.0,0.0,0.0,0.0,0.0,0.0,0.0,0.0,0.0,0.0,0.0,0.0,0.0,0.0,0.0,0.0,0.0,0.0,0.0,0.0,0.0,0.0,0.0,0.0,0.0,0.0,0.0,0.0,0.0,0.0,0.0,0.0,0.0,0.0,0.0,0.0,0.0,0.0,0.0,0.0,0.0,0.0,0.0,-4.1857,-4.2091,-4.3346,-4.2178,-4.1036,-4.0341,-3.9696,-3.8469,-3.6431,-3.4431,0.0,0.0,0.0,0.0,0.0,0.0,0.0,0.0,0.0,0.0,0.0,0.0,0.0,0.0,0.0,0.0,0.0,0.0,0.0,0.0,0.0,0.0,0.0,0.0,0.0,0.0,0.0,0.0,0.0,0.0,0.0,0.0,0.0,0.0,0.0,0.0,0.0,0.0,0.0,0.0,0.0,0.0,0.0,0.0,0.0,0.0,0.0,0.0,0.0,0.0,0.0,0.0,0.0,0.0,0.0,0.0,0.0,0.0,0.0,0.0,0.0,0.0,0.0,0.0,0.0,0.0,0.0,0.0,0.0,0.0,0.0,0.0,0.0,0.0,0.0,0.0,0.0,0.0,0.0,0.0,0.0,0.0,0.0,0.0,0.0,0.0,0.0,0.0,0.0,0.0,0.0,0.0,0.0,0.0,0.0,0.0,0.0,0.0,0.0,0.0,0.0,0.0,-4.1301,-4.2438,-4.2257,-4.1183,-4.0346,-3.9976,-3.8536,-3.729,-3.6358,-3.3388,0.0,0.0,0.0,0.0,0.0,0.0,0.0,0.0,0.0,0.0,0.0,0.0,0.0,0.0,0.0,0.0,0.0,0.0,0.0,0.0,0.0,0.0,0.0,0.0,0.0,0.0,0.0,0.0,0.0,0.0,0.0,0.0,0.0,0.0,0.0,0.0,0.0,0.0,0.0,0.0,0.0,0.0,0.0,0.0,0.0,0.0,0.0,0.0,0.0,0.0,0.0,0.0,0.0,0.0,0.0,0.0,0.0,0.0,0.0,0.0,0.0,0.0,0.0,0.0,0.0,0.0,0.0,0.0,0.0,0.0,0.0,0.0,0.0,0.0,0.0,0.0,0.0,0.0,0.0,0.0,0.0,0.0,0.0,0.0,0.0,0.0,0.0,0.0,0.0,0.0,0.0,0.0,0.0,0.0,0.0,0.0,0.0,0.0,0.0,0.0,0.0,0.0,-3.9724,-4.0578,0.0,-4.0471,-3.9829,-3.92,-3.8597,-3.7679,-3.6376,0.0,0.0,0.0,0.0,0.0,0.0,0.0,0.0,0.0,0.0,0.0,0.0,0.0,0.0,0.0,0.0,0.0,0.0,0.0,0.0,0.0,0.0,0.0,0.0,0.0,0.0,0.0,0.0,0.0,0.0,0.0,0.0,0.0,0.0,0.0,0.0,0.0,0.0,0.0,0.0,0.0,0.0,0.0,0.0,0.0,0.0,0.0,0.0,0.0,0.0,0.0,0.0,0.0,0.0,0.0,0.0,0.0,0.0,0.0,0.0,0.0,0.0,0.0,0.0,0.0,0.0,0.0,0.0,0.0,0.0,0.0,0.0,0.0,0.0,0.0,0.0,0.0,0.0,0.0,0.0,0.0,0.0,0.0,0.0,0.0,0.0,0.0,0.0,0.0,0.0,0.0,0.0,0.0,0.0,0.0,0.0,0.0,0.0,0.0,0.0,0.0,0.0,-3.7249,-3.849,-3.9332,0.0,-3.9719,-3.9184,-3.8395,-3.8083,-3.7239,-3.5605,0.0,0.0,0.0,0.0,0.0,0.0,0.0,0.0,0.0,0.0,0.0,0.0,0.0,0.0,0.0,0.0,0.0,0.0,0.0,0.0,0.0,0.0,0.0,0.0,0.0,0.0,0.0,0.0,0.0,0.0,0.0,0.0,0.0,0.0,0.0,0.0,0.0,0.0,0.0,0.0,0.0,0.0,0.0,0.0,0.0,0.0,0.0,0.0,0.0,0.0,0.0,0.0,0.0,0.0,0.0,0.0,0.0,0.0,0.0,0.0,0.0,0.0,0.0,0.0,0.0,0.0,0.0,0.0,0.0,0.0,0.0,0.0,0.0,0.0,0.0,0.0,0.0,0.0,0.0,0.0,0.0,0.0,0.0,0.0,0.0,0.0,0.0,0.0,0.0,0.0,0.0,0.0,0.0,0.0,0.0,0.0,0.0,0.0,0.0,0.0,0.0,0.0,-3.5759,-3.7735,-3.908,-3.908,-3.8855,-3.8358,-3.7566,-3.6776,-3.5587,0.0,0.0,0.0,0.0,0.0,0.0,0.0,0.0,0.0,0.0,0.0,0.0,0.0,0.0,0.0,0.0,0.0,0.0,0.0,0.0,0.0,0.0,0.0,0.0,0.0,0.0,0.0,0.0,0.0,0.0,0.0,0.0,0.0,0.0,0.0,0.0,0.0,0.0,0.0,0.0,0.0,0.0,0.0,0.0,0.0,0.0,0.0,0.0,0.0,0.0,0.0,0.0,0.0,0.0,0.0,0.0,0.0,0.0,0.0,0.0,0.0,0.0,0.0,0.0,0.0,0.0,0.0,0.0,0.0,0.0,0.0,0.0,0.0,0.0,0.0,0.0,0.0,0.0,0.0,0.0,0.0,0.0,0.0,0.0,0.0,0.0,0.0,0.0,0.0,0.0,0.0,0.0,0.0,0.0,0.0,0.0,0.0,0.0,0.0,0.0,0.0,0.0,0.0,-3.5086,-3.6357,-3.7561,-3.8704,-3.8232,-3.7768,-3.7529,-3.729,-3.6189,-3.3935,0.0,0.0,0.0,0.0,0.0,0.0,0.0,0.0,0.0,0.0,0.0,0.0,0.0,0.0,0.0,0.0,0.0,0.0,0.0,0.0,0.0,0.0,0.0,0.0,0.0,0.0,0.0,0.0,0.0,0.0,0.0,0.0,0.0,0.0,0.0,0.0,0.0,0.0,0.0,0.0,0.0,0.0,0.0,0.0,0.0,0.0,0.0,0.0,0.0,0.0,0.0,0.0,0.0,0.0,0.0,0.0,0.0,0.0,0.0,0.0,0.0,0.0,0.0,0.0,0.0,0.0,0.0,0.0,0.0,0.0,0.0,0.0,0.0,0.0,0.0,0.0,0.0,0.0,0.0,0.0,0.0,0.0,0.0,0.0,0.0,0.0,0.0,0.0,0.0,0.0,0.0,0.0,0.0,0.0,0.0,0.0,0.0,0.0,0.0,0.0,0.0,0.0,-3.3922,-3.5367,-3.667,-3.7643,-3.7312,-3.6886,-3.6523,-3.6505,-3.5459,-3.2999,0.0,0.0,0.0,0.0,0.0,0.0,0.0,0.0,0.0,0.0,0.0,0.0,0.0,0.0,0.0,0.0,0.0,0.0,0.0,0.0,0.0,0.0,0.0,0.0,0.0,0.0,0.0,0.0,0.0,0.0,0.0,0.0,0.0,0.0,0.0,0.0,0.0,0.0,0.0,0.0,0.0,0.0,0.0,0.0,0.0,0.0,0.0,0.0,0.0,0.0,0.0,0.0,0.0,0.0,0.0,0.0,0.0,0.0,0.0,0.0,0.0,0.0,0.0,0.0,0.0,0.0,0.0,0.0,0.0,0.0,0.0,0.0,0.0,0.0,0.0,0.0,0.0,0.0,0.0,0.0,0.0,0.0,0.0,0.0,0.0,0.0,0.0,0.0,0.0,0.0,0.0,0.0,0.0,0.0,0.0,0.0,0.0,0.0,0.0,0.0,0.0,0.0,-3.2583,-3.4633,-3.6119,-3.6266,-3.6229,-3.5862,-3.5078,-3.5004,-3.3963,-3.1512,0.0,0.0,0.0,0.0,0.0,0.0,0.0,0.0,0.0,0.0,0.0,0.0,0.0,0.0,0.0,0.0,0.0,0.0,0.0,0.0,0.0,0.0,0.0,0.0,0.0,0.0,0.0,0.0,0.0,0.0,0.0,0.0,0.0,0.0,0.0,0.0,0.0,0.0,0.0,0.0,0.0,0.0,0.0,0.0,0.0,0.0,0.0,0.0,0.0,0.0,0.0,0.0,0.0,0.0,0.0,0.0,0.0,0.0,0.0,0.0,-3.6486,0.0,0.0,0.0,0.0,0.0,0.0,0.0,0.0,0.0,0.0,0.0,0.0,0.0,0.0,0.0,0.0,0.0,0.0,0.0,0.0,0.0,0.0,0.0,0.0,0.0,0.0,0.0,0.0,0.0,0.0,0.0,0.0,0.0,0.0,0.0,0.0,0.0,0.0,0.0,0.0,0.0,-3.2509,-3.3623,-3.4835,-3.6156,-3.5697,-3.5206,-3.5023,-3.5004,-3.3849,-3.1184,-3.0545,0.0,0.0,0.0,0.0,0.0,0.0,0.0,0.0,0.0,0.0,0.0,0.0,0.0,0.0,0.0,0.0,0.0,0.0,0.0,0.0,0.0,0.0,0.0,0.0,0.0,0.0,0.0,0.0,0.0,0.0,0.0,0.0,0.0,0.0,0.0,0.0,0.0,0.0,0.0,0.0,0.0,0.0,0.0,0.0,0.0,0.0,0.0,0.0,0.0,0.0,0.0,0.0,0.0,0.0,0.0,0.0,0.0,0.0,0.0,0.0,-3.7441,0.0,0.0,0.0,0.0,0.0,0.0,0.0,0.0,0.0,0.0,0.0,0.0,0.0,0.0,0.0,0.0,0.0,0.0,0.0,0.0,0.0,0.0,0.0,0.0,0.0,0.0,0.0,0.0,0.0,0.0,0.0,0.0,0.0,0.0,0.0,0.0,0.0,0.0,0.0,0.0,-3.1971,-3.3054,-3.4137,-3.5,-3.4688,-3.4417,-3.4417,-3.3913,-3.2829,-3.1006,-2.9985,0.0,0.0,0.0,0.0,0.0,0.0,0.0,0.0,0.0,0.0,0.0,0.0,0.0,0.0,0.0,0.0,0.0,0.0,0.0,0.0,0.0,0.0,0.0,0.0,0.0,0.0,0.0,0.0,0.0,0.0,0.0,0.0,0.0,0.0,0.0,0.0,0.0,0.0,0.0,0.0,0.0,0.0,0.0,0.0,0.0,0.0,0.0,0.0,0.0,0.0,0.0,0.0,0.0,-4.2842,-4.2914,-4.253,-4.2251,-4.1891,-4.1425,-4.012,-3.9294,-3.8799,0.0,0.0,0.0,0.0,0.0,0.0,0.0,0.0,0.0,0.0,0.0,0.0,0.0,0.0,0.0,0.0,0.0,0.0,0.0,0.0,0.0,0.0,0.0,0.0,0.0,-3.6505,-3.5991,0.0,0.0,0.0,0.0,0.0,0.0,0.0,0.0,0.0,0.0,0.0,0.0,-3.1213,-3.2467,-3.3385,-3.3385,-3.3513,-3.356,-3.3492,-3.2637,-3.1686,-3.0718,-2.9308,-2.7839,0.0,0.0,0.0,0.0,0.0,0.0,0.0,0.0,0.0,0.0,0.0,0.0,0.0,0.0,0.0,0.0,0.0,0.0,0.0,0.0,0.0,0.0,0.0,0.0,0.0,0.0,0.0,0.0,0.0,0.0,0.0,0.0,-3.4131,-3.5097,0.0,0.0,0.0,0.0,0.0,0.0,0.0,0.0,0.0,0.0,0.0,0.0,0.0,0.0,-4.2758,-4.3566,-4.397,-4.397,-4.4809,-4.4878,-4.4272,-4.422,-4.3818,-4.3167,-4.2947,0.0,-3.9662,-3.8762,0.0,0.0,0.0,0.0,0.0,0.0,0.0,0.0,0.0,0.0,0.0,0.0,0.0,0.0,0.0,0.0,0.0,0.0,0.0,0.0,0.0,0.0,-3.7382,-3.8193,-3.7312,-3.6615,0.0,-3.5493,-3.3346,-3.3815,0.0,0.0,0.0,0.0,0.0,0.0,0.0,0.0,-3.0448,-3.1146,-3.1727,-3.1727,-3.2339,-3.2629,-3.226,-3.2155,-3.1431,-2.9872,-2.8976,-2.7937,-2.6689,-2.6064,0.0,0.0,0.0,0.0,0.0,0.0,0.0,0.0,0.0,0.0,0.0,0.0,0.0,0.0,0.0,0.0,0.0,0.0,0.0,0.0,0.0,0.0,0.0,0.0,0.0,0.0,0.0,0.0,0.0,-3.3428,-3.6197,-3.6562,-3.8162,-3.8697,0.0,0.0,0.0,0.0,0.0,0.0,0.0,0.0,0.0,-4.1931,-4.2777,-4.3624,-4.4489,-4.4863,-4.5037,-4.5037,-4.4913,-4.4614,-4.412,-4.3498,-4.2926,-4.2408,-4.2239,-4.1295,-3.9863,-3.9515,-3.8891,-3.8046,0.0,0.0,0.0,0.0,0.0,-3.5862,-3.6703,-3.6707,0.0,0.0,0.0,0.0,0.0,0.0,0.0,0.0,0.0,0.0,0.0,0.0,0.0,-3.7147,-3.6798,-3.6486,-3.7202,-3.5812,-3.4481,0.0,-3.3352,-3.1846,-3.0531,0.0,0.0,0.0,0.0,-3.0849,-3.0277,-3.0889,-3.1397,-3.1397,-3.1715,-3.1788,-3.1404,-3.0787,-3.0006,-2.9047,-2.8043,-2.7247,-2.6725,-2.6387,-2.6031,0.0,0.0,0.0,0.0,0.0,0.0,0.0,0.0,0.0,0.0,0.0,0.0,0.0,0.0,0.0,0.0,0.0,0.0,0.0,0.0,0.0,0.0,0.0,0.0,0.0,0.0,0.0,0.0,-3.5593,-3.7875,-3.7907,-4.0129,-4.0984,0.0,0.0,0.0,0.0,0.0,0.0,-4.0254,-4.1643,-4.2739,-4.3393,-4.4201,-4.4932,-4.5594,-4.5594,-4.5498,-4.5267,-4.4605,-4.4019,-4.3435,-4.2587,-4.1977,-4.1589,-4.1342,-4.0712,-3.99,-3.99,-3.9423,-3.8579,-3.7386,-3.7147,-3.7456,-3.7055,-3.678,-3.6721,-3.7529,-3.7676,-3.7401,-3.6813,0.0,-3.4784,-3.3573,0.0,0.0,0.0,0.0,-3.4234,-3.4839,0.0,-3.5224,-3.6083,-3.5973,-3.5771,-3.6211,-3.5572,-3.4896,0.0,-3.3897,-3.2563,-3.0932,0.0,0.0,0.0,0.0,-3.0698,-2.999,-3.0411,-3.0797,-3.0797,-3.0962,-3.0909,-3.0448,-2.9604,-2.8881,-2.8349,-2.73,-2.6691,-2.6691,-2.6691,-2.6437,-2.5896,0.0,0.0,0.0,0.0,0.0,0.0,0.0,0.0,0.0,0.0,0.0,0.0,0.0,0.0,0.0,0.0,0.0,0.0,0.0,0.0,0.0,0.0,0.0,0.0,0.0,0.0,0.0,0.0,0.0,-3.958,-4.1874,0.0,0.0,0.0,0.0,-4.1759,-4.1844,-4.217,-4.2863,-4.3701,-4.4182,-4.4239,-4.5075,-4.5556,-4.5594,-4.5594,-4.519,-4.4355,-4.4316,-4.3693,-4.2559,-4.251,-4.2167,-4.1603,-4.1589,-4.0937,-3.99,-3.99,-3.9423,-3.8689,-3.8615,-3.8138,-3.7584,-3.8303,-3.8102,-3.7547,-3.8358,-3.8138,-3.7492,-3.7456,-3.634,-3.4986,-3.4912,-3.4344,0.0,0.0,-3.4307,-3.4949,-3.5004,-3.5004,-3.5224,-3.6083,-3.5073,-3.4357,-3.5954,-3.4732,-3.3617,0.0,-3.3825,-3.2815,-3.2272,0.0,-3.1868,-3.0282,-3.0794,-3.0821,-2.9262,-2.9097,-2.9115,-2.9115,-2.9794,-2.9937,-2.9157,-2.911,-2.8743,-2.7895,-2.7131,-2.6691,-2.6691,-2.6691,-2.6674,-2.664,-2.5964,0.0,0.0,0.0,0.0,0.0,0.0,0.0,0.0,0.0,0.0,0.0,0.0,0.0,0.0,0.0,0.0,0.0,0.0,0.0,0.0,0.0,0.0,0.0,0.0,0.0,0.0,0.0,0.0,-4.2145,-4.3594,0.0,-4.2848,-4.2725,-4.2781,-4.3004,-4.3516,-4.3899,-4.4123,-4.484,-4.5274,-4.5274,-4.5478,-4.5594,-4.5594,-4.5594,-4.5171,-4.4297,-4.3778,-4.3005,-4.2026,-4.1294,-4.0836,-4.0617,-4.0181,-3.9761,-3.9373,-3.92,-3.8964,-3.8707,-3.8707,-3.8524,-3.823,-3.8025,-3.8065,-3.8175,-3.7422,-3.7312,-3.7327,-3.6248,-3.5481,-3.4912,-3.438,-3.4027,-3.3807,-3.3807,-3.4009,-3.4215,-3.4215,-3.4215,-3.4321,-3.4614,-3.4229,-3.3954,-3.4559,-3.4115,-3.3611,-3.3748,-3.3186,-3.2634,-3.2458,-3.2053,-3.145,-3.068,-3.0373,-2.995,-2.911,-2.9005,-2.8905,-2.8645,-2.8869,-2.873,-2.7977,-2.7932,-2.7702,-2.7131,-2.6843,-2.6691,-2.6691,-2.6691,-2.6691,-2.6691,-2.6437,-2.5947,0.0,0.0,0.0,0.0,0.0,0.0,0.0,0.0,0.0,0.0,0.0,0.0,0.0,0.0,0.0,0.0,0.0,0.0,0.0,0.0,0.0,0.0,0.0,0.0,0.0,0.0,-4.1719,-4.3105,-4.4023,-4.4336,-4.3769,-4.3965,-4.4215,-4.4436,-4.4938,-4.5201,-4.5114,-4.5539,-4.5803,-4.5803,-4.5673,-4.5594,-4.5594,-4.5306,-4.4739,-4.3893,-4.3066,-4.22,-4.1346,-4.059,-4.0186,-4.0071,-3.9498,-3.905,-3.8675,-3.8413,-3.8138,-3.7936,-3.8487,-3.8524,-3.823,-3.7694,-3.7676,-3.7734,-3.667,-3.645,-3.6468,-3.5353,-3.4821,-3.4491,-3.3972,-3.3807,-3.3807,-3.3807,-3.3807,-3.3807,-3.3807,-3.3807,-3.3807,-3.3807,-3.3807,-3.3733,-3.3458,-3.3403,-3.3245,-3.2688,-3.2667,-3.2592,-3.2163,-3.1781,-3.1275,-3.052,-3.0057,-2.9597,-2.9062,-2.9005,-2.8905,-2.8633,-2.8471,-2.8152,-2.7545,-2.7378,-2.7131,-2.6725,-2.6691,-2.6691,-2.6691,-2.6691,-2.6691,-2.6691,-2.6454,-2.6201,-2.5981,0.0,0.0,0.0,0.0,0.0,0.0,0.0,0.0,0.0,0.0,0.0,0.0,0.0,0.0,0.0,0.0,0.0,0.0,0.0,0.0,0.0,0.0,0.0,-3.9805,-4.0703,-4.1562,-4.2344,-4.3183,-4.3691,-4.3691,-4.4453,-4.5251,-4.5978,-4.6032,-4.5986,-4.5877,-4.5803,-4.5777,-4.577,-4.5642,-4.5545,-4.5518,-4.4682,-4.3855,-4.3047,-4.22,-4.1335,-4.0496,-4.0496,-4.0336,-4.0062,-3.9727,-3.8937,-3.7851,-3.7593,-3.6997,-3.645,-3.8028,-3.8138,-3.7456,-3.7437,-3.6905,-3.6229,-3.6248,-3.5697,-3.4968,-3.4968,-3.4435,-3.3807,-3.3807,-3.3807,-3.3807,-3.3807,-3.3807,-3.3807,-3.3807,-3.3807,-3.3788,-3.377,-3.3752,-3.3532,-3.2729,-3.2564,-3.2326,-3.1562,-3.2333,-3.2751,-3.1517,-3.1655,-3.1415,-2.9855,-2.9933,0.0,-2.9097,-2.8994,-2.8982,-2.897,-2.862,-2.8237,-2.7897,-2.7517,-2.7115,-2.6725,-2.6691,-2.6691,-2.6691,-2.6691,-2.6691,-2.6691,-2.5998,-2.5998,-2.6691,0.0,0.0,0.0,0.0,0.0,0.0,0.0,0.0,0.0,0.0,0.0,0.0,0.0,0.0,0.0,0.0,0.0,0.0,0.0,0.0,0.0,0.0,-3.9011,-4.0625,-4.2109,-4.3086,-4.332,-4.3555,-4.3691,-4.3691,-4.3926,-4.414,-4.4333,-4.4352,-4.4623,-4.5221,-4.5133,-4.506,-4.5002,-4.4873,-4.4476,-4.3778,-4.3547,-4.3008,-4.2162,-4.1904,-4.1335,-4.0496,-4.0496,-4.0138,-3.9509,-3.9166,-3.8363,-3.7314,-3.7037,-3.6676,-3.634,-3.678,-3.6817,-3.6541,-3.5917,-3.5183,-3.4578,-3.5151,-3.4821,-3.4137,-3.4137,-3.399,-3.3807,-3.3807,-3.3807,-3.3807,-3.3807,-3.3807,-3.3807,-3.3807,-3.3807,-3.3642,-3.306,-3.2931,-3.2706,-3.1898,-3.1733,-3.1659,-3.1452,-3.1669,-3.1785,-3.1442,-3.1003,-3.0538,-3.01,-2.9624,0.0,-2.9023,-2.8749,-2.8476,-2.8228,-2.7833,-2.7454,-2.7067,-2.6939,-2.6808,-2.6708,-2.6691,-2.6691,-2.6691,-2.6691,-2.6691,-2.6691,-2.6488,-2.6488,0.0,0.0,0.0,0.0,0.0,0.0,0.0,0.0,0.0,0.0,0.0,0.0,0.0,0.0,0.0,0.0,0.0,0.0,0.0,0.0,0.0,0.0,-3.8071,-3.9797,-4.0886,-4.1968,-4.2773,-4.3125,-4.2851,-4.2793,-4.3125,-4.3164,-4.3301,-4.3672,-4.3691,-4.3926,-4.4433,-4.4357,-4.4275,-4.4231,-4.4053,-4.3692,-4.3153,-4.2741,-4.2124,-4.1258,-4.0912,-4.0296,-3.9457,-3.9457,-3.92,0.0,-3.8398,-3.7681,-3.6745,-3.6356,-3.5886,0.0,0.0,0.0,0.0,0.0,-3.4197,-3.3862,-3.4325,-3.4192,-3.3807,-3.3807,-3.3807,-3.3807,-3.3807,-3.3807,-3.3807,-3.3807,-3.3807,-3.3715,-3.3385,-3.3311,-3.3091,-3.2284,-3.21,-3.188,-3.1072,-3.0889,-3.0797,-3.0467,0.0,0.0,-3.0393,-3.0283,-3.0099,-2.9739,-2.9299,-2.9005,0.0,-2.8803,-2.8502,-2.8143,-2.7779,-2.7378,-2.6988,-2.6808,0.0,0.0,0.0,-2.6691,-2.6691,-2.6691,0.0,0.0,0.0,0.0,0.0,0.0,0.0,0.0,-2.9297,-2.9416,0.0,0.0,0.0,0.0,0.0,0.0,0.0,0.0,0.0,0.0,0.0,0.0,0.0,0.0,0.0,0.0,-3.9186,-4.0766,-4.068,-4.0861,-4.1288,-4.2011,-4.1386,-4.1172,-4.1894,-4.1973,-4.2324,-4.3203,-4.3262,-4.3359,-4.3535,0.0,0.0,0.0,0.0,-4.3033,-4.2918,-4.1993,-4.1123,-4.0342,-3.9534,-3.8738,-3.8007,-3.8007,-3.795,-3.7846,-3.7545,-3.6934,-3.6127,-3.5652,-3.4967,-3.4313,-3.5542,-3.555,-3.4784,-3.4064,-3.3733,0.0,0.0,0.0,0.0,-3.3642,-3.366,-3.3678,-3.377,-3.3807,-3.377,-3.3697,-3.366,-3.3476,-3.2674,-3.2454,-3.2265,-3.147,-3.1268,-3.1029,-3.0118,-3.0008,-2.9843,-2.9023,-2.8932,-2.9005,-2.9005,-2.9592,-2.9824,-2.9115,-2.9005,0.0,-2.9005,-2.8952,-2.8773,-2.8394,0.0,0.0,-2.7272,-2.6906,-2.6691,-2.6691,-2.6691,-2.6691,-2.6691,-2.6691,-2.6691,-2.6691,-2.6691,-2.7402,-2.8857,-2.8857,-2.9636,-3.1038,-2.9822,-2.9583,0.0,0.0,0.0,0.0,0.0,0.0,0.0,0.0,0.0,0.0,0.0,0.0,0.0,0.0,0.0,-3.7927,-3.9527,-4.0514,-3.9918,-3.9887,-3.9989,-4.0205,-3.947,-3.9051,-3.9316,-3.9336,-3.9707,-4.0566,-4.0625,-4.123,-4.2578,-4.2636,0.0,-4.2559,-4.2396,-4.1947,-4.1182,-4.0239,-3.9708,-3.9515,0.0,0.0,-3.8007,-3.8007,-3.7623,-3.6942,-3.6887,-3.6281,-3.5325,-3.5209,-3.4787,-3.4201,-3.4252,-3.4174,-3.4009,-3.3862,-3.3385,-3.2821,-3.2821,-3.2412,-3.1971,-3.2632,-3.2821,-3.2949,-3.3605,-3.3807,0.0,-3.3005,-3.2821,-3.2651,-3.1843,-3.1623,-3.1421,-3.0613,-3.043,-3.0026,-2.8576,-2.8767,-2.8987,-2.8191,-2.8565,-2.9005,-2.9005,-2.9133,-2.9189,-2.9023,-2.9005,-2.9005,-2.9005,-2.8725,-2.8381,-2.8034,-2.7648,-2.7239,-2.6841,-2.6741,-2.6691,-2.6691,-2.6691,-2.6691,-2.6691,-2.6691,-2.6691,-2.6691,-2.6691,-2.7148,-2.8027,-2.8027,-2.8822,-3.0328,-3.0632,-3.0852,0.0,0.0,0.0,0.0,0.0,0.0,0.0,0.0,0.0,0.0,0.0,-3.3501,-3.4505,0.0,-3.8009,-3.8646,-3.9444,-3.9882,-3.9544,-3.8718,-3.8355,-3.8934,-3.8617,-3.8389,-3.8486,-3.8507,-3.8706,-3.9219,-3.9258,-3.9609,-4.0449,-4.0918,-4.1132,-4.1103,-4.0933,-4.0625,-4.015,-3.9155,-3.843,-3.7988,-3.7565,-3.7142,-3.6757,-3.6757,-3.65,-3.6096,-3.6096,-3.5797,-3.5251,-3.4669,-3.4112,-3.3543,-3.3006,-3.2975,-3.3146,-3.2742,-3.2339,-3.2008,-3.2008,-3.1733,-3.147,-3.1861,-3.2008,-3.2063,-3.2467,-3.2596,-3.2522,-3.2118,-3.2008,-3.1806,-3.0999,-3.0797,-3.0595,-2.9787,-2.9292,-2.8778,-2.797,-2.7805,-2.7684,-2.7273,-2.7519,-2.7794,-2.7794,-2.7664,-2.7885,-2.8854,-2.9005,-2.8858,-2.8448,-2.8218,-2.7893,-2.7359,-2.7115,-2.6762,-2.6199,-2.615,-2.6302,-2.6674,-2.6691,-2.6691,-2.6691,-2.6691,-2.6691,-2.6691,-2.6691,-2.7063,-2.7807,-2.7807,-2.8398,-2.955,-2.9922,-3.0499,0.0,0.0,0.0,0.0,0.0,0.0,0.0,0.0,-3.1233,-3.1572,-3.2844,-3.4177,-3.5095,-3.6678,-3.8093,-3.8853,-3.9165,-3.9194,-3.8916,-3.7494,-3.6717,-3.7415,-3.7548,-3.7575,-3.7646,-3.7665,-3.7857,-3.8299,-3.834,-3.8418,-3.8594,-3.9277,-3.9648,-3.9648,-3.9451,-3.9346,-3.9346,-3.8291,-3.7392,-3.6692,-3.6538,-3.6135,-3.55,-3.55,-3.55,-3.5481,-3.5327,-3.525,-3.5166,-3.4068,-3.3343,-3.2818,-3.2021,-3.1916,-3.2157,-3.1593,-3.1305,-3.1176,-3.1176,-3.1054,-3.0962,-3.1109,-3.1176,-3.1213,-3.136,-3.1397,-3.1378,-3.1213,-3.1176,-3.098,-3.0173,-2.9971,-2.9769,-2.895,-2.8282,-2.7714,-2.7412,-2.6943,-2.6547,-2.641,-2.6502,-2.6573,-2.6501,-2.6277,-2.6649,-2.8292,-2.8482,-2.8233,-2.764,-2.7504,-2.7217,-2.6543,-2.6421,-2.6182,-2.564,-2.5473,-2.5761,-2.664,-2.6573,-2.6539,-2.6691,-2.6691,-2.6691,-2.6691,-2.6691,-2.6996,-2.7587,-2.7587,-2.7994,-2.8773,-2.8773,-2.955,-2.4669,-2.5661,-2.6948,-2.8328,-2.878,-2.9404,0.0,0.0,-3.2487,-3.3967,-3.4987,-3.5649,-3.5794,-3.7414,-3.8545,-3.7894,-3.8629,-3.8765,-3.7221,-3.6206,-3.5386,-3.4744,-3.4811,-3.4928,-3.4947,-3.5038,-3.5739,-3.7241,-3.7418,-3.7773,-3.8555,-3.8691,-3.875,-3.875,-3.8553,-3.845,-3.845,-3.7377,-3.6788,-3.6692,-3.5981,-3.5596,-3.55,-3.55,-3.55,-3.5462,-3.468,-3.4359,-3.4276,-3.3372,-3.2812,-3.248,-3.1678,-3.1147,-3.0861,-3.1255,-3.0944,-3.0338,-3.0338,-2.9879,-2.939,-3.0099,-3.0338,-3.0467,-3.1182,-3.1397,-3.125,-3.054,-3.0338,-3.0155,-2.9335,-2.9133,-2.8932,-2.8136,-2.786,-2.7412,-2.598,-2.6153,-2.6392,-2.5668,-2.6098,-2.6519,-2.6202,-2.6115,-2.6256,-2.679,-2.6624,-2.6502,-2.6709,-2.6479,-2.6123,-2.5688,-2.5431,-2.5377,-2.5573,-2.5,-2.5218,-2.6607,-2.6082,-2.6031,-2.6674,-2.6691,-2.6691,-2.6691,-2.6691,-2.6742,-2.6826,-2.6826,-2.7215,-2.7925,-2.7925,-2.8753,-2.5577,-2.6599,-2.7524,0.0,-2.9408,-3.012,-3.1061,-3.1515,-3.1871,-3.2373,-3.29,-3.3562,-3.4454,-3.5503,-3.6534,0.0,-3.7575,-3.7206,-3.6202,-3.5303,-3.4257,-3.2954,-3.3296,-3.3839,-3.4337,-3.4047,-3.455,-3.6313,-3.605,-3.6172,-3.7031,-3.7578,-3.7832,-3.7832,-3.7723,-3.7626,-3.7543,-3.6556,-3.6048,-3.6,-3.5654,-3.5231,-3.4737,-3.4737,-3.4468,-3.3968,-3.3603,-3.343,-3.3372,-3.2545,-3.2037,-3.173,-3.0871,-3.036,-3.0095,-3.0203,-2.992,-2.95,-2.95,-2.928,-2.906,-2.939,-2.95,-2.9555,-2.9898,-3.0008,-2.9934,-2.9592,-2.95,-2.9427,-2.9097,-2.8656,-2.8227,-2.789,-2.7082,-2.6219,-2.554,-2.5301,-2.5107,-2.4768,-2.4961,-2.5169,-2.502,-2.4674,-2.4531,-2.4856,-2.5581,-2.5975,-2.5659,-2.567,-2.5461,-2.4878,-2.4386,-2.4347,-2.4897,-2.4288,-2.4321,-2.5354,-2.5524,-2.5728,-2.6048,-2.6471,-2.6691,-2.6691,-2.6691,-2.6691,-2.6691,-2.6691,-2.686,-2.7165,-2.7165,-2.774,-2.6131,-2.6925,-2.7361,-2.8153,-2.8978,-2.9595,-2.968,-2.9993,-3.0245,-3.0152,-3.0473,-3.117,-3.2368,-3.3438,-3.4626,-3.6092,-3.612,-3.5774,-3.5187,-3.4173,-3.3152,-3.2212,-3.242,-3.3082,-3.4197,-3.3646,-3.3868,-3.541,-3.4799,-3.4824,-3.5937,-3.6367,-3.6699,-3.6934,-3.688,-3.6783,-3.6699,-3.5968,-3.5461,-3.5168,-3.5142,-3.468,-3.384,-3.384,-3.3506,-3.2891,-3.2679,-3.2564,-3.2506,-3.1679,-3.122,-3.099,-3.0352,-2.9828,-2.9444,-2.9476,-2.9322,-2.91,-2.9028,-2.9005,-2.9005,-2.9005,-2.9005,-2.9005,-2.9005,-2.9005,-2.9005,-2.9005,-2.884,-2.8712,-2.895,-2.8235,-2.7475,-2.7475,-2.6403,-2.5338,-2.5117,-2.4622,-2.419,-2.419,-2.419,-2.417,-2.4084,-2.366,-2.3357,-2.3414,-2.449,-2.5098,-2.45,-2.4552,-2.441,-2.3806,-2.3367,-2.3393,-2.4135,-2.3511,-2.3509,-2.444,-2.4797,-2.5084,-2.5287,-2.5812,-2.6099,-2.6099,-2.6099,-2.6184,-2.6387,-2.6387,-2.6488,-2.6691,-2.6691,-2.6996,-2.6026,-2.6237,-2.6275,-2.6815,-2.699,-2.7072,-2.733,-2.7417,-2.7566,-2.8089,-2.877,-2.9372,-2.975,-3.1968,-3.3592,-3.3201,-3.4254,-3.4838,-3.3977,-3.2644,-3.2045,-3.2782,-3.2205,-3.2405,0.0,-3.3695,-3.3672,-3.4573,-3.3881,-3.4199,-3.5918,-3.5215,-3.5176,-3.6016,-3.5961,-3.5941,-3.5939,-3.571,-3.516,-3.4347,-3.4262,-3.3776,-3.2949,-3.2949,-3.2929,-3.2852,-3.2083,-3.1737,-3.1679,-3.0808,-3.0436,-3.0417,-3.0398,-2.9743,-2.891,-2.9471,-2.9561,-2.9351,-2.9089,-2.9005,-2.9005,-2.9005,-2.9005,-2.9005,-2.9005,-2.9005,-2.9005,-2.9005,-2.8436,-2.8026,-2.8803,-2.7813,-2.6649,-2.6649,-2.5988,-2.5191,-2.4392,-2.4208,-2.419,-2.419,-2.419,-2.4094,-2.3774,-2.3692,-2.3459,-2.2835,-2.3044,-2.3283,-2.3248,-2.2982,-2.2673,-2.2397,-2.2344,-2.2632,-2.3359,-2.2767,-2.2953,-2.4406,-2.3864,-2.3797,-2.4508,-2.4541,-2.4558,-2.4558,-2.4558,-2.4931,-2.5626,-2.5626,-2.5998,-2.6691,-2.6691,-2.6708,-2.5938,-2.5842,-2.5698,-2.6458,-2.6326,-2.605,-2.615,-2.6172,-2.6155,-2.611,-2.648,-2.7161,-2.8353,-2.9483,-3.0858,-3.2697,-3.3096,-3.3124,-3.2956,-3.2675,-3.2391,-3.2141,-3.2852,0.0,0.0,0.0,0.0,-3.5291,-3.4141,-3.3861,-3.5078,-3.4863,-3.457,-3.4277,-3.4256,-3.4226,-3.4181,-3.4101,-3.3894,-3.3561,-3.2929,-3.2433,-3.2083,-3.15,-3.1231,-3.1231,-3.0962,-3.0846,-3.0808,-3.0519,-3.0404,-3.0346,-2.9756,-2.9663,-2.9807,-2.9298,-2.9064,-2.9003,-2.9,-2.9005,-2.9005,-2.9005,-2.9005,-2.9005,-2.9005,-2.862,-2.8209,-2.8209,-2.7622,-2.7071,-2.7336,-2.6612,-2.5797,-2.5797,-2.5191,-2.453,-2.4263,-2.419,-2.419,-2.419,-2.419,-2.4161,-2.4054,-2.3671,-2.3159,-2.2531,-2.2678,-2.296,-2.3165,-2.291,-2.2673,-2.259,-2.2415,-2.2398,-2.2649,-2.2431,-2.2499,-2.3004,-2.3274,-2.3511,-2.3763,-2.4237,-2.4491,-2.4491,-2.4491,-2.4626,-2.488,-2.488,-2.4998,-2.5235,-2.5235,-2.5506,-2.5077,-2.4838,-2.4628,-2.5179,-2.5033,-2.4713,-2.4587,-2.4561,-2.4476,-2.415,-2.4483,-2.5242,-2.6693,-2.7714,-2.9184,-3.182,-3.2135,-3.2241,-3.2755,-3.2776,-3.2723,-3.2615,-3.3551,-3.4128,0.0,0.0,0.0,-3.5307,-3.3815,-3.3384,-3.4629,-3.4121,-3.3672,-3.3418,-3.3398,-3.3377,-3.3344,-3.331,-3.3117,-3.271,-3.179,-3.1154,-3.0791,-3.0523,-3.0231,-2.9948,-2.9948,-2.9948,-2.991,-2.964,-2.95,-2.9486,-2.9204,-2.9083,-2.9021,-2.8854,-2.8424,-2.7977,-2.8507,-2.8499,-2.8246,-2.8176,-2.8143,-2.8198,-2.8473,-2.8209,-2.7798,-2.7798,-2.7218,-2.6602,-2.6602,-2.5786,-2.5044,-2.5319,-2.4787,-2.419,-2.419,-2.419,-2.419,-2.419,-2.419,-2.419,-2.419,-2.3631,-2.3111,-2.2841,-2.2742,-2.2733,-2.2857,-2.2695,-2.2563,-2.2563,-2.2487,-2.2436,-2.2436,-2.2558,-2.2624,-2.2624,-2.2949,-2.3153,-2.3153,-2.35,-2.3712,-2.3712,-2.3712,-2.3848,-2.4118,-2.4118,-2.4237,-2.4491,-2.4491,-2.4745,-2.3586,-2.3336,-2.3177,-2.3177,-2.3153,-2.3069,-2.2746,-2.2669,-2.2612,-2.2349,-2.2868,-2.3692,-2.4843,0.0,-2.8584,-3.0517,-3.1372,-3.2171,-3.3248,-3.2916,-3.2982,0.0,0.0,0.0,0.0,0.0,0.0,-3.4577,0.0,-3.2809,-3.4531,-3.3086,-3.2539,-3.3242,-3.3262,-3.3262,-3.3262,-3.3168,-3.2675,-3.1828,-3.0855,-2.9973,-2.9229,-2.9943,-2.9819,-2.9041,-2.903,-2.905,-2.8973,-2.8203,-2.7895,-2.7972,-2.8684,-2.8025,-2.683,-2.8192,-2.7687,-2.647,-2.761,-2.7531,-2.686,-2.6688,-2.6612,-2.6741,-2.7512,-2.7714,-2.7688,-2.7688,-2.7108,-2.6484,-2.6484,-2.5346,-2.4392,-2.5154,-2.4768,-2.419,-2.419,-2.419,-2.419,-2.419,-2.419,-2.418,-2.4161,-2.361,-2.33,-2.3595,-2.3093,-2.2612,-2.2391,-2.2349,-2.2349,-2.2349,-2.2577,-2.2733,-2.2733,-2.3021,-2.32,-2.32,-2.291,-2.2721,-2.2708,-2.245,-2.2307,-2.2296,-2.2296,-2.2634,-2.3342,-2.3342,-2.3697,-2.4389,-2.4389,-2.4406,-2.341,-2.3064,-2.2835,-2.2835,-2.2682,-2.2508,-2.2412,-2.2398,-2.2388,-2.2307,-2.2448,-2.2929,-2.4064,-2.583,0.0,-2.9687,-3.101,0.0,-3.3248,-3.3437,0.0,-3.4147,0.0,-3.5251,-3.5509,-3.5315,0.0,0.0,-3.351,-3.3112,-3.3629,-3.2731,-3.1992,-3.1543,-3.1543,-3.1543,-3.1543,-3.0878,-3.0692,-3.0987,-2.9509,-2.8968,-2.926,-2.881,-2.8482,-2.8289,-2.8221,-2.8203,-2.8184,-2.7992,-2.7895,-2.7857,-2.7409,-2.7371,-2.7538,-2.727,-2.6889,-2.6548,-2.6712,-2.6812,-2.6888,-2.6831,-2.672,-2.6638,-2.6851,-2.6484,-2.6017,-2.6017,-2.5429,-2.4814,-2.4814,-2.4502,-2.4245,-2.4456,-2.4355,-2.419,-2.419,-2.419,-2.419,-2.419,-2.419,-2.4036,-2.3544,-2.3305,-2.3075,-2.2717,-2.2678,-2.2759,-2.2958,-2.2982,-2.2982,-2.2982,-2.3038,-2.3081,-2.3081,-2.3153,-2.32,-2.32,-2.3117,-2.296,-2.2708,-2.2634,-2.25,-2.231,-2.2296,-2.2381,-2.2581,-2.2581,-2.2682,-2.2868,-2.2868,-2.3156,-2.252,-2.2423,-2.2398,-2.1861,-2.2017,-2.2254,-2.2032,-2.2149,-2.2296,-2.2296,-2.2296,-2.2584,-2.357,-2.5262,-2.7175,0.0,0.0,0.0,-3.3585,-3.4017,-3.4293,0.0,-3.4786,0.0,-3.493,-3.4584,-3.4222,0.0,-3.3435,-3.3098,-3.2837,-3.2069,-3.1406,-3.0918,-3.0527,-3.0156,-2.9766,-2.9277,-2.9237,-2.9639,-2.8669,-2.822,-2.8247,-2.811,-2.7815,-2.7423,0.0,-2.7364,-2.7294,-2.6928,-2.6755,-2.6755,-2.664,-2.6678,-2.6755,-2.664,-2.6365,-2.6009,-2.5891,-2.595,-2.6035,-2.588,-2.5717,-2.5603,-2.597,-2.576,-2.5393,-2.5393,-2.5062,-2.4658,-2.4281,-2.419,-2.419,-2.419,-2.419,-2.419,-2.419,-2.419,-2.419,-2.419,-2.419,-2.4084,-2.3703,-2.3522,-2.3346,-2.3158,-2.3141,-2.3247,-2.3606,-2.338,-2.32,-2.32,-2.3335,-2.3414,-2.3414,-2.3555,-2.3649,-2.3649,-2.3511,-2.3259,-2.2935,-2.2784,-2.256,-2.231,-2.2296,-2.2296,-2.2296,-2.2296,-2.2296,-2.2296,-2.2296,-2.2516,-2.1449,-2.1556,-2.1715,-2.0815,-2.1339,-2.2003,-2.1746,-2.203,-2.2346,-2.2346,0.0,-2.255,-2.3178,-2.4901,-2.6854,-2.8745,0.0,-3.2534,-3.3993,-3.4497,-3.4756,-3.4899,-3.451,-3.4148,-3.4032,-3.3333,-3.2875,-3.2832,-3.2967,-3.2776,-3.2205,-3.125,-3.0664,-3.0566,-2.9824,-2.9062,-2.8301,-2.8184,-2.8184,-2.8301,-2.8017,-2.7537,-2.6935,-2.7504,-2.732,-2.6558,0.0,0.0,-2.6376,-2.5621,-2.5303,-2.5385,-2.6135,-2.5962,-2.5385,-2.6154,-2.5942,-2.5308,-2.5308,-2.5163,-2.4955,-2.4643,-2.441,-2.4366,-2.5035,-2.5246,-2.5246,-2.5246,-2.5246,-2.5081,-2.4373,-2.419,-2.419,-2.419,-2.419,-2.419,-2.419,-2.419,-2.419,-2.419,-2.419,-2.417,-2.4084,-2.3827,-2.3721,-2.3925,-2.3764,-2.3735,-2.4026,-2.3649,-2.3335,-2.3335,-2.3588,-2.3774,-2.3774,-2.4026,-2.419,-2.419,-2.3927,-2.3606,-2.323,-2.2923,-2.2612,-2.231,-2.2296,-2.2296,-2.2296,-2.2296,-2.2296,-2.2296,-2.2296,-2.2296,-2.1313,-2.0616,-2.0157,-2.0891,-2.0983,-2.1121,-2.1986,-2.2419,0.0,0.0,-2.2621,-2.2673,-2.2794,-2.4719,-2.6705,-2.8063,-3.0424,-3.2575,-3.4005,-3.4497,-3.4528,0.0,-3.4127,-3.3917,-3.3199,-3.2987,0.0,0.0,0.0,-3.2094,-3.2041,-3.0621,-2.9492,-2.8769,-2.8594,-2.8457,-2.8301,-2.7598,-2.7598,-2.8281,-2.6835,-2.6425,-2.6952,-2.6328,-2.5936,-2.5792,0.0,0.0,-2.5596,-2.5441,-2.5346,-2.5327,-2.5462,-2.5423,-2.5327,-2.5462,-2.5423,-2.5308,-2.5308,-2.5163,-2.4974,-2.4806,-2.4607,-2.4446,-2.4422,-2.442,-2.442,-2.442,-2.442,-2.4373,-2.4245,-2.419,-2.419,-2.419,-2.419,-2.419,-2.419,-2.419,-2.419,-2.419,-2.419,-2.4016,-2.3459,-2.3335,-2.3135,-2.269,-2.2995,-2.3311,-2.3369,-2.3764,-2.4026,-2.4026,-2.4084,-2.4103,-2.4103,-2.417,-2.419,-2.419,-2.4151,-2.3837,-2.3242,-2.3141,-2.2857,-2.231,-2.2296,-2.2296,-2.2296,-2.2296,-2.2296,-2.2296,-2.2296,-2.2296,-2.0708,-2.0181,-1.9833,-2.0191,-2.0686,-2.1302,-2.204,0.0,0.0,0.0,-2.296,-2.291,-2.2733,-2.4299,-2.6016,-2.7232,-2.9179,-3.1205,-3.3098,-3.3627,-3.37,-3.3419,-3.3245,-3.2875,0.0,0.0,0.0,0.0,0.0,-3.0589,-3.0686,-2.9566,-2.8516,-2.7656,-2.7617,-2.7402,-2.6953,-2.6523,-2.6523,-2.6934,-2.6094,-2.5918,-2.6309,-2.5857,-2.5634,-2.5601,-2.5563,0.0,-2.5459,-2.5459,-2.5408,-2.535,-2.535,-2.533,-2.5308,-2.5308,-2.5308,-2.5308,-2.5308,-2.5248,-2.5135,-2.4962,-2.4799,-2.4639,-2.4545,-2.4435,-2.4348,-2.4348,-2.4275,-2.419,-2.419,-2.419,-2.419,-2.419,-2.419,-2.419,-2.419,-2.419,-2.419,-2.419,-2.4064,-2.3837,-2.3522,-2.3323,-2.3111,-2.2811,-2.3147,-2.3448,-2.3448,-2.3896,-2.419,-2.419,-2.419,-2.419,-2.419,-2.419,-2.419,-2.419,-2.419,-2.3896,-2.3224,-2.32,-2.292,-2.231,-2.2296,-2.2296,-2.2296,-2.2296,-2.2296,-2.2296,-2.2296,-2.2296,-2.0217,-1.9947,-1.9857,-1.968,-2.0565,-2.163,-2.2213,-2.2838,0.0,-2.3311,-2.3311,-2.3277,-2.3182,-2.409,-2.5372,0.0,-2.8178,-2.9789,-3.2248,-3.2827,-3.2933,0.0,-3.2424,0.0,-3.1104,0.0,0.0,0.0,0.0,0.0,-2.8964,-2.8357,-2.7617,-2.6758,-2.6719,-2.6387,-2.5703,-2.5703,-2.5703,-2.5703,-2.5703,-2.5703,-2.5703,-2.5703,-2.5662,-2.561,-2.561,0.0,0.0,-2.5511,-2.5473,-2.5418,-2.542,-2.5375,-2.5322,-2.5317,-2.5308,-2.5308,-2.5308,-2.5308,-2.5269,-2.513,-2.4968,-2.4835,-2.4811,-2.4654,-2.4503,-2.4503,-2.4367,-2.419,-2.419,-2.419,-2.419,-2.419,-2.419,-2.419,-2.419,-2.419,-2.419,-2.419,-2.3986,-2.3785,-2.3714,-2.3488,-2.3271,-2.32,-2.3488,-2.3703,-2.3703,-2.3996,-2.419,-2.419,-2.419,-2.419,-2.419,-2.419,-2.419,-2.419,-2.419,-2.3927,-2.3335,-2.3236,-2.294,-2.2402,-2.2321,-2.2296,-2.2296,-2.2296,-2.2296,-2.2296,-2.2296,-2.2296,-2.0217,-1.9775,-1.9677,-2.0259,-2.0774,-2.1494,-2.2803,0.0,-2.366,-2.366,-2.366,-2.3865,-2.4563,-2.4515,-2.524,-2.7895,0.0,-2.9432,-3.2214,-3.2827,-3.2728,-3.1998,0.0,0.0,-3.0251,0.0,0.0,0.0,0.0,0.0,-2.7226,-2.7168,-2.6719,-2.5859,-2.582,-2.5781,-2.5703,-2.5703,-2.5703,-2.5703,-2.5703,-2.5703,-2.5703,-2.5703,-2.5703,-2.5683,0.0,0.0,0.0,-2.5597,-2.5552,-2.5476,-2.5425,-2.5402,-2.5372,-2.5327,-2.5308,-2.5308,-2.5308,-2.5308,-2.5303,-2.5274,-2.5141,-2.4955,-2.4835,-2.4654,-2.4503,-2.4503,-2.4367,-2.419,-2.419,-2.419,-2.419,-2.419,-2.419,-2.419,-2.419,-2.419,-2.419,-2.419,-2.417,-2.4064,-2.3746,-2.3671,-2.3555,-2.3253,-2.3488,-2.3703,-2.3703,-2.3996,-2.419,-2.419,-2.419,-2.419,-2.419,-2.419,-2.419,-2.419,-2.419,-2.4044,-2.3671,-2.3357,-2.3033,-2.2673,-2.2426,-2.2296,-2.2296,-2.2296,-2.2296,-2.2296,-2.2296,-2.2296,-2.0805,-2.0412,-2.026,-2.0979,-2.1593,-2.226,-2.3269,-2.3764,-2.3996,-2.3996,-2.3996,-2.4046,-2.4158,-2.4051,-2.4609,0.0,-2.7031,-2.8142,-3.142,-3.1968,-3.2096,-3.2256,-3.1943,0.0,0.0,0.0,0.0,0.0,0.0,0.0,-2.6211,-2.6211,-2.6055,-2.5703,-2.5703,-2.5703,-2.5703,-2.5703,-2.5703,-2.5703,-2.5703,-2.5703,-2.5703,-2.5703,-2.5703,-2.5703,0.0,0.0,0.0,-2.566,-2.5599,-2.5508,-2.546,-2.5401,-2.5335,-2.5303,-2.5308,-2.5308,-2.5308,-2.5308,-2.5308,-2.5308,-2.5253,-2.5163,-2.5121,-2.4956,-2.4797,-2.4797,-2.4604,-2.4384,-2.4384,-2.4294,-2.419,-2.419,-2.419,-2.419,-2.419,-2.419,-2.419,-2.419,-2.4044,-2.3865,-2.3714,-2.3533,-2.3357,-2.3212,-2.3488,-2.3703,-2.3703,-2.3996,-2.419,-2.419,-2.419,-2.419,-2.419,-2.419,-2.419,-2.419,-2.419,-2.3966,-2.3414,-2.3259,-2.2965,-2.2463,-2.2346,-2.2296,-2.2296,-2.2296,-2.2296,-2.2296,-2.2296,-2.2296,-2.1532,-2.1378,-2.1389,-2.1803,-2.241,-2.3087,-2.37,-2.4026,-2.419,-2.419,-2.4392,-2.4489,-2.4252,-2.4392,-2.5009,0.0,-2.6799,-2.799,-3.0986,-3.1604,-3.1971,0.0,0.0,0.0,0.0,0.0,0.0,0.0,0.0,0.0,0.0,-2.5683,-2.5683,-2.5662,-2.5662,-2.5661,-2.5636,-2.5636,-2.5658,-2.5662,-2.5662,-2.5683,-2.5703,-2.5703,-2.5703,-2.5703,0.0,0.0,0.0,-2.5703,-2.5637,-2.5556,-2.5524,-2.5444,-2.535,-2.5317,-2.5308,-2.5308,-2.5308,-2.5308,-2.5308,-2.5308,-2.5308,-2.5308,-2.5308,-2.5157,-2.5004,-2.5004,-2.4754,-2.4486,-2.4436,-2.4312,-2.419,-2.419,-2.419,-2.419,-2.419,-2.419,-2.419,-2.419,-2.4006,-2.3855,-2.3855,-2.366,-2.35,-2.35,-2.3692,-2.3855,-2.3855,-2.4046,-2.419,-2.419,-2.419,-2.419,-2.419,-2.419,-2.419,-2.419,-2.419,-2.3986,-2.3522,-2.3311,-2.2989,-2.2571,-2.2391,-2.2296,-2.2296,-2.2296,-2.2296,-2.2296,-2.2296,-2.2296,-2.2291,-2.2627,-2.3075,-2.2687,-2.3146,-2.3777,-2.4113,-2.4208,-2.419,-2.419,-2.4824,-2.5393,-2.5374,-2.6025,-2.684,-2.764,-2.8455,-2.9537,-3.1176,-3.21,-3.2583,0.0,0.0,0.0,0.0,0.0,0.0,0.0,0.0,0.0,0.0,-2.5661,-2.5662,-2.5603,-2.5602,-2.5564,-2.5493,-2.5493,-2.5541,-2.5602,-2.5602,-2.5635,-2.5703,-2.5703,-2.5703,0.0,0.0,0.0,0.0,-2.5703,-2.5703,-2.5683,-2.5554,-2.5491,-2.5473,-2.5342,-2.5308,-2.5308,-2.5308,-2.5308,-2.5308,-2.5308,-2.5308,-2.5308,-2.5308,-2.5157,-2.5004,-2.5004,-2.4754,-2.4452,-2.4247,-2.419,-2.419,-2.419,-2.419,-2.419,-2.419,-2.419,-2.419,-2.419,-2.4208,-2.419,-2.419,-2.419,-2.418,-2.418,-2.419,-2.419,-2.419,-2.419,-2.419,-2.419,-2.419,-2.419,-2.419,-2.419,-2.419,-2.419,-2.419,-2.4208,-2.418,-2.3555,-2.3189,-2.3189,-2.2611,-2.2296,-2.2296,-2.2296,-2.2296,-2.2296,-2.2296,-2.2296,-2.2939,-2.3202,-2.3512,-2.3386,-2.3704,-2.4074,-2.417,-2.419,-2.4355,-2.4915,-2.5209,-2.5576,-2.6117,-2.6429,-2.7042,-2.84,0.0,0.0,0.0,0.0,0.0,-3.3348,-3.2619,0.0,0.0,0.0,0.0,0.0,0.0,0.0,0.0,-2.5554,-2.5569,-2.5601,-2.5602,-2.5564,-2.5491,-2.5491,-2.55,-2.5539,-2.557,-2.5595,-2.5563,-2.5606,0.0,0.0,0.0,0.0,0.0,-2.5703,-2.5662,-2.5611,-2.5522,-2.5463,-2.5421,-2.533,-2.5308,-2.5308,-2.5308,-2.5308,-2.5308,-2.5308,-2.5308,-2.5308,-2.5308,-2.5259,-2.5187,-2.5034,-2.4864,-2.4654,-2.4452,-2.4303,-2.419,-2.419,-2.419,-2.419,-2.419,-2.419,-2.419,-2.419,-2.419,-2.419,-2.419,-2.419,-2.419,-2.419,-2.419,-2.419,-2.419,-2.419,-2.419,-2.419,-2.419,-2.419,-2.419,-2.419,-2.419,-2.419,-2.419,-2.4094,-2.3876,-2.366,-2.3335,-2.2873,-2.266,-2.2473,-2.2296,-2.2296,-2.2296,-2.231,-2.2487,-2.2477,-2.3749,-2.379,-2.3896,-2.3896,-2.4054,-2.419,-2.419,-2.4428,-2.4787,-2.5301,-2.587,-2.6366,-2.6557,-2.7097,-2.7721,-2.8418,-2.9299,0.0,0.0,0.0,0.0,-3.333,0.0,0.0,0.0,0.0,0.0,0.0,0.0,0.0,0.0,0.0,-2.5517,-2.5513,-2.5513,-2.5484,-2.5421,-2.5421,-2.5438,-2.5451,-2.5496,-2.5524,-2.5493,-2.5547,0.0,0.0,0.0,0.0,0.0,-2.5683,-2.5682,-2.5633,-2.5561,-2.5503,-2.5454,-2.5379,-2.5335,-2.533,-2.5303,-2.5308,-2.5308,-2.5308,-2.5308,-2.5308,-2.5308,-2.5308,-2.5259,-2.5071,-2.493,-2.4828,-2.4567,-2.441,-2.4294,-2.4218,-2.419,-2.419,-2.419,-2.419,-2.419,-2.419,-2.419,-2.419,-2.419,-2.419,-2.419,-2.419,-2.419,-2.419,-2.419,-2.419,-2.419,-2.419,-2.419,-2.419,-2.419,-2.419,-2.419,-2.419,-2.419,-2.4103,-2.3896,-2.3774,-2.3437,-2.291,-2.2898,-2.2738,-2.245,-2.2584,-2.2651,-2.2634,-2.2802,-2.2789,0.0,-2.4348,-2.419,-2.419,-2.419,-2.419,-2.419,-2.4824,0.0,-2.5466,-2.6715,-2.7603,-2.6979,-2.8069,-2.8877,-2.8246,-3.0008,0.0,0.0,-3.2797,0.0,0.0,0.0,0.0,0.0,0.0,0.0,0.0,0.0,0.0,0.0,0.0,-2.5465,-2.5383,-2.5379,-2.5371,-2.5308,-2.5308,-2.533,-2.5379,-2.5406,-2.5431,-2.5495,-2.5481,0.0,0.0,0.0,0.0,0.0,-2.5661,-2.5683,-2.5684,-2.5613,-2.5602,-2.5573,-2.5456,-2.5409,-2.5395,-2.5326,-2.5303,-2.5317,-2.5308,-2.5308,-2.5308,-2.5308,-2.5308,-2.5264,-2.5063,-2.5016,-2.493,-2.4596,-2.4512,-2.4444,-2.4256,-2.419,-2.419,-2.419,-2.419,-2.419,-2.419,-2.419,-2.419,-2.419,-2.419,-2.419,-2.419,-2.419,-2.419,-2.419,-2.419,-2.419,-2.419,-2.419,-2.419,-2.419,-2.419,-2.419,-2.419,-2.419,-2.419,-2.419,-2.3907,-2.3577,-2.3236,-2.32,-2.3045,-2.2733,-2.3069,-2.3224,-2.32,-2.3224,-2.3224,-2.452,0.0,-2.419,-2.419,-2.419,-2.419,0.0,-2.4824,-2.5576,-2.619,-2.7108,-2.8117,-2.9163,-2.9659,-3.0265,-3.1311,0.0,0.0,-3.3146,0.0,0.0,0.0,0.0,0.0,0.0,0.0,0.0,0.0,0.0,0.0,0.0,0.0,-2.5344,-2.5317,-2.5317,-2.5317,-2.5308,-2.5308,-2.5303,-2.5317,-2.5383,-2.5376,-2.5342,-2.5409,0.0,0.0,0.0,0.0,-2.5535,-2.5599,-2.5611,-2.5615,-2.5618,-2.5602,-2.5597,-2.5515,-2.5485,-2.5474,-2.5409,-2.5372,-2.5379,-2.5322,-2.5308,-2.5308,-2.5308,-2.5308,-2.5279,-2.5234,-2.5111,-2.4962,-2.4778,-2.4615,-2.4444,-2.4256,-2.419,-2.419,-2.419,-2.419,-2.419,-2.419,-2.419,-2.419,-2.419,-2.419,-2.419,-2.419,-2.419,-2.419,-2.419,-2.419,-2.419,-2.419,-2.419,-2.419,-2.419,-2.419,-2.419,-2.419,-2.419,-2.419,-2.419,-2.4113,-2.3917,-2.3588,-2.3335,-2.3153,-2.3081,-2.3414,-2.3448,-2.32,-2.3459,-2.3455,-2.4393,-2.4561,-2.475,-2.475,-2.5034,-2.5309,-2.5309,-2.5915,-2.6623,-2.7053,-2.7787,-2.8741,-2.9971,-3.021,-3.0613,0.0,-3.2362,0.0,0.0,0.0,0.0,0.0,0.0,0.0,0.0,0.0,0.0,0.0,0.0,0.0,0.0,0.0,-2.5163,-2.5163,-2.5096,-2.5143,-2.5303,-2.5308,-2.5308,-2.5308,-2.5335,-2.533,-2.5308,-2.5344,0.0,0.0,0.0,0.0,-2.5462,-2.5533,-2.5567,-2.5604,-2.5604,-2.5623,-2.5636,-2.5566,-2.5549,-2.5541,-2.5479,-2.5453,-2.5444,-2.539,-2.5375,-2.5352,-2.5357,-2.5317,-2.5308,-2.5308,-2.5219,-2.5096,-2.4849,-2.4723,-2.4551,-2.4266,-2.419,-2.419,-2.419,-2.419,-2.419,-2.419,-2.419,-2.419,-2.419,-2.419,-2.419,-2.419,-2.419,-2.419,-2.419,-2.419,-2.419,-2.419,-2.419,-2.419,-2.419,-2.419,-2.419,-2.419,-2.419,-2.419,-2.419,-2.419,-2.4103,-2.3927,-2.3599,-2.3511,-2.366,-2.3837,-2.3827,-2.3671,-2.3837,-2.3827,-2.4403,-2.5062,-2.5705,-2.5448,-2.5988,-2.6602,-2.6602,-2.7218,-2.7798,-2.7798,-2.8436,-2.928,-3.021,-3.0375,0.0,0.0,0.0,0.0,-3.3532,-3.2926,0.0,0.0,0.0,0.0,0.0,0.0,0.0,0.0,0.0,0.0,0.0,0.0,0.0,-2.4974,-2.4862,-2.4948,-2.5222,-2.5248,-2.5259,-2.5259,-2.5298,-2.5308,-2.5308,-2.5308,-2.5308,0.0,0.0,0.0,-2.5383,-2.5462,-2.5513,-2.5594,-2.5599,-2.5636,-2.5683,-2.5635,-2.5628,-2.5604,-2.5543,-2.5517,-2.5491,-2.5491,-2.5468,-2.5401,-2.5394,-2.5363,-2.5313,-2.5293,-2.5308,-2.5233,-2.491,-2.4825,-2.4708,-2.4321,-2.4218,-2.419,-2.419,-2.4218,-2.4256,-2.4256,-2.4266,-2.4294,-2.4294,-2.4294,-2.4275,-2.4256,-2.4256,-2.4237,-2.4199,-2.419,-2.419,-2.419,-2.419,-2.419,-2.419,-2.419,-2.419,-2.419,-2.419,-2.419,-2.419,-2.419,-2.419,-2.419,-2.3917,-2.3917,-2.419,-2.419,-2.419,-2.419,-2.419,-2.419,-2.5035,-2.6292,-2.71,-2.5742,-2.5988,-2.6602,-2.6602,-2.7218,-2.7798,0.0,0.0,0.0,0.0,-3.1231,-3.1696,0.0,0.0,-3.3421,0.0,0.0,0.0,0.0,0.0,0.0,0.0,0.0,0.0,0.0,0.0,0.0,0.0,0.0,0.0,-2.4828,-2.4818,-2.4825,-2.4881,-2.4993,-2.504,-2.504,-2.5219,-2.5308,-2.5308,-2.5308,-2.5308,0.0,0.0,-2.5317,-2.5327,-2.5391,-2.5443,-2.5529,-2.559,-2.5636,-2.5703,-2.5683,-2.5683,-2.5682,-2.5605,-2.5551,-2.5491,-2.5491,-2.5484,-2.5463,-2.5415,-2.5379,-2.5368,-2.5322,-2.5308,-2.5253,-2.5036,-2.4884,-2.4746,-2.4512,-2.4312,-2.419,-2.419,-2.4321,-2.4452,-2.4452,-2.4583,-2.4708,-2.4708,-2.4708,-2.4647,-2.4478,-2.4452,-2.4393,-2.4218,-2.419,-2.419,-2.419,-2.419,-2.419,-2.419,-2.419,-2.419,-2.419,-2.419,-2.419,-2.419,-2.419,-2.419,-2.419,-2.4151,-2.4151,-2.419,-2.419,-2.419,-2.419,-2.419,-2.419,-2.4658,-2.5782,-2.6761,-2.64,-2.778,-2.9072,-2.865,-2.9163,-2.9744,0.0,0.0,0.0,0.0,0.0,-3.243,-3.3605,0.0,0.0,0.0,0.0,0.0,0.0,0.0,0.0,0.0,0.0,0.0,0.0,0.0,0.0,0.0,0.0,0.0,0.0,-2.4537,-2.4478,-2.4478,-2.4632,-2.4824,-2.501,-2.5208,-2.5308,-2.5308,-2.5308,-2.5308,-2.5308,0.0,-2.5308,-2.5293,-2.5335,-2.5417,-2.5493,-2.5522,-2.5605,-2.5703,-2.5703,-2.5703,-2.5703,-2.5661,-2.5634,-2.5605,-2.5605,-2.5573,-2.5551,-2.5526,-2.5465,-2.5383,-2.5367,-2.5326,-2.5259,-2.5046,-2.4949,-2.4864,-2.4689,-2.4583,-2.4528,-2.4528,-2.4591,-2.4662,-2.4662,-2.4738,-2.4804,-2.4804,-2.4804,-2.4768,-2.4678,-2.4559,-2.4461,-2.4375,-2.4275,-2.419,-2.419,-2.419,-2.419,-2.419,-2.419,-2.419,-2.419,-2.419,-2.4256,-2.4357,-2.4266,-2.4256,-2.4357,-2.4266,-2.419,-2.419,-2.419,-2.419,-2.419,-2.419,-2.419,-2.4419,-2.5237,-2.6165,-2.6717,-2.8601,-3.0292,-3.0199,-3.0394,-3.0706,-3.1185,0.0,0.0,0.0,-3.2601,0.0,-3.3164,0.0,0.0,0.0,0.0,0.0,0.0,0.0,0.0,0.0,0.0,0.0,0.0,0.0,0.0,0.0,0.0,0.0,0.0,-2.4275,-2.419,-2.419,-2.4401,-2.4659,-2.4949,-2.5141,-2.5259,-2.5308,-2.5308,-2.5308,-2.5308,-2.5308,-2.5308,-2.5308,-2.5308,-2.5375,-2.5488,-2.5486,-2.5572,-2.5703,-2.5703,-2.5703,-2.5703,-2.5703,-2.5703,-2.5703,-2.5703,-2.5661,-2.563,-2.5603,-2.5526,-2.5421,-2.5397,-2.535,-2.5264,-2.5105,-2.5034,-2.4974,-2.4864,-2.4814,-2.4804,-2.4804,-2.4814,-2.4849,-2.4849,-2.4883,-2.4929,-2.4929,-2.4929,-2.4896,-2.4855,-2.47,-2.4543,-2.4512,-2.4312,-2.419,-2.419,-2.419,-2.419,-2.419,-2.419,-2.419,-2.419,-2.419,-2.4284,-2.4495,-2.4348,-2.4339,-2.4495,-2.4339,-2.4256,-2.419,-2.419,-2.419,-2.419,-2.419,-2.419,-2.5039,-2.5688,-2.6109,-2.6164,-2.6665,-2.764,-2.9647,-2.9092,-2.8667,-3.0462,0.0,0.0,0.0,-3.2601,-3.2375,-3.169,0.0,0.0,0.0,0.0,0.0,0.0,0.0,0.0,0.0,0.0,0.0,0.0,0.0,0.0,0.0,0.0,0.0,0.0,0.0,-2.419,-2.419,-2.4401,-2.4607,-2.4825,-2.4962,-2.5111,-2.5308,-2.5308,-2.5308,-2.5308,-2.5308,-2.5308,-2.5308,-2.5308,-2.5333,-2.5411,-2.5488,-2.5572,-2.5703,-2.5703,-2.5703,-2.5703,-2.5703,-2.5703,-2.5703,-2.5703,-2.5703,-2.5683,-2.5629,-2.5552,-2.5471,-2.5418,-2.535,-2.5303,-2.5274,-2.5146,-2.5004,-2.4992,-2.4891,-2.4804,-2.4804,-2.4897,-2.4992,-2.4992,-2.5135,-2.5259,-2.5259,-2.5259,-2.5198,-2.501,-2.4864,-2.4708,-2.4528,-2.4312,-2.419,-2.419,-2.419,-2.419,-2.419,-2.419,-2.419,-2.419,-2.419,-2.4284,-2.4495,-2.4486,-2.4486,-2.4503,-2.4486,-2.4393,-2.419,-2.419,-2.419,-2.419,-2.419,-2.419,-2.397,-2.4705,-2.5535,-2.6001,-2.6083,-2.6662,-2.8944,-2.9789,-3.0419,-3.1611,-3.1874,0.0,0.0,0.0,-3.2339,0.0,0.0,0.0,0.0,0.0,0.0,0.0,0.0,0.0,0.0,0.0,0.0,0.0,0.0,0.0,0.0,0.0,0.0,0.0,0.0,-2.419,-2.419,-2.4294,-2.4478,-2.4804,-2.4949,-2.5105,-2.5308,-2.5308,-2.5308,-2.5308,-2.5308,-2.5308,-2.5308,-2.5308,-2.5348,-2.5408,-2.5529,-2.5598,-2.5637,-2.5683,-2.5703,-2.5703,-2.5703,-2.5703,-2.5703,-2.5703,-2.5703,-2.5703,-2.5662,-2.5628,-2.5558,-2.5539,-2.545,-2.535,-2.5308,-2.5234,-2.5198,-2.5198,-2.5154,-2.5115,-2.5115,-2.5154,-2.5198,-2.5198,-2.5253,-2.5308,-2.5308,-2.5308,-2.5269,-2.5203,-2.4968,-2.4775,-2.47,-2.441,-2.419,-2.419,-2.4312,-2.4393,-2.4393,-2.4503,-2.4567,-2.4567,-2.4452,-2.4478,-2.4678,-2.4685,-2.4727,-2.4811,-2.4734,-2.4647,-2.4567,-2.4567,-2.4567,-2.4567,-2.4567,-2.4512,-2.3596,-2.427,-2.5112,-2.5633,-2.5937,-2.6491,-2.801,-2.9168,-3.0233,-3.135,-3.171,-3.1687,-3.1308,0.0,0.0,0.0,0.0,0.0,0.0,0.0,0.0,0.0,0.0,0.0,0.0,0.0,0.0,0.0,0.0,0.0,0.0,0.0,0.0,0.0,0.0,-2.419,-2.419,-2.419,-2.4366,-2.4708,-2.4864,-2.5053,-2.5308,-2.5308,-2.5308,-2.5308,-2.5308,-2.5308,-2.5308,-2.5308,-2.5344,-2.5404,-2.5511,-2.5572,-2.5605,-2.5682,-2.5703,-2.5703,-2.5703,-2.5703,-2.5703,-2.5703,-2.5703,-2.5703,-2.5703,-2.5659,-2.5602,-2.5602,-2.5526,-2.5418,-2.5387,-2.533,-2.5308,-2.5308,-2.5308,-2.5308,-2.5308,-2.5308,-2.5308,-2.5308,-2.5308,-2.5308,-2.5308,-2.5308,-2.5308,-2.5308,-2.5049,-2.485,-2.485,-2.4534,-2.4294,-2.4294,-2.4428,-2.4528,-2.4583,-2.4723,-2.4804,-2.4804,-2.4712,-2.4715,-2.4862,-2.485,-2.491,-2.5004,-2.491,-2.4842,-2.4804,-2.4804,-2.4804,-2.4804,-2.4804,-2.4731,-2.4282,-2.4628,-2.4991,-2.4991,-2.6102,-2.7115,-2.6775,-2.6708,-2.7266,-2.9211,-2.9964,-3.0163,-2.9679,0.0,0.0,0.0,0.0,0.0,0.0,0.0,0.0,0.0,0.0,0.0,0.0,0.0,0.0,0.0,0.0,0.0,0.0,0.0,0.0,0.0,0.0,0.0,-2.419,-2.419,-2.4303,-2.4503,-2.47,-2.4962,-2.5303,-2.5308,-2.5308,-2.5308,-2.5308,-2.5308,-2.5308,-2.5308,-2.5339,-2.5409,-2.546,-2.5545,-2.5604,-2.5662,-2.5703,-2.5703,-2.5703,-2.5703,-2.5703,-2.5703,-2.5703,-2.5703,-2.5703,-2.5659,-2.5602,-2.5602,-2.5554,-2.5491,-2.5491,-2.5409,-2.5308,-2.5308,-2.5308,-2.5308,-2.5308,-2.5308,-2.5308,-2.5308,-2.5308,-2.5308,-2.5308,-2.5308,-2.5308,-2.5308,-2.5135,-2.5004,-2.5004,-2.4708,-2.4503,-2.4503,-2.4503,-2.4602,-2.479,-2.4804,-2.4804,-2.4804,-2.4936,-2.501,-2.5004,-2.501,-2.501,-2.501,-2.501,-2.4949,-2.4804,-2.4804,-2.4804,-2.4804,-2.4804,-2.4804,-2.3156,-2.3742,-2.4641,-2.4641,-2.575,0.0,0.0,-2.7537,0.0,0.0,-2.9523,-2.9513,-2.8521,0.0,0.0,0.0,0.0,0.0,0.0,0.0,0.0,0.0,0.0,0.0,0.0,0.0,0.0,0.0,0.0,0.0,0.0,0.0,0.0,0.0,0.0,0.0,-2.419,-2.419,-2.4303,-2.4503,-2.4551,-2.4759,-2.5094,-2.5248,-2.5308,-2.5308,-2.5308,-2.5308,-2.5308,-2.5308,-2.5308,-2.5335,-2.5394,-2.546,-2.5543,-2.5604,-2.566,-2.5703,-2.5703,-2.5703,-2.5703,-2.5703,-2.5703,-2.5703,-2.5703,-2.5683,-2.5662,-2.5662,-2.561,-2.5566,-2.5566,-2.5515,-2.5425,-2.5372,-2.533,-2.5308,-2.5308,-2.5308,-2.5308,-2.5308,-2.5308,-2.5308,-2.5308,-2.5308,-2.5308,-2.5308,-2.5135,-2.4968,-2.4864,-2.4763,-2.4708,-2.4708,-2.4795,-2.4878,-2.4949,-2.5072,-2.5149,-2.5149,-2.5187,-2.5152,-2.501,-2.5141,-2.5214,-2.5214,-2.5214,-2.5192,-2.5149,-2.5149,-2.5149,-2.5149,-2.5149,-2.5072,-2.3835,-2.4475,-2.5371,-2.5371,-2.6251,-2.7063,-2.6759,0.0,0.0,0.0,-2.7605,-2.7398,-2.6825,0.0,0.0,0.0,0.0,0.0,0.0,0.0,0.0,0.0,0.0,0.0,0.0,0.0,0.0,0.0,0.0,0.0,0.0,0.0,0.0,0.0,0.0,0.0,-2.3731,-2.34,-2.3299,-2.3429,-2.3483,-2.3607,-2.3827,-2.4435,-2.4739,-2.4812,-2.4812,-2.5,-2.5308,-2.5308,-2.5308,-2.5317,-2.5364,-2.5444,-2.5517,-2.5588,-2.5636,-2.5703,-2.5703,-2.5683,-2.566,-2.566,-2.5636,-2.5632,-2.5658,-2.566,-2.5661,-2.5683,-2.5662,-2.5636,-2.5636,-2.5597,-2.5524,-2.5418,-2.5375,-2.5326,-2.5317,-2.5308,-2.5308,-2.5308,-2.5308,-2.5308,-2.5308,-2.5308,-2.5308,-2.5308,-2.5203,-2.5059,-2.4897,-2.4871,-2.4871,-2.4871,-2.4949,-2.5028,-2.5105,-2.5224,-2.5308,-2.5308,-2.5308,-2.5259,-2.5163,-2.5259,-2.5308,-2.5308,-2.5308,-2.5308,-2.5308,-2.5308,-2.5308,-2.5308,-2.5308,-2.5248,-2.547,-2.603,-2.6656,-2.6656,-2.7165,-2.747,-2.6776,-2.5981,-2.5423,-2.549,0.0,-2.4594,0.0,0.0,0.0,0.0,0.0,0.0,0.0,0.0,0.0,0.0,0.0,0.0,0.0,0.0,0.0,0.0,0.0,0.0,0.0,0.0,0.0,0.0,0.0,0.0,-2.285,-2.2144,-2.1794,0.0,-2.1925,-2.1984,-2.2032,-2.3171,-2.3804,-2.3975,-2.3975,-2.4394,-2.5077,-2.5077,-2.5077,-2.5087,-2.5135,-2.5257,-2.5394,-2.5442,-2.5553,-2.5683,-2.5683,-2.5636,-2.5597,-2.5597,-2.5552,-2.5503,-2.5567,-2.5599,-2.5607,-2.5662,-2.5703,-2.5703,-2.5703,-2.5659,-2.5588,-2.5456,-2.5404,-2.5387,-2.5326,-2.5313,-2.5308,-2.5308,-2.5293,-2.5308,-2.5308,-2.5308,-2.5308,-2.5308,-2.5308,-2.5224,-2.5046,-2.5028,-2.5028,-2.5028,-2.5028,-2.5099,-2.5279,-2.5308,-2.5308,-2.5308,-2.5308,-2.5321,-2.5395,-2.5335,-2.5317,-2.5322,-2.5317,-2.5293,-2.5308,-2.5303,-2.5303,-2.5303,-2.5317,-2.5322,-2.4535,-2.5267,-2.6316,-2.6316,-2.6437,-2.643,-2.5927,-2.4814,-2.4036,-2.4626,-2.4609,0.0,0.0,0.0,0.0,0.0,0.0,0.0,0.0,0.0,0.0,0.0,0.0,0.0,0.0,0.0,0.0,0.0,0.0,0.0,0.0,0.0,0.0,0.0,0.0,-2.1953,-2.1752,-2.1789,-2.1794,0.0,-2.1835,-2.1903,-2.2014,-2.2595,-2.2934,-2.3086,-2.3086,-2.3182,-2.3331,-2.3331,-2.3331,-2.3336,-2.3343,-2.3829,-2.4478,-2.4496,-2.4936,-2.5547,-2.5547,-2.552,-2.5511,-2.5511,-2.5503,-2.5493,-2.5526,-2.5558,-2.5603,-2.5629,-2.566,-2.5703,-2.5703,-2.5683,-2.566,-2.5588,-2.5524,-2.5463,-2.5468,-2.5411,-2.5376,-2.5376,-2.5339,-2.5308,-2.5308,-2.5308,-2.5308,-2.5308,-2.5308,-2.5279,-2.5229,-2.5248,-2.5248,-2.5248,-2.5248,-2.5259,-2.5303,-2.5308,-2.5308,-2.5308,-2.5308,-2.5317,-2.5331,-2.5303,-2.5342,-2.544,-2.535,-2.534,-2.5376,-2.5387,-2.5387,-2.5387,-2.5431,-2.5462,-2.4813,-2.5533,-2.644,-2.644,0.0,-2.5478,-2.4898,-2.4069,-2.341,-2.3427,-2.3444,0.0,0.0,0.0,0.0,0.0,0.0,0.0,0.0,0.0,0.0,0.0,0.0,0.0,0.0,0.0,0.0,0.0,0.0,0.0,0.0,0.0,0.0,0.0,-2.1479,-2.1059,-2.0834,-2.0684,-2.0601,-2.0601,-2.0601,-2.0702,-2.0872,-2.1641,-2.2048,-2.2177,-2.2177,-2.2408,-2.2797,-2.2797,-2.2797,-2.2797,-2.2797,-2.3122,-2.3638,-2.4041,-2.4502,-2.499,-2.5374,-2.5488,-2.5456,-2.5459,-2.5431,-2.5401,-2.5444,-2.5482,-2.5524,-2.5572,-2.5632,-2.566,-2.5683,-2.5703,-2.5683,-2.566,-2.5599,-2.5545,-2.5517,-2.5463,-2.5444,-2.5401,-2.5364,-2.5344,-2.5317,-2.5308,-2.5308,-2.5308,-2.5308,-2.5308,-2.5308,-2.5308,-2.5308,-2.5308,-2.5308,-2.5308,-2.5308,-2.5308,-2.5308,-2.5308,-2.5308,-2.5313,-2.5352,-2.5317,-2.533,-2.5409,-2.5335,-2.5335,-2.5394,-2.5402,-2.5424,-2.545,-2.5473,-2.5491,-2.5373,-2.5998,-2.6579,-2.6579,-2.5776,0.0,-2.4064,-2.3573,-2.3076,-2.2429,0.0,0.0,0.0,0.0,0.0,0.0,0.0,0.0,0.0,0.0,0.0,0.0,0.0,0.0,0.0,0.0,0.0,0.0,0.0,0.0,0.0,0.0,-2.2282,-2.1166,-2.0568,-2.0175,-1.9939,-1.95,-1.9297,-1.9297,-1.9297,-1.9413,-1.964,-2.0586,-2.1081,-2.1218,-2.1235,-2.1652,-2.2329,-2.2346,-2.2374,-2.2374,-2.2374,-2.2493,-2.2762,-2.363,-2.4086,-2.4374,-2.5185,-2.5425,-2.5376,-2.5379,-2.5357,-2.5308,-2.5367,-2.5383,-2.5415,-2.5539,-2.5573,-2.5607,-2.5662,-2.5683,-2.5703,-2.5703,-2.566,-2.5602,-2.5551,-2.5533,-2.5508,-2.5434,-2.5409,-2.5375,-2.5308,-2.5308,-2.5308,-2.5308,-2.5308,-2.5308,-2.5308,-2.5308,-2.5308,-2.5308,-2.5308,-2.5308,-2.5308,-2.5308,-2.5308,-2.5308,-2.5308,-2.5326,-2.5398,-2.5352,-2.5312,-2.5335,-2.5312,-2.5346,-2.5415,-2.5425,-2.5468,-2.5526,-2.5526,-2.5449,-2.5197,-2.5608,-2.6081,0.0,-2.5506,-2.4742,0.0,0.0,-2.2693,0.0,0.0,0.0,0.0,0.0,0.0,0.0,0.0,0.0,0.0,0.0,0.0,0.0,0.0,0.0,0.0,0.0,0.0,0.0,0.0,0.0,0.0,-2.2354,-2.1352,-2.0052,-1.9654,-1.9244,-1.882,-1.9127,-1.9297,-1.9297,-1.9297,-1.9413,-1.9608,-1.9754,-1.9895,-2.0034,-2.0159,-2.0265,-2.0389,-2.0563,-2.0635,-2.0635,-2.0635,-2.107,-2.1798,-2.2669,-2.3467,-2.4236,-2.5051,-2.5327,-2.5313,-2.5313,-2.5303,-2.5308,-2.5308,-2.5346,-2.5406,-2.5418,-2.55,-2.5602,-2.5606,-2.566,-2.5703,-2.5703,-2.5683,-2.5683,-2.5682,-2.5633,-2.5564,-2.5491,-2.5395,-2.5308,-2.5308,-2.5308,-2.5308,-2.5308,-2.5308,-2.5308,-2.5308,-2.5308,-2.5308,-2.5308,-2.5308,-2.5308,-2.5308,-2.5308,-2.5308,-2.5308,-2.5308,-2.5326,-2.5406,-2.5391,-2.5401,-2.5463,-2.5415,-2.5418,-2.5498,-2.5549,-2.559,-2.5594,-2.5594,-2.5207,-2.5393,-2.5226,-2.5102,0.0,-2.4933,-2.415,-2.3863,0.0,-2.2673,0.0,0.0,0.0,0.0,0.0,0.0,0.0,0.0,0.0,0.0,0.0,0.0,0.0,0.0,0.0,0.0,0.0,0.0,0.0,0.0,0.0,-2.1648,-2.1263,-2.0471,-1.9174,-1.9238,-1.9073,-1.8595,-1.9064,-1.9297,-1.9297,-1.9297,-1.9342,-1.9423,-1.9423,-1.9565,-1.9796,-1.9863,-1.9938,-2.0012,-2.0106,-2.0197,-2.0308,-2.0308,-2.0519,-2.0923,-2.1754,-2.2312,-2.2836,-2.4159,-2.462,-2.4697,-2.5154,-2.5308,-2.5308,-2.5308,-2.5327,-2.5342,-2.5395,-2.5479,-2.5554,-2.5597,-2.5658,-2.5703,-2.5703,-2.5703,-2.5703,-2.5703,-2.5682,-2.5632,-2.5529,-2.5418,-2.5333,-2.5317,-2.5308,-2.5308,-2.5308,-2.5308,-2.5308,-2.5308,-2.5308,-2.5308,-2.5308,-2.5308,-2.5308,-2.5308,-2.5308,-2.5308,-2.5308,-2.5308,-2.5313,-2.5333,-2.5329,-2.5354,-2.5387,-2.5402,-2.5438,-2.5491,-2.5484,-2.5517,-2.5529,-2.5083,-2.4677,-2.5397,0.0,-2.4478,-2.5032,-2.4536,-2.387,0.0,0.0,0.0,0.0,0.0,0.0,0.0,0.0,0.0,0.0,0.0,0.0,0.0,0.0,0.0,0.0,0.0,0.0,0.0,0.0,0.0,0.0,0.0,0.0,-2.0548,-2.0461,-1.9856,-1.8649,-1.8938,-1.8921,-1.8499,-1.8972,-1.9243,-1.9297,-1.9297,-1.9297,-1.9297,-1.9297,-1.9441,-1.9676,-1.9732,-1.9821,-1.9906,-1.9943,-2.0031,-2.0167,-2.0167,-2.0167,-2.0263,-2.1095,-2.142,-2.1692,-2.341,-2.4068,-2.4221,-2.5038,-2.5308,-2.5308,-2.5308,-2.5308,-2.5308,-2.5367,-2.5438,-2.5503,-2.5559,-2.5611,-2.5662,-2.5662,-2.5661,-2.566,-2.5683,-2.5683,-2.5657,-2.5549,-2.5465,-2.5387,-2.533,-2.5308,-2.5308,-2.5308,-2.5308,-2.5308,-2.5308,-2.5308,-2.5308,-2.5308,-2.5308,-2.5308,-2.5308,-2.5308,-2.5308,-2.5308,-2.5317,-2.5336,-2.534,-2.5348,-2.5346,-2.5346,-2.5383,-2.5425,-2.5465,-2.5447,-2.5459,-2.5471,-2.4657,-2.427,0.0,-2.4813,0.0,-2.4574,-2.4497,0.0,0.0,0.0,0.0,0.0,0.0,0.0,0.0,0.0,0.0,0.0,0.0,0.0,0.0,0.0,0.0,0.0,0.0,0.0,0.0,0.0,0.0,0.0,0.0,0.0,-2.0548,-2.0325,-1.9713,-1.8639,-1.8623,-1.8508,-1.8218,-1.8752,-1.9101,-1.9297,-1.9297,-1.9297,-1.9297,-1.9297,-1.9312,-1.9342,-1.9534,-1.9609,-1.9629,-1.9762,-1.9826,-1.9832,-1.9832,-1.9832,-1.9932,-2.0806,-2.1195,-2.1544,-2.3226,-2.3941,-2.4221,-2.5038,-2.5308,-2.5308,-2.5308,-2.5308,-2.5308,-2.5293,-2.5406,-2.5491,-2.5496,-2.5556,-2.5604,-2.5604,-2.5558,-2.5549,-2.5662,-2.5658,-2.5603,-2.5599,-2.5481,-2.5406,-2.5395,-2.5344,-2.5308,-2.5308,-2.5308,-2.5308,-2.5308,-2.5308,-2.5308,-2.5308,-2.5308,-2.5308,-2.5308,-2.5308,-2.5308,-2.5308,-2.5354,-2.5395,-2.5383,-2.5462,-2.5481,-2.5481,-2.5434,-2.5394,-2.542,-2.5474,-2.5508,-2.5471,-2.4611,-2.4243,0.0,0.0,0.0,-2.4708,-2.461,-2.4442,-2.4256,-2.3951,0.0,0.0,0.0,0.0,0.0,0.0,0.0,0.0,0.0,0.0,0.0,0.0,0.0,0.0,0.0,0.0,0.0,0.0,0.0,0.0,0.0,0.0,-1.9748,-1.9666,-1.9305,-1.8622,-1.877,-1.8734,-1.846,-1.8816,-1.9035,-1.9101,-1.9246,-1.9297,-1.9297,-1.9297,-1.9297,-1.9297,-1.9391,-1.9485,-1.9596,-1.9643,-1.9713,-1.979,-1.979,-1.979,-1.9847,-2.0141,-2.0308,-2.0505,-2.1665,-2.2547,-2.3264,-2.4068,-2.4772,-2.5308,-2.5308,-2.5308,-2.5308,-2.5308,-2.5367,-2.5434,-2.5438,-2.5495,-2.5541,-2.5541,-2.5526,-2.5513,-2.5628,-2.5644,-2.5658,-2.5605,-2.5559,-2.5491,-2.5401,-2.5372,-2.5346,-2.5317,-2.5308,-2.5308,-2.5308,-2.5308,-2.5308,-2.5308,-2.5308,-2.5308,-2.5308,-2.5308,-2.5322,-2.5367,-2.5387,-2.5415,-2.5451,-2.5498,-2.5471,-2.5441,-2.5443,-2.545,-2.5394,-2.5425,-2.5438,-2.5415,-2.4635,-2.3975,-2.5099,0.0,0.0,0.0,0.0,-2.467,-2.4534,0.0,0.0,0.0,0.0,0.0,0.0,0.0,0.0,0.0,0.0,0.0,0.0,0.0,0.0,0.0,0.0,0.0,0.0,0.0,0.0,0.0,0.0,0.0,-1.9297,-1.9246,-1.8964,-1.8479,-1.865,-1.8659,-1.8469,-1.8734,-1.8914,-1.8992,-1.8932,-1.8911,-1.8893,-1.861,-1.8482,-1.8519,-1.8775,-1.9133,-1.9499,-1.9499,-1.9557,-1.9632,-1.9632,-1.9632,-1.9632,-1.9632,-1.9663,-1.9844,-2.0697,-2.1504,-2.235,-2.3449,-2.43,-2.4947,-2.5212,-2.5308,-2.5308,-2.5308,-2.5357,-2.5402,-2.5409,-2.5434,-2.5465,-2.5438,-2.5456,-2.549,-2.5511,-2.5603,-2.5664,-2.5638,-2.5628,-2.5566,-2.5488,-2.5453,-2.5415,-2.5364,-2.5371,-2.5359,-2.5339,-2.5335,-2.5317,-2.5293,-2.5308,-2.5308,-2.5308,-2.5308,-2.5326,-2.5402,-2.5418,-2.5443,-2.5508,-2.5511,-2.5493,-2.5438,-2.5488,-2.5488,-2.5438,-2.5438,-2.5434,-2.5412,-2.4657,-2.369,0.0,0.0,0.0,0.0,0.0,0.0,0.0,0.0,0.0,0.0,0.0,0.0,0.0,0.0,0.0,0.0,0.0,0.0,0.0,0.0,0.0,0.0,0.0,0.0,0.0,0.0,0.0,0.0,0.0,-1.9297,-1.9297,-1.9101,-1.8744,-1.8204,-1.8191,-1.818,-1.8128,-1.8407,-1.8671,-1.8912,-1.8333,-1.8052,-1.8034,-1.7257,-1.6908,-1.6945,-1.7722,-1.8519,-1.9279,-1.9297,-1.9297,-1.9297,-1.9297,-1.9297,-1.9297,-1.9297,-1.9416,-1.9701,-2.0474,-2.0985,-2.1571,-2.3209,-2.3917,-2.424,-2.5058,-2.5308,-2.5308,-2.5308,-2.5352,-2.5395,-2.5406,-2.5402,-2.5387,-2.5317,-2.5346,-2.5409,-2.539,-2.5496,-2.5628,-2.5683,-2.5658,-2.5603,-2.5602,-2.5549,-2.5493,-2.5491,-2.5491,-2.5488,-2.5404,-2.5394,-2.5368,-2.5303,-2.5308,-2.5308,-2.5308,-2.5288,-2.5326,-2.5398,-2.5471,-2.5496,-2.5515,-2.5564,-2.5566,-2.5496,-2.5496,-2.5496,-2.5493,-2.5493,-2.5493,-2.5437,-2.4628,-2.3358,-2.5308,0.0,0.0,0.0,0.0,0.0,0.0,0.0,0.0,0.0,0.0,0.0,0.0,0.0,0.0,0.0,0.0,0.0,0.0,0.0,0.0,0.0,0.0,0.0,0.0,0.0,0.0,0.0,-1.9297,-1.9297,-1.9297,-1.9101,-1.8635,-1.787,-1.8076,-1.7668,-1.6559,-1.7194,-1.7371,-1.7042,-1.7034,-1.7096,-1.722,-1.7,-1.6908,-1.6908,-1.7147,-1.7686,-1.8482,-1.9058,-1.9297,-1.9297,-1.9297,-1.9297,-1.9297,-1.9297,-1.9335,-1.9416,-1.9634,-2.0342,-2.132,-2.2374,-2.3346,-2.424,-2.5058,-2.5308,-2.5308,-2.5308,-2.5313,-2.534,-2.5321,-2.5321,-2.5312,-2.5293,-2.5317,-2.5348,-2.5395,-2.5477,-2.5551,-2.5607,-2.5644,-2.566,-2.5605,-2.5575,-2.5556,-2.5517,-2.5491,-2.5485,-2.5417,-2.5406,-2.5368,-2.5303,-2.5308,-2.5308,-2.5308,-2.5337,-2.5409,-2.5474,-2.5541,-2.5598,-2.5636,-2.5661,-2.5636,-2.5567,-2.563,-2.563,-2.5567,-2.5567,-2.5254,-2.4609,-2.3213,-2.2322,-2.5308,-2.5375,0.0,0.0,0.0,0.0,0.0,-2.502,0.0,0.0,0.0,0.0,0.0,0.0,0.0,0.0,0.0,0.0,0.0,0.0,0.0,0.0,0.0,0.0,0.0,0.0,0.0,0.0,-1.9297,-1.9297,-1.9297,-1.919,-1.8858,-1.8262,-1.8028,-1.7424,-1.6414,-1.6556,-1.6482,-1.6167,-1.6033,-1.6085,-1.6265,-1.593,-1.5823,-1.5918,-1.6255,-1.6677,-1.7197,-1.8335,-1.9003,-1.9297,-1.9297,-1.9297,-1.9297,-1.9297,-1.9297,-1.9297,-1.9297,-1.9843,-2.0682,-2.1525,-2.2607,-2.3701,-2.4543,-2.5019,-2.5308,-2.5308,-2.5308,-2.5308,-2.5308,-2.5308,-2.5308,-2.5308,-2.5308,-2.5308,-2.5346,-2.5401,-2.5495,-2.5572,-2.5633,-2.5643,-2.564,-2.5622,-2.5602,-2.5598,-2.5573,-2.5558,-2.5498,-2.5465,-2.5411,-2.5357,-2.5317,-2.5308,-2.5308,-2.5363,-2.5428,-2.5506,-2.5561,-2.5633,-2.5703,-2.5703,-2.5683,-2.5636,-2.5683,-2.5683,-2.5636,-2.5636,-2.5187,-2.4308,-2.3007,-2.2227,-2.5308,-2.5402,-2.5495,0.0,0.0,0.0,-2.5104,-2.5004,0.0,0.0,0.0,0.0,0.0,0.0,0.0,0.0,0.0,0.0,0.0,0.0,0.0,0.0,0.0,0.0,0.0,-1.9993,-1.9204,-1.9389,-1.9337,-1.9297,-1.9297,-1.9297,-1.9185,-1.8908,-1.8002,-1.733,-1.6918,-1.621,-1.5836,-1.5758,-1.5206,-1.5049,-1.5232,-1.4532,-1.4307,-1.4548,-1.5252,-1.5625,-1.5808,-1.7234,-1.8353,-1.9168,-1.9237,-1.9274,-1.9297,-1.9266,-1.9274,-1.9297,-1.9297,-1.9513,-1.9947,-2.082,-2.1819,-2.2836,-2.3802,-2.4601,-2.5192,-2.5269,-2.5317,-2.5308,-2.5288,-2.5308,-2.5308,-2.5308,-2.5308,-2.5308,-2.5308,-2.5346,-2.5431,-2.5554,-2.5573,-2.5605,-2.5661,-2.5634,-2.563,-2.5683,-2.5703,-2.5682,-2.5605,-2.5551,-2.5471,-2.5413,-2.5346,-2.5327,-2.5313,-2.5387,-2.5447,-2.5517,-2.5567,-2.5636,-2.5703,-2.5703,-2.5703,-2.5703,-2.5703,-2.5703,-2.5703,-2.5605,-2.5156,-2.4375,-2.3398,-2.2578,-2.5308,-2.5402,-2.5508,-2.5473,0.0,0.0,-2.4623,-2.4416,-2.415,0.0,0.0,0.0,0.0,0.0,0.0,0.0,0.0,0.0,0.0,0.0,0.0,0.0,0.0,0.0,0.0,-2.0517,-1.9903,-1.9939,-1.9545,-1.9297,-1.9297,-1.9297,-1.8981,-1.8305,-1.7886,-1.7046,-1.5741,-1.5266,-1.4792,-1.4314,-1.4036,-1.4082,-1.4436,-1.4267,-1.4307,-1.4512,-1.4677,-1.5105,-1.5717,-1.6047,-1.7014,-1.8368,-1.8873,-1.9158,-1.9274,-1.9109,-1.9158,-1.9297,-1.9297,-1.9513,-1.9947,-2.082,-2.1395,-2.2043,-2.3624,-2.4206,-2.4471,-2.5115,-2.5344,-2.5379,-2.5317,-2.5308,-2.5308,-2.5308,-2.5308,-2.5308,-2.5308,-2.535,-2.542,-2.5428,-2.5471,-2.5511,-2.5543,-2.5567,-2.5603,-2.5629,-2.5661,-2.5682,-2.5605,-2.5595,-2.552,-2.5408,-2.5438,-2.5441,-2.5387,-2.5481,-2.5563,-2.5572,-2.5637,-2.5683,-2.5703,-2.5703,-2.5703,-2.5703,-2.5703,-2.5703,-2.5703,-2.5,-2.4549,-2.4281,-2.276,-2.1947,-2.5308,-2.5402,-2.5491,-2.5491,0.0,0.0,0.0,-2.4914,-2.4756,-2.4255,0.0,0.0,0.0,0.0,0.0,0.0,0.0,0.0,0.0,0.0,0.0,0.0,0.0,0.0,0.0,-2.0748,-2.022,-2.0109,-1.9839,-1.9575,-1.9308,-1.9297,-1.9113,-1.8702,-1.7692,-1.6771,-1.6016,-1.4804,-1.4047,-1.3743,-1.358,-1.3696,-1.4045,-1.4045,-1.4162,-1.4356,-1.4356,-1.4513,-1.4828,-1.5239,-1.6117,-1.7276,-1.8054,-1.8378,-1.843,-1.869,-1.8948,-1.915,-1.915,-1.9383,-1.9776,-2.0288,-2.0885,-2.1583,-2.253,-2.3413,-2.4259,-2.5077,-2.5317,-2.5333,-2.5303,-2.5308,-2.5308,-2.5308,-2.5308,-2.5308,-2.5308,-2.5321,-2.5346,-2.5361,-2.5387,-2.5418,-2.5498,-2.5535,-2.5559,-2.5599,-2.566,-2.5683,-2.5659,-2.563,-2.5567,-2.5517,-2.5491,-2.5498,-2.544,-2.5547,-2.5602,-2.5602,-2.5661,-2.5703,-2.5703,-2.5703,-2.5703,-2.5703,-2.5703,-2.5703,-2.5703,-2.5254,-2.4587,-2.367,-2.2833,-2.1955,0.0,0.0,0.0,0.0,0.0,-2.5643,0.0,0.0,0.0,-2.5079,0.0,0.0,0.0,0.0,0.0,0.0,0.0,0.0,0.0,0.0,0.0,0.0,0.0,0.0,0.0,-2.1027,-2.0522,-2.0247,-2.0288,-2.0065,-1.9486,-1.9505,-1.9462,-1.9297,-1.7727,-1.6809,-1.6657,-1.4839,-1.3856,-1.3663,-1.3501,-1.3581,-1.3831,-1.3831,-1.3955,-1.4143,-1.4143,-1.4045,-1.3942,-1.4598,-1.5223,-1.589,-1.7111,-1.7646,-1.7773,-1.8327,-1.8697,-1.8931,-1.8975,-1.9238,-1.9557,-1.975,-2.0505,-2.1397,-2.1671,-2.2853,-2.4272,-2.5087,-2.5308,-2.5322,-2.5293,-2.5308,-2.5293,-2.5317,-2.5322,-2.5322,-2.5327,-2.5327,-2.5317,-2.5293,-2.5308,-2.5335,-2.5444,-2.546,-2.5493,-2.5566,-2.5636,-2.5683,-2.5703,-2.5658,-2.5607,-2.5602,-2.5561,-2.5539,-2.5529,-2.5572,-2.5629,-2.5629,-2.5662,-2.5703,-2.5703,-2.5703,-2.5703,-2.5703,-2.5703,-2.5625,-2.5449,-2.5449,-2.4722,-2.3332,-2.3158,-2.2197,0.0,0.0,0.0,0.0,-2.5558,0.0,0.0,0.0,-2.4292,-2.3453,0.0,0.0,0.0,0.0,0.0,0.0,0.0,0.0,0.0,0.0,0.0,0.0,0.0,0.0,0.0,0.0,-2.1195,-2.0746,-2.1008,-2.0831,-2.0047,-2.0221,-2.0034,-1.9315,-1.8412,-1.7584,-1.6863,-1.5762,-1.4745,-1.3853,-1.3671,-1.3601,-1.3623,-1.3623,-1.3736,-1.3934,-1.3934,-1.3927,-1.3906,-1.4002,-1.3988,-1.4125,-1.6316,-1.7695,-1.847,-1.8296,-1.842,-1.8688,-1.8923,-1.9105,-1.9313,-1.9676,-2.0549,-2.1622,-2.2408,-2.3373,-2.4335,-2.5091,-2.5333,-2.5372,-2.5317,-2.5308,-2.5313,-2.5379,-2.5383,-2.5383,-2.5391,-2.5395,-2.5364,-2.5313,-2.5308,-2.5298,-2.5327,-2.5375,-2.5431,-2.5491,-2.5564,-2.5634,-2.5683,-2.5683,-2.5661,-2.5604,-2.5657,-2.5659,-2.5598,-2.5658,-2.5683,-2.5683,-2.5703,-2.5703,-2.5703,-2.5703,-2.5703,-2.5703,-2.5703,-2.5312,-2.4551,-2.4545,-2.4425,-2.4146,-2.3371,-2.2413,0.0,0.0,0.0,0.0,0.0,0.0,-2.5183,0.0,-2.5035,0.0,0.0,0.0,0.0,0.0,0.0,0.0,0.0,0.0,0.0,0.0,0.0,0.0,0.0,0.0,0.0,0.0,0.0,0.0,0.0,-2.0964,-1.9907,-1.9962,-1.9677,-1.8922,-1.8104,-1.7353,-1.6664,-1.5666,-1.473,-1.3906,-1.3709,-1.3592,-1.3592,-1.3592,-1.3655,-1.3739,-1.3739,-1.3671,-1.3605,-1.3605,-1.3816,-1.4255,-1.5683,-1.648,-1.6954,-1.7689,-1.8135,-1.841,-1.866,-1.8904,-1.9151,-1.9632,-2.0255,-2.0934,-2.1694,-2.2196,-2.2752,-2.3929,-2.4369,-2.4577,-2.5004,-2.5214,-2.5317,-2.5376,-2.5398,-2.5417,-2.5456,-2.5428,-2.5398,-2.5352,-2.5321,-2.5308,-2.5308,-2.537,-2.5413,-2.5434,-2.5508,-2.5563,-2.5634,-2.5636,-2.5642,-2.5661,-2.5683,-2.5683,-2.566,-2.5683,-2.5703,-2.5703,-2.5703,-2.5703,-2.5703,-2.5703,-2.5703,-2.5703,-2.5195,-2.4766,-2.4394,-2.3899,-2.3345,-2.2773,-2.2375,-2.1694,-2.5308,0.0,0.0,0.0,0.0,0.0,0.0,0.0,0.0,0.0,0.0,0.0,0.0,0.0,0.0,0.0,0.0,0.0,0.0,0.0,0.0,0.0,0.0,0.0,0.0,0.0,0.0,0.0,0.0,0.0,-2.0254,-2.0179,-1.9789,-1.8921,-1.8134,-1.732,-1.6453,-1.5731,-1.4841,-1.3827,-1.3661,-1.3578,-1.3548,-1.3548,-1.3548,-1.3548,-1.3548,-1.3494,-1.3396,-1.3396,-1.3726,-1.4267,-1.502,-1.5426,-1.5781,-1.7259,-1.7916,-1.8135,-1.8479,-1.8843,-1.9227,-1.9663,-1.9952,-2.0302,-2.1071,-2.1426,-2.1846,-2.3145,-2.3777,-2.4225,-2.4846,-2.5113,-2.5274,-2.5394,-2.5437,-2.5457,-2.5509,-2.5474,-2.5415,-2.5408,-2.5367,-2.5312,-2.5293,-2.5339,-2.5387,-2.5395,-2.5441,-2.5506,-2.5561,-2.5595,-2.5629,-2.5661,-2.5683,-2.5703,-2.5703,-2.5703,-2.5703,-2.5703,-2.5703,-2.5703,-2.5703,-2.5703,-2.5586,-2.5352,-2.4727,-2.416,-2.369,-2.3031,-2.2237,-2.1327,-2.1515,-2.1133,0.0,0.0,0.0,-2.5427,0.0,0.0,0.0,0.0,-2.5703,0.0,0.0,0.0,0.0,0.0,0.0,0.0,0.0,0.0,0.0,0.0,0.0,0.0,0.0,0.0,0.0,0.0,0.0,0.0,0.0,0.0,-2.1502,-2.1377,-2.0836,-1.9707,-1.8956,-1.7843,-1.6311,-1.6267,-1.5375,-1.3617,-1.3592,-1.3524,-1.3405,-1.3405,-1.3405,-1.3405,-1.3405,-1.3396,-1.3396,-1.3396,-1.3413,-1.3515,-1.4259,-1.496,-1.5781,-1.7259,-1.7811,-1.7883,-1.842,-1.904,-1.9603,-1.9756,-1.9815,-2.0006,-2.1001,-2.1747,-2.2438,-2.3263,-2.4112,-2.4797,-2.4968,-2.5042,-2.5166,-2.5435,-2.5502,-2.5525,-2.5587,-2.554,-2.5477,-2.5402,-2.5409,-2.5372,-2.5308,-2.5308,-2.5336,-2.5383,-2.5402,-2.5421,-2.5486,-2.5559,-2.5602,-2.5603,-2.5661,-2.5703,-2.5703,-2.5703,-2.5703,-2.5703,-2.5703,-2.5703,-2.5703,-2.5703,-2.5293,-2.4453,-2.4414,-2.3572,-2.1877,-2.1786,-2.1267,-2.0371,-2.1216,-2.1133,0.0,0.0,-2.473,-2.5329,0.0,0.0,0.0,0.0,0.0,0.0,0.0,0.0,0.0,0.0,0.0,0.0,0.0,0.0,0.0,0.0,0.0,0.0,0.0,0.0,0.0,0.0,0.0,0.0,0.0,0.0,0.0,-2.1763,-2.1146,-1.9545,-1.9255,-1.8378,-1.6785,-1.628,-1.5488,-1.4389,-1.3844,-1.3524,-1.3396,-1.3396,-1.3396,-1.3396,-1.3396,-1.3396,-1.3396,-1.3396,-1.3396,-1.3481,-1.4199,-1.4656,-1.5044,-1.6525,-1.749,-1.8135,-1.8688,-1.9188,-1.9603,-1.9643,-1.9719,-1.986,-2.0088,-2.0708,-2.1449,-2.2176,-2.3066,-2.3979,-2.4676,-2.4989,-2.5168,-2.5375,-2.5478,-2.5507,-2.553,-2.5522,-2.5487,-2.547,-2.5423,-2.5379,-2.5364,-2.5226,-2.5149,-2.5312,-2.5226,-2.5216,-2.5418,-2.5443,-2.5476,-2.5537,-2.5554,-2.5564,-2.5564,-2.508,-2.4799,-2.4836,-2.4258,-2.3915,-2.3915,-2.3915,-2.3779,-2.3486,-2.2918,-2.2326,-2.1726,-2.1087,-2.061,-2.0307,-2.0608,-2.0581,-2.4404,-2.4065,0.0,-2.4467,-2.4237,0.0,-2.5039,0.0,0.0,0.0,0.0,0.0,0.0,0.0,0.0,0.0,0.0,0.0,0.0,0.0,0.0,0.0,0.0,0.0,0.0,0.0,-2.2956,-2.288,0.0,0.0,0.0,0.0,-2.1547,-1.998,-1.9682,-1.8735,-1.7062,-1.6301,-1.5512,-1.4675,-1.3903,-1.3486,-1.3396,-1.3396,-1.3396,-1.3396,-1.3396,-1.3396,-1.3396,-1.3396,-1.3396,-1.3447,-1.3921,-1.4267,-1.4673,-1.6164,-1.7387,-1.841,-1.8861,-1.9214,-1.952,-1.963,-1.9644,-1.9619,-1.9663,-2.0148,-2.0777,-2.1221,-2.2228,-2.3357,-2.4084,-2.4657,-2.5067,-2.5256,-2.5408,-2.5506,-2.5507,-2.5506,-2.55,-2.5508,-2.5478,-2.5431,-2.5397,-2.5142,-2.4993,-2.5163,-2.5088,-2.5061,-2.524,-2.5348,-2.5415,-2.5468,-2.5495,-2.5374,-2.5104,-2.4313,-2.3864,-2.3893,-2.3325,-2.3132,-2.3441,-2.3151,-2.2995,-2.2991,-2.2133,-2.1537,-2.1204,-2.059,-2.0295,-2.0302,-2.03,-2.0308]},{"header":{"parameterUnit":"m.s-1","parameterCategory":1,"la1":30.6,"la2":29.2853,"lo1":-89.7004,"lo2":-87.6739,"dy":0.0162,"dx":0.0183,"nx":112,"ny":82,"refTime":"2024-07-16T00:00:00:Z","depth":0,"parameterNumber":3,"parameterNumberName":"V-component_of_WINDS"},"data":[0.0,0.0,0.0,0.0,0.0,0.0,0.0,0.0,0.0,0.0,0.0,0.0,0.0,0.0,0.0,0.0,0.0,0.0,0.0,0.0,0.0,0.0,0.0,0.0,0.0,0.0,0.0,0.0,0.0,0.0,0.0,0.0,0.0,0.0,0.0,0.0,0.0,0.0,0.0,0.0,0.0,0.0,0.0,0.0,0.0,0.0,0.0,0.0,0.0,0.0,0.0,0.0,0.0,0.0,0.0,0.0,0.0,0.0,0.0,0.0,0.0,0.0,0.0,0.0,0.0,0.0,0.0,0.0,0.0,0.0,0.0,0.0,0.0,0.0,0.0,0.0,0.0,0.0,0.0,0.0,0.0,0.0,0.0,0.0,0.0,0.0,0.0,0.0,0.0,0.0,-0.7139,-0.6528,-0.8255,-1.0144,-1.1643,-1.2744,-1.342,-1.3591,0.0,0.0,0.0,0.0,0.0,0.0,0.0,0.0,0.0,0.0,0.0,0.0,0.0,0.0,0.0,0.0,0.0,0.0,0.0,0.0,0.0,0.0,0.0,0.0,0.0,0.0,0.0,0.0,0.0,0.0,0.0,0.0,0.0,0.0,0.0,0.0,0.0,0.0,0.0,0.0,0.0,0.0,0.0,0.0,0.0,0.0,0.0,0.0,0.0,0.0,0.0,0.0,0.0,0.0,0.0,0.0,0.0,0.0,0.0,0.0,0.0,0.0,0.0,0.0,0.0,0.0,0.0,0.0,0.0,0.0,0.0,0.0,0.0,0.0,0.0,0.0,0.0,0.0,0.0,0.0,0.0,0.0,0.0,0.0,0.0,0.0,0.0,0.0,0.0,0.0,0.0,0.0,0.0,0.0,0.0,0.0,0.0,0.0,0.0,0.0,0.0,0.0,0.0,0.0,-0.7738,-0.9211,-0.9457,-1.0473,-1.2918,-1.3101,-1.3226,-1.3578,0.0,0.0,0.0,0.0,0.0,0.0,0.0,0.0,0.0,0.0,0.0,0.0,0.0,0.0,0.0,0.0,0.0,0.0,0.0,0.0,0.0,0.0,0.0,0.0,0.0,0.0,0.0,0.0,0.0,0.0,0.0,0.0,0.0,0.0,0.0,0.0,0.0,0.0,0.0,0.0,0.0,0.0,0.0,0.0,0.0,0.0,0.0,0.0,0.0,0.0,0.0,0.0,0.0,0.0,0.0,0.0,0.0,0.0,0.0,0.0,0.0,0.0,0.0,0.0,0.0,0.0,0.0,0.0,0.0,0.0,0.0,0.0,0.0,0.0,0.0,0.0,0.0,0.0,0.0,0.0,0.0,0.0,0.0,0.0,0.0,0.0,0.0,0.0,0.0,0.0,0.0,0.0,0.0,0.0,0.0,0.0,0.0,0.0,0.0,0.0,0.0,0.0,0.0,-0.8068,-0.8657,-0.9646,-1.0712,-1.1841,-1.2904,-1.3467,-1.3676,-1.338,-1.444,0.0,0.0,0.0,0.0,0.0,0.0,0.0,0.0,0.0,0.0,0.0,0.0,0.0,0.0,0.0,0.0,0.0,0.0,0.0,0.0,0.0,0.0,0.0,0.0,0.0,0.0,0.0,0.0,0.0,0.0,0.0,0.0,0.0,0.0,0.0,0.0,0.0,0.0,0.0,0.0,0.0,0.0,0.0,0.0,0.0,0.0,0.0,0.0,0.0,0.0,0.0,0.0,0.0,0.0,0.0,0.0,0.0,0.0,0.0,0.0,0.0,0.0,0.0,0.0,0.0,0.0,0.0,0.0,0.0,0.0,0.0,0.0,0.0,0.0,0.0,0.0,0.0,0.0,0.0,0.0,0.0,0.0,0.0,0.0,0.0,0.0,0.0,0.0,0.0,0.0,0.0,0.0,0.0,0.0,0.0,0.0,0.0,0.0,0.0,0.0,0.0,0.0,-0.8516,-0.9476,-0.9858,-1.1697,-1.2939,-1.3059,-1.3814,-1.4001,-1.326,-1.4306,0.0,0.0,0.0,0.0,0.0,0.0,0.0,0.0,0.0,0.0,0.0,0.0,0.0,0.0,0.0,0.0,0.0,0.0,0.0,0.0,0.0,0.0,0.0,0.0,0.0,0.0,0.0,0.0,0.0,0.0,0.0,0.0,0.0,0.0,0.0,0.0,0.0,0.0,0.0,0.0,0.0,0.0,0.0,0.0,0.0,0.0,0.0,0.0,0.0,0.0,0.0,0.0,0.0,0.0,0.0,0.0,0.0,0.0,0.0,0.0,0.0,0.0,0.0,0.0,0.0,0.0,0.0,0.0,0.0,0.0,0.0,0.0,0.0,0.0,0.0,0.0,0.0,0.0,0.0,0.0,0.0,0.0,0.0,0.0,0.0,0.0,0.0,0.0,0.0,0.0,0.0,0.0,0.0,0.0,0.0,0.0,0.0,0.0,0.0,0.0,0.0,0.0,-0.8309,-0.9798,-1.1027,-1.2052,-1.3109,-1.4254,-1.3931,-1.3527,-1.3233,-1.3915,0.0,0.0,0.0,0.0,0.0,0.0,0.0,0.0,0.0,0.0,0.0,0.0,0.0,0.0,0.0,0.0,0.0,0.0,0.0,0.0,0.0,0.0,0.0,0.0,0.0,0.0,0.0,0.0,0.0,0.0,0.0,0.0,0.0,0.0,0.0,0.0,0.0,0.0,0.0,0.0,0.0,0.0,0.0,0.0,0.0,0.0,0.0,0.0,0.0,0.0,0.0,0.0,0.0,0.0,0.0,0.0,0.0,0.0,0.0,0.0,0.0,0.0,0.0,0.0,0.0,0.0,0.0,0.0,0.0,0.0,0.0,0.0,0.0,0.0,0.0,0.0,0.0,0.0,0.0,0.0,0.0,0.0,0.0,0.0,0.0,0.0,0.0,0.0,0.0,0.0,0.0,0.0,0.0,0.0,0.0,0.0,0.0,0.0,0.0,0.0,0.0,0.0,-1.0366,-1.154,0.0,-1.3101,-1.3909,-1.4219,-1.4048,-1.3714,-1.324,0.0,0.0,0.0,0.0,0.0,0.0,0.0,0.0,0.0,0.0,0.0,0.0,0.0,0.0,0.0,0.0,0.0,0.0,0.0,0.0,0.0,0.0,0.0,0.0,0.0,0.0,0.0,0.0,0.0,0.0,0.0,0.0,0.0,0.0,0.0,0.0,0.0,0.0,0.0,0.0,0.0,0.0,0.0,0.0,0.0,0.0,0.0,0.0,0.0,0.0,0.0,0.0,0.0,0.0,0.0,0.0,0.0,0.0,0.0,0.0,0.0,0.0,0.0,0.0,0.0,0.0,0.0,0.0,0.0,0.0,0.0,0.0,0.0,0.0,0.0,0.0,0.0,0.0,0.0,0.0,0.0,0.0,0.0,0.0,0.0,0.0,0.0,0.0,0.0,0.0,0.0,0.0,0.0,0.0,0.0,0.0,0.0,0.0,0.0,0.0,0.0,0.0,-1.0024,-1.1447,-1.2496,0.0,-1.3628,-1.4262,-1.3975,-1.3861,-1.3554,-1.2959,0.0,0.0,0.0,0.0,0.0,0.0,0.0,0.0,0.0,0.0,0.0,0.0,0.0,0.0,0.0,0.0,0.0,0.0,0.0,0.0,0.0,0.0,0.0,0.0,0.0,0.0,0.0,0.0,0.0,0.0,0.0,0.0,0.0,0.0,0.0,0.0,0.0,0.0,0.0,0.0,0.0,0.0,0.0,0.0,0.0,0.0,0.0,0.0,0.0,0.0,0.0,0.0,0.0,0.0,0.0,0.0,0.0,0.0,0.0,0.0,0.0,0.0,0.0,0.0,0.0,0.0,0.0,0.0,0.0,0.0,0.0,0.0,0.0,0.0,0.0,0.0,0.0,0.0,0.0,0.0,0.0,0.0,0.0,0.0,0.0,0.0,0.0,0.0,0.0,0.0,0.0,0.0,0.0,0.0,0.0,0.0,0.0,0.0,0.0,0.0,0.0,0.0,-0.9623,-1.1178,-1.2322,-1.2322,-1.3379,-1.3961,-1.3626,-1.334,-1.2953,0.0,0.0,0.0,0.0,0.0,0.0,0.0,0.0,0.0,0.0,0.0,0.0,0.0,0.0,0.0,0.0,0.0,0.0,0.0,0.0,0.0,0.0,0.0,0.0,0.0,0.0,0.0,0.0,0.0,0.0,0.0,0.0,0.0,0.0,0.0,0.0,0.0,0.0,0.0,0.0,0.0,0.0,0.0,0.0,0.0,0.0,0.0,0.0,0.0,0.0,0.0,0.0,0.0,0.0,0.0,0.0,0.0,0.0,0.0,0.0,0.0,0.0,0.0,0.0,0.0,0.0,0.0,0.0,0.0,0.0,0.0,0.0,0.0,0.0,0.0,0.0,0.0,0.0,0.0,0.0,0.0,0.0,0.0,0.0,0.0,0.0,0.0,0.0,0.0,0.0,0.0,0.0,0.0,0.0,0.0,0.0,0.0,0.0,0.0,0.0,0.0,0.0,0.0,-1.1782,-1.2474,-1.3117,-1.3516,-1.368,-1.37,-1.3613,-1.3527,-1.3127,-1.2351,0.0,0.0,0.0,0.0,0.0,0.0,0.0,0.0,0.0,0.0,0.0,0.0,0.0,0.0,0.0,0.0,0.0,0.0,0.0,0.0,0.0,0.0,0.0,0.0,0.0,0.0,0.0,0.0,0.0,0.0,0.0,0.0,0.0,0.0,0.0,0.0,0.0,0.0,0.0,0.0,0.0,0.0,0.0,0.0,0.0,0.0,0.0,0.0,0.0,0.0,0.0,0.0,0.0,0.0,0.0,0.0,0.0,0.0,0.0,0.0,0.0,0.0,0.0,0.0,0.0,0.0,0.0,0.0,0.0,0.0,0.0,0.0,0.0,0.0,0.0,0.0,0.0,0.0,0.0,0.0,0.0,0.0,0.0,0.0,0.0,0.0,0.0,0.0,0.0,0.0,0.0,0.0,0.0,0.0,0.0,0.0,0.0,0.0,0.0,0.0,0.0,0.0,-1.2388,-1.2872,-1.3347,-1.3701,-1.3581,-1.338,-1.3293,-1.3287,-1.2906,-1.2011,0.0,0.0,0.0,0.0,0.0,0.0,0.0,0.0,0.0,0.0,0.0,0.0,0.0,0.0,0.0,0.0,0.0,0.0,0.0,0.0,0.0,0.0,0.0,0.0,0.0,0.0,0.0,0.0,0.0,0.0,0.0,0.0,0.0,0.0,0.0,0.0,0.0,0.0,0.0,0.0,0.0,0.0,0.0,0.0,0.0,0.0,0.0,0.0,0.0,0.0,0.0,0.0,0.0,0.0,0.0,0.0,0.0,0.0,0.0,0.0,0.0,0.0,0.0,0.0,0.0,0.0,0.0,0.0,0.0,0.0,0.0,0.0,0.0,0.0,0.0,0.0,0.0,0.0,0.0,0.0,0.0,0.0,0.0,0.0,0.0,0.0,0.0,0.0,0.0,0.0,0.0,0.0,0.0,0.0,0.0,0.0,0.0,0.0,0.0,0.0,0.0,0.0,-1.1899,-1.2605,-1.3146,-1.32,-1.3186,-1.3053,-1.2811,-1.2784,-1.2446,-1.1586,0.0,0.0,0.0,0.0,0.0,0.0,0.0,0.0,0.0,0.0,0.0,0.0,0.0,0.0,0.0,0.0,0.0,0.0,0.0,0.0,0.0,0.0,0.0,0.0,0.0,0.0,0.0,0.0,0.0,0.0,0.0,0.0,0.0,0.0,0.0,0.0,0.0,0.0,0.0,0.0,0.0,0.0,0.0,0.0,0.0,0.0,0.0,0.0,0.0,0.0,0.0,0.0,0.0,0.0,0.0,0.0,0.0,0.0,0.0,0.0,-1.328,0.0,0.0,0.0,0.0,0.0,0.0,0.0,0.0,0.0,0.0,0.0,0.0,0.0,0.0,0.0,0.0,0.0,0.0,0.0,0.0,0.0,0.0,0.0,0.0,0.0,0.0,0.0,0.0,0.0,0.0,0.0,0.0,0.0,0.0,0.0,0.0,0.0,0.0,0.0,0.0,0.0,-1.1873,-1.2238,-1.2679,-1.316,-1.2993,-1.2857,-1.279,-1.2784,-1.2698,-1.2441,-1.3361,0.0,0.0,0.0,0.0,0.0,0.0,0.0,0.0,0.0,0.0,0.0,0.0,0.0,0.0,0.0,0.0,0.0,0.0,0.0,0.0,0.0,0.0,0.0,0.0,0.0,0.0,0.0,0.0,0.0,0.0,0.0,0.0,0.0,0.0,0.0,0.0,0.0,0.0,0.0,0.0,0.0,0.0,0.0,0.0,0.0,0.0,0.0,0.0,0.0,0.0,0.0,0.0,0.0,0.0,0.0,0.0,0.0,0.0,0.0,0.0,-1.3627,0.0,0.0,0.0,0.0,0.0,0.0,0.0,0.0,0.0,0.0,0.0,0.0,0.0,0.0,0.0,0.0,0.0,0.0,0.0,0.0,0.0,0.0,0.0,0.0,0.0,0.0,0.0,0.0,0.0,0.0,0.0,0.0,0.0,0.0,0.0,0.0,0.0,0.0,0.0,0.0,-1.1637,-1.2031,-1.2425,-1.2739,-1.2625,-1.2569,-1.2569,-1.2806,-1.2849,-1.2724,-1.3705,0.0,0.0,0.0,0.0,0.0,0.0,0.0,0.0,0.0,0.0,0.0,0.0,0.0,0.0,0.0,0.0,0.0,0.0,0.0,0.0,0.0,0.0,0.0,0.0,0.0,0.0,0.0,0.0,0.0,0.0,0.0,0.0,0.0,0.0,0.0,0.0,0.0,0.0,0.0,0.0,0.0,0.0,0.0,0.0,0.0,0.0,0.0,0.0,0.0,0.0,0.0,0.0,0.0,-0.857,-0.9907,-1.1446,-1.2365,-1.3662,-1.5129,-1.4603,-1.4302,-1.4122,0.0,0.0,0.0,0.0,0.0,0.0,0.0,0.0,0.0,0.0,0.0,0.0,0.0,0.0,0.0,0.0,0.0,0.0,0.0,0.0,0.0,0.0,0.0,0.0,0.0,-1.3287,-1.31,0.0,0.0,0.0,0.0,0.0,0.0,0.0,0.0,0.0,0.0,0.0,0.0,-1.1322,-1.1817,-1.2151,-1.2151,-1.2198,-1.2298,-1.2481,-1.2856,-1.3125,-1.3158,-1.4136,-1.4453,0.0,0.0,0.0,0.0,0.0,0.0,0.0,0.0,0.0,0.0,0.0,0.0,0.0,0.0,0.0,0.0,0.0,0.0,0.0,0.0,0.0,0.0,0.0,0.0,0.0,0.0,0.0,0.0,0.0,0.0,0.0,0.0,0.0819,-0.0077,0.0,0.0,0.0,0.0,0.0,0.0,0.0,0.0,0.0,0.0,0.0,0.0,0.0,0.0,-0.7539,-0.7682,-0.7753,-0.7753,-0.8052,-0.9437,-1.1811,-1.2004,-1.3397,-1.5712,-1.5631,0.0,-1.4436,-1.4108,0.0,0.0,0.0,0.0,0.0,0.0,0.0,0.0,0.0,0.0,0.0,0.0,0.0,0.0,0.0,0.0,0.0,0.0,0.0,0.0,0.0,0.0,-1.356,-1.3901,-1.3581,-1.3327,0.0,-1.3758,-1.3812,-1.431,0.0,0.0,0.0,0.0,0.0,0.0,0.0,0.0,-1.1082,-1.1336,-1.1509,-1.1509,-1.177,-1.2281,-1.3116,-1.3114,-1.3626,-1.4894,-1.4804,-1.4854,-1.5138,-1.4972,0.0,0.0,0.0,0.0,0.0,0.0,0.0,0.0,0.0,0.0,0.0,0.0,0.0,0.0,0.0,0.0,0.0,0.0,0.0,0.0,0.0,0.0,0.0,0.0,0.0,0.0,0.0,0.0,0.0,0.0802,0.0987,0.012,-0.1291,-0.2367,0.0,0.0,0.0,0.0,0.0,0.0,0.0,0.0,0.0,-0.7394,-0.7543,-0.7692,-0.7845,-0.786,-0.7891,-0.7891,-0.7919,-0.8874,-1.0745,-1.13,-1.2563,-1.4396,-1.5061,-1.503,-1.4509,-1.4382,-1.4155,-1.3848,0.0,0.0,0.0,0.0,0.0,-1.3053,-1.3313,-1.336,0.0,0.0,0.0,0.0,0.0,0.0,0.0,0.0,0.0,0.0,0.0,0.0,0.0,-1.352,-1.3394,-1.328,-1.354,-1.4016,-1.4592,0.0,-1.573,-1.6227,-1.675,0.0,0.0,0.0,0.0,-1.1958,-1.1095,-1.1243,-1.1389,-1.1389,-1.1543,-1.1964,-1.2888,-1.3148,-1.3754,-1.488,-1.5029,-1.5181,-1.5391,-1.5234,-1.5029,0.0,0.0,0.0,0.0,0.0,0.0,0.0,0.0,0.0,0.0,0.0,0.0,0.0,0.0,0.0,0.0,0.0,0.0,0.0,0.0,0.0,0.0,0.0,0.0,0.0,0.0,0.0,0.0,0.0932,0.1074,0.0496,-0.0788,-0.161,0.0,0.0,0.0,0.0,0.0,0.0,-0.7007,-0.7343,-0.7536,-0.7651,-0.7794,-0.7923,-0.7988,-0.7988,-0.7971,-0.7931,-0.7865,-0.8457,-0.9729,-1.052,-1.169,-1.3263,-1.4134,-1.4517,-1.4522,-1.4522,-1.4349,-1.4041,-1.3607,-1.352,-1.3586,-1.3487,-1.3387,-1.332,-1.3613,-1.3666,-1.3567,-1.3353,0.0,-1.2703,-1.2261,0.0,0.0,0.0,0.0,-1.2502,-1.2723,0.0,-1.2864,-1.3133,-1.3093,-1.3019,-1.318,-1.3878,-1.4813,0.0,-1.6579,-1.7178,-1.7634,0.0,0.0,0.0,0.0,-1.2131,-1.1027,-1.1069,-1.1209,-1.1209,-1.1269,-1.1749,-1.2846,-1.3219,-1.3853,-1.4994,-1.5288,-1.541,-1.541,-1.541,-1.5264,-1.4951,0.0,0.0,0.0,0.0,0.0,0.0,0.0,0.0,0.0,0.0,0.0,0.0,0.0,0.0,0.0,0.0,0.0,0.0,0.0,0.0,0.0,0.0,0.0,0.0,0.0,0.0,0.0,0.0,0.0,0.1512,-0.032,0.0,0.0,0.0,0.0,-0.5266,-0.537,-0.602,-0.751,-0.7706,-0.779,-0.7801,-0.7897,-0.7982,-0.7988,-0.7988,-0.7917,-0.7821,-0.7814,-0.8394,-0.9532,-0.957,-1.0905,-1.3217,-1.3263,-1.3747,-1.4522,-1.4522,-1.4349,-1.4082,-1.4055,-1.3881,-1.3633,-1.3941,-1.3868,-1.362,-1.3961,-1.3881,-1.36,-1.3586,-1.3227,-1.2777,-1.275,-1.2543,0.0,0.0,-1.2529,-1.2764,-1.2784,-1.2784,-1.2864,-1.3133,-1.2766,-1.2505,-1.3086,-1.3506,-1.4227,0.0,-1.6726,-1.7494,-1.8398,0.0,-1.503,-1.4363,-1.2676,-1.1256,-1.0687,-1.0626,-1.0633,-1.0633,-1.0881,-1.1717,-1.3403,-1.3458,-1.4136,-1.5903,-1.5625,-1.541,-1.541,-1.541,-1.54,-1.5381,-1.499,0.0,0.0,0.0,0.0,0.0,0.0,0.0,0.0,0.0,0.0,0.0,0.0,0.0,0.0,0.0,0.0,0.0,0.0,0.0,0.0,0.0,0.0,0.0,0.0,0.0,0.0,0.0,0.0,0.0552,-0.0095,0.0,-0.0561,-0.0886,-0.1634,-0.296,-0.3186,-0.3792,-0.5076,-0.6103,-0.6665,-0.6665,-0.7508,-0.7988,-0.7988,-0.7988,-0.7914,-0.7811,-0.7719,-0.7825,-0.8169,-0.8824,-0.9616,-1.0504,-1.1997,-1.2823,-1.3126,-1.393,-1.4182,-1.4088,-1.4088,-1.4021,-1.3915,-1.3793,-1.3854,-1.3895,-1.3621,-1.3581,-1.354,-1.3193,-1.2958,-1.275,-1.2556,-1.2385,-1.2305,-1.2305,-1.2378,-1.2496,-1.2496,-1.2496,-1.2492,-1.2599,-1.2458,-1.2358,-1.2579,-1.2713,-1.3155,-1.4369,-1.5299,-1.6005,-1.636,-1.5547,-1.454,-1.354,-1.262,-1.1684,-1.0703,-1.0593,-1.0807,-1.132,-1.1445,-1.2195,-1.3835,-1.3926,-1.4421,-1.5585,-1.5498,-1.541,-1.541,-1.541,-1.541,-1.541,-1.5264,-1.498,0.0,0.0,0.0,0.0,0.0,0.0,0.0,0.0,0.0,0.0,0.0,0.0,0.0,0.0,0.0,0.0,0.0,0.0,0.0,0.0,0.0,0.0,0.0,0.0,0.0,0.0,0.0,0.0,0.0,0.0,0.0,0.0,-0.0531,-0.1794,-0.1962,-0.2567,-0.3798,-0.5239,-0.5979,-0.5979,-0.7285,-0.7988,-0.7988,-0.7938,-0.7889,-0.774,-0.7594,-0.7441,-0.7337,-0.7982,-0.8496,-0.9021,-1.0907,-1.1892,-1.2241,-1.3461,-1.3881,-1.3808,-1.4008,-1.4021,-1.3915,-1.3673,-1.3666,-1.3734,-1.3347,-1.3267,-1.3273,-1.2911,-1.2717,-1.2596,-1.2365,-1.2305,-1.2305,-1.2305,-1.2305,-1.2305,-1.2305,-1.2305,-1.2305,-1.2305,-1.2305,-1.2278,-1.2178,-1.2158,-1.2306,-1.2835,-1.3866,-1.4767,-1.4998,-1.4567,-1.3884,-1.2876,-1.2258,-1.1621,-1.0721,-1.0593,-1.0807,-1.1351,-1.1648,-1.2351,-1.3696,-1.4025,-1.454,-1.5352,-1.541,-1.541,-1.541,-1.541,-1.541,-1.541,-1.5273,-1.5127,-1.5,0.0,0.0,0.0,0.0,0.0,0.0,0.0,0.0,0.0,0.0,0.0,0.0,0.0,0.0,0.0,0.0,0.0,0.0,0.0,0.0,0.0,0.0,0.0,0.0,0.0,0.0,0.0,0.0,0.0,0.0,0.0,-0.0543,-0.1857,-0.196,-0.2511,-0.3812,-0.5168,-0.5874,-0.5924,-0.7229,-0.7928,-0.7975,-0.7879,-0.7733,-0.759,-0.7441,-0.7288,-0.7095,-0.7095,-0.7749,-0.8882,-1.0043,-1.1027,-1.1934,-1.3082,-1.342,-1.3267,-1.3841,-1.3881,-1.3586,-1.358,-1.3387,-1.3186,-1.3193,-1.2993,-1.277,-1.277,-1.2576,-1.2305,-1.2305,-1.2305,-1.2305,-1.2305,-1.2305,-1.2305,-1.2305,-1.2305,-1.2298,-1.2291,-1.2285,-1.2204,-1.1953,-1.1893,-1.1806,-1.1449,-1.2614,-1.3818,-1.4488,-1.3846,-1.3013,-1.2443,-1.1565,0.0,-1.0626,-1.0624,-1.0656,-1.0688,-1.1382,-1.2205,-1.3009,-1.3795,-1.4569,-1.5352,-1.541,-1.541,-1.541,-1.541,-1.541,-1.541,-1.501,-1.501,-1.541,0.0,0.0,0.0,0.0,0.0,0.0,0.0,0.0,0.0,0.0,0.0,0.0,0.0,0.0,0.0,0.0,0.0,0.0,0.0,0.0,0.0,0.0,0.0979,0.0133,0.0,0.0,0.0,0.0,0.0,0.0,0.0,-0.0144,-0.0532,-0.0532,-0.073,-0.1085,-0.2365,-0.3497,-0.4383,-0.5709,-0.6846,-0.7719,-0.7678,-0.7584,-0.7434,-0.7436,-0.7288,-0.7095,-0.7095,-0.7213,-0.7501,-0.8683,-0.9698,-1.0524,-1.1722,-1.2628,-1.3227,-1.3387,-1.34,-1.33,-1.3073,-1.2806,-1.2585,-1.2837,-1.2717,-1.2425,-1.2425,-1.2371,-1.2305,-1.2305,-1.2305,-1.2305,-1.2305,-1.2305,-1.2305,-1.2305,-1.2305,-1.2245,-1.2074,-1.2027,-1.1904,-1.161,-1.155,-1.1523,-1.1409,-1.1723,-1.2082,-1.2267,-1.194,-1.157,-1.1404,-1.1002,0.0,-1.06,-1.1108,-1.1686,-1.2274,-1.3053,-1.3876,-1.4658,-1.4932,-1.5167,-1.5381,-1.541,-1.541,-1.541,-1.541,-1.541,-1.541,-1.5293,-1.5293,0.0,0.0,0.0,0.0,0.0,0.0,0.0,0.0,0.0,0.0,0.0,0.0,0.0,0.0,0.0,0.0,0.0,0.0,0.0,0.0,0.0,0.0,0.237,0.2303,0.1606,0.0641,0.0,0.0,0.0,0.0,0.0,0.0,0.0,0.0,0.0,0.0,0.0,-0.1258,-0.232,-0.3044,-0.4825,-0.614,-0.6835,-0.7296,-0.7428,-0.7275,-0.7214,-0.7105,-0.6913,-0.6913,-0.6912,0.0,-0.8074,-0.8786,-0.9247,-1.0812,-1.179,0.0,0.0,0.0,0.0,0.0,-1.2489,-1.2325,-1.2536,-1.2445,-1.2305,-1.2305,-1.2305,-1.2305,-1.2305,-1.2305,-1.2305,-1.2305,-1.2305,-1.2271,-1.2151,-1.2124,-1.2044,-1.175,-1.1683,-1.1603,-1.1309,-1.1243,-1.1209,-1.1089,0.0,0.0,-1.1062,-1.1022,-1.0955,-1.0861,-1.07,-1.0593,0.0,-1.1021,-1.1624,-1.242,-1.3213,-1.4025,-1.4844,-1.5206,0.0,0.0,0.0,-1.541,-1.541,-1.541,0.0,0.0,0.0,0.0,0.0,0.0,0.0,0.0,-1.6872,-1.6941,0.0,0.0,0.0,0.0,0.0,0.0,0.0,0.0,0.0,0.0,0.0,0.0,0.0,0.0,0.0,0.0,0.3644,0.3746,0.3604,0.1739,0.0315,0.0229,0.0181,0.0135,0.0,0.0,0.0,0.0,0.0,0.0,0.0,0.0,0.0,0.0,0.0,-0.5618,-0.5746,-0.6792,-0.7251,-0.7068,-0.6927,-0.6831,-0.6702,-0.6702,-0.6692,-0.6716,-0.7767,-0.8104,-0.8133,-1.0013,-1.0816,-1.0942,-1.2499,-1.2939,-1.2703,-1.2398,-1.2278,0.0,0.0,0.0,0.0,-1.2245,-1.2251,-1.2258,-1.2291,-1.2305,-1.2291,-1.2265,-1.2251,-1.2184,-1.1933,-1.1852,-1.1744,-1.1415,-1.1342,-1.1255,-1.0962,-1.0922,-1.0862,-1.06,-1.0566,-1.0593,-1.0593,-1.0807,-1.0855,-1.0633,-1.0593,0.0,-1.0593,-1.0681,-1.1045,-1.1834,0.0,0.0,-1.4273,-1.4991,-1.541,-1.541,-1.541,-1.541,-1.541,-1.541,-1.541,-1.541,-1.541,-1.582,-1.6619,-1.6619,-1.7067,-1.792,-1.7174,-1.708,0.0,0.0,0.0,0.0,0.0,0.0,0.0,0.0,0.0,0.0,0.0,0.0,0.0,0.0,0.0,0.4741,0.4853,0.4661,0.358,0.3008,0.2358,0.1536,0.1335,0.0937,0.0086,0.0,0.0,0.0,0.0,0.0,0.0,-0.0233,0.0,-0.1812,-0.3244,-0.4501,-0.5467,-0.6508,-0.6957,-0.6923,0.0,0.0,-0.6702,-0.6702,-0.6634,-0.6555,-0.6753,-0.7217,-0.7872,-0.8291,-0.9402,-1.0907,-1.2045,-1.2438,-1.2378,-1.2325,-1.2151,-1.1986,-1.1986,-1.1797,-1.1637,-1.1877,-1.1986,-1.2033,-1.2231,-1.2305,0.0,-1.2053,-1.1986,-1.1884,-1.159,-1.151,-1.1436,-1.1142,-1.1076,-1.0929,-1.0401,-1.0506,-1.0586,-1.0261,-1.0432,-1.0593,-1.0593,-1.064,-1.066,-1.06,-1.0593,-1.0593,-1.0593,-1.117,-1.1865,-1.2665,-1.3485,-1.4293,-1.5108,-1.5323,-1.541,-1.541,-1.541,-1.541,-1.541,-1.541,-1.541,-1.541,-1.541,-1.5674,-1.6222,-1.6222,-1.6641,-1.751,-1.7686,-1.7812,0.0,0.0,0.0,0.0,0.0,0.0,0.0,0.0,0.0,0.0,0.0,0.6778,0.6317,0.0,0.713,0.6078,0.6027,0.5738,0.4549,0.4711,0.4285,0.2637,0.2404,0.1928,0.0882,0.0798,0.0591,0.0043,0.0,0.0,0.0,0.0,-0.0269,-0.0897,-0.2593,-0.3778,-0.4397,-0.5983,-0.6776,-0.6698,-0.6624,-0.6549,-0.6481,-0.6481,-0.6477,-0.6405,-0.6405,-0.6634,-0.7092,-0.7488,-0.8822,-1.0657,-1.1044,-1.1556,-1.2064,-1.1917,-1.177,-1.165,-1.165,-1.155,-1.1415,-1.1597,-1.165,-1.167,-1.1817,-1.1864,-1.1837,-1.169,-1.165,-1.1577,-1.1283,-1.1209,-1.1136,-1.0842,-1.0661,-1.0474,-1.018,-1.012,-1.011,-0.9927,-1.005,-1.0151,-1.0151,-1.0446,-1.0634,-1.0609,-1.0593,-1.0539,-1.0354,-1.0691,-1.1411,-1.2685,-1.3152,-1.3857,-1.5012,-1.5098,-1.5186,-1.54,-1.541,-1.541,-1.541,-1.541,-1.541,-1.541,-1.541,-1.5625,-1.6095,-1.6095,-1.6437,-1.7061,-1.7275,-1.7564,0.0,0.0,0.0,0.0,0.0,0.0,0.0,0.0,0.8625,0.8719,0.8954,0.8958,0.8264,0.8173,0.801,0.7289,0.6994,0.6603,0.5729,0.6106,0.5774,0.3891,0.3326,0.2751,0.1932,0.1521,0.1033,0.0376,0.0125,0.0,0.0,0.0,0.0,0.0,-0.2197,-0.3399,-0.3399,-0.5552,-0.6593,-0.6511,-0.6484,-0.6412,-0.63,-0.63,-0.63,-0.6296,-0.6269,-0.6255,-0.628,-0.6931,-0.8198,-0.976,-0.9561,-1.0293,-1.1467,-1.1421,-1.1355,-1.1309,-1.1309,-1.1303,-1.1269,-1.1323,-1.1309,-1.1322,-1.1375,-1.1389,-1.1382,-1.1322,-1.1309,-1.1276,-1.0982,-1.0909,-1.0835,-1.0573,-1.0294,-1.0087,-0.9943,-0.9806,-0.9695,-0.9613,-0.9646,-0.9737,-0.9875,-1.0351,-1.0632,-1.0438,-1.0543,-1.0486,-1.006,-1.0147,-1.079,-1.2307,-1.2567,-1.3233,-1.4692,-1.4707,-1.4873,-1.5381,-1.5342,-1.5322,-1.541,-1.541,-1.541,-1.541,-1.541,-1.5586,-1.5968,-1.5968,-1.6162,-1.657,-1.657,-1.7061,-0.6008,-0.3037,0.05,0.3887,0.5042,0.5849,0.0,0.0,0.8705,0.9141,0.9334,0.9427,0.934,0.881,0.8325,0.8098,0.7421,0.6792,0.6438,0.6343,0.616,0.5736,0.4159,0.3017,0.2789,0.1185,0.0507,0.1341,0.0531,0.0,0.0,0.0,0.0,0.0,-0.2147,-0.3322,-0.3322,-0.5461,-0.6528,-0.6511,-0.6385,-0.6317,-0.63,-0.63,-0.63,-0.6293,-0.6115,-0.602,-0.6044,-0.5997,-0.6638,-0.7611,-0.735,-0.8346,-1.0065,-1.103,-1.1263,-1.1042,-1.1042,-1.0875,-1.0734,-1.0955,-1.1042,-1.1089,-1.1349,-1.1389,-1.1335,-1.1116,-1.1042,-1.0975,-1.0713,-1.064,-1.0566,-1.0241,-1.014,-0.9943,-0.9424,-0.9519,-0.9606,-0.9311,-0.9499,-0.9882,-1.0487,-1.0651,-1.0508,-0.9883,-1.032,-1.0473,-0.982,-1.0264,-1.0988,-1.1876,-1.2507,-1.3387,-1.469,-1.4434,-1.4523,-1.5361,-1.5059,-1.5029,-1.54,-1.541,-1.541,-1.541,-1.541,-1.5439,-1.5488,-1.5488,-1.5713,-1.6163,-1.6163,-1.6643,-0.2914,0.0377,0.341,0.0,0.6587,0.8106,0.9017,0.9748,1.0432,1.1147,1.0929,1.0663,1.0822,1.018,0.9363,0.0,0.7816,0.7064,0.5653,0.5829,0.5809,0.4925,0.431,0.3893,0.3836,0.253,0.166,0.1585,0.059,0.0,0.0,0.0,0.0,0.0,-0.1523,-0.259,-0.3161,-0.4691,-0.575,-0.6388,-0.6327,-0.6252,-0.6125,-0.6125,-0.6078,-0.5989,-0.5925,-0.5895,-0.5884,-0.5739,-0.6227,-0.7034,-0.6844,-0.7569,-0.8843,-0.9814,-1.0412,-1.0774,-1.0774,-1.0693,-1.0613,-1.0734,-1.0774,-1.0794,-1.0882,-1.0922,-1.0895,-1.0807,-1.0774,-1.0747,-1.0626,-1.0466,-1.0274,-1.0117,-0.9824,-0.9511,-0.9264,-0.9178,-0.9138,-0.8984,-0.9085,-0.9254,-0.9542,-1.0252,-1.0539,-0.9854,-1.0303,-1.0528,-1.0107,-0.9918,-1.0287,-1.1535,-1.2627,-1.3565,-1.4338,-1.3987,-1.4007,-1.4601,-1.4736,-1.4891,-1.5039,-1.5283,-1.541,-1.541,-1.541,-1.541,-1.541,-1.541,-1.5508,-1.5684,-1.5684,-1.6016,0.0285,0.3157,0.5411,0.6016,0.7765,0.9473,0.9967,1.0732,1.1572,1.249,1.2273,1.1887,1.1861,1.1351,1.0462,0.9041,0.8339,0.736,0.5691,0.5719,0.5548,0.4599,0.4665,0.4723,0.4502,0.3314,0.2294,0.1662,0.0607,0.0,0.0,0.0,0.0,0.0,-0.1046,-0.1968,-0.2687,-0.4019,-0.5063,-0.5806,-0.6078,-0.6115,-0.5929,-0.5929,-0.5908,-0.58,-0.5762,-0.5742,-0.5732,-0.5586,-0.5927,-0.6481,-0.6382,-0.6852,-0.7683,-0.8592,-0.9492,-1.0269,-1.053,-1.0593,-1.0593,-1.0593,-1.0593,-1.0593,-1.0593,-1.0593,-1.0593,-1.0593,-1.0533,-1.0486,-1.0573,-1.0311,-1.0,-1.0,-0.9577,-0.9191,-0.9111,-0.8931,-0.8804,-0.8804,-0.8804,-0.8857,-0.9035,-0.9891,-1.0491,-1.0364,-1.0585,-1.0654,-1.0463,-1.0138,-1.0424,-1.174,-1.2753,-1.3506,-1.3899,-1.3574,-1.3539,-1.4075,-1.4316,-1.4482,-1.46,-1.4902,-1.503,-1.503,-1.503,-1.5117,-1.5234,-1.5234,-1.5293,-1.541,-1.541,-1.5586,0.2937,0.4508,0.6096,0.788,0.8381,0.8894,1.0662,1.1077,1.1383,1.2396,1.2885,1.2924,1.2133,1.1873,1.1444,1.0508,0.8898,0.7723,0.7455,0.6382,0.565,0.5743,0.5642,0.5277,0.0,0.2763,0.1617,0.1585,0.0591,0.0,0.0,0.0,0.0,0.0,-0.1059,-0.1608,-0.1648,-0.3675,-0.4668,-0.456,-0.5542,-0.5956,-0.581,-0.581,-0.5806,-0.5793,-0.5657,-0.5596,-0.5586,-0.5467,-0.5435,-0.5432,-0.5428,-0.5849,-0.6575,-0.7656,-0.8581,-0.9466,-1.0301,-1.0593,-1.0593,-1.0593,-1.0593,-1.0593,-1.0593,-1.0593,-1.0593,-1.0593,-1.0385,-1.02,-1.0519,-1.0157,-0.9699,-0.9699,-0.9459,-0.9138,-0.8878,-0.8811,-0.8804,-0.8804,-0.8804,-0.9008,-0.9666,-0.9814,-1.0261,-1.1541,-1.1208,-1.0795,-1.0779,-1.1334,-1.2024,-1.2769,-1.29,-1.3066,-1.3486,-1.3145,-1.3252,-1.4055,-1.3743,-1.3704,-1.4114,-1.4133,-1.4143,-1.4143,-1.4143,-1.4358,-1.4833,-1.4833,-1.501,-1.541,-1.541,-1.542,0.4515,0.6473,0.8195,0.8885,0.9843,1.0757,1.1371,1.1516,1.1748,1.2629,1.2489,1.2271,1.2476,1.2062,1.1384,1.0545,0.9217,0.8105,0.7457,0.6425,0.5711,0.5667,0.5793,0.0,0.0,0.0,0.0,0.1695,0.1155,0.0628,0.0038,0.0,0.0,0.0,-0.0336,-0.0896,-0.1604,-0.231,-0.2965,-0.3564,-0.4408,-0.5101,-0.5657,-0.559,-0.5542,-0.5542,-0.5494,-0.5474,-0.5467,-0.5416,-0.5395,-0.5385,-0.5247,-0.5431,-0.5828,-0.663,-0.7112,-0.767,-0.9844,-1.0593,-1.0593,-1.0593,-1.0593,-1.0593,-1.0593,-1.0452,-1.0267,-1.0267,-1.0053,-0.9853,-0.9983,-0.9686,-0.9357,-0.9357,-0.9138,-0.8898,-0.8831,-0.8804,-0.8804,-0.8804,-0.8804,-0.8883,-0.9113,-0.9865,-1.0922,-1.2329,-1.1931,-1.1291,-1.0864,-1.1391,-1.1898,-1.2138,-1.2618,-1.2964,-1.3076,-1.2983,-1.3023,-1.3281,-1.3437,-1.3574,-1.3685,-1.3958,-1.4104,-1.4104,-1.4104,-1.4182,-1.4328,-1.4328,-1.4397,-1.4533,-1.4533,-1.4689,0.6778,0.8431,0.9794,0.9887,1.0658,1.1426,1.1694,1.1748,1.1971,1.274,1.2609,1.2448,1.2768,1.2375,1.1865,1.1307,1.0055,0.8865,0.8053,0.7004,0.6176,0.5788,0.5878,0.5635,0.0,0.0,0.0,0.1773,0.1476,0.0984,0.0038,0.0,0.0,0.0,0.0,-0.0328,-0.1019,-0.1418,-0.2098,-0.3042,-0.3763,-0.4413,-0.498,-0.5279,-0.5365,-0.5281,-0.5281,-0.5281,-0.5274,-0.5226,-0.5235,-0.5199,-0.5117,-0.5128,-0.5248,-0.61,-0.6334,-0.662,-0.9091,-0.9918,-0.9933,-1.0186,-1.0278,-1.0298,-1.0399,-1.0267,-1.0083,-1.0083,-0.9907,-0.9715,-0.9715,-0.9385,-0.9084,-0.9184,-0.8991,-0.8804,-0.8804,-0.8804,-0.8804,-0.8804,-0.8804,-0.8804,-0.8804,-0.9909,-1.1023,-1.1701,-1.1807,-1.174,-1.1584,-1.194,-1.2187,-1.2187,-1.2369,-1.2501,-1.2501,-1.228,-1.2157,-1.2157,-1.2623,-1.29,-1.29,-1.3397,-1.3656,-1.3656,-1.3656,-1.3734,-1.389,-1.389,-1.3958,-1.4104,-1.4104,-1.425,0.9559,1.0299,1.0838,1.0838,1.0889,1.1065,1.1715,1.1864,1.2055,1.2774,1.3203,1.3336,1.2933,0.0,1.2726,1.268,1.1225,0.9874,0.9181,0.8054,0.6973,0.0,0.0,0.0,0.0,0.0,0.0,0.1888,0.0,0.1217,0.0151,0.0036,0.0,0.0,0.0,0.0,0.0,-0.1013,-0.1963,-0.282,-0.3515,-0.3813,-0.3783,-0.4843,-0.5224,-0.5023,-0.5086,-0.509,-0.5076,-0.4941,-0.4887,-0.4901,-0.5026,-0.4942,-0.4852,-0.5928,-0.6138,-0.6202,-0.8015,-0.8615,-0.8727,-0.9418,-0.9686,-0.9733,-1.0013,-1.0087,-1.0043,-1.0043,-0.9866,-0.9639,-0.9639,-0.9225,-0.8878,-0.9124,-0.8984,-0.8804,-0.8804,-0.8804,-0.8804,-0.8804,-0.8804,-0.8831,-0.8883,-0.9961,-1.0618,-1.0046,-1.1015,-1.2055,-1.27,-1.2774,-1.2774,-1.2774,-1.2163,-1.174,-1.174,-1.1166,-1.0788,-1.0788,-1.1391,-1.1765,-1.1789,-1.2476,-1.2847,-1.2905,-1.2905,-1.3101,-1.3477,-1.3477,-1.3682,-1.4046,-1.4046,-1.4055,1.0179,1.1032,1.1541,1.1541,1.1965,1.2412,1.2584,1.2608,1.2666,1.2847,1.2993,1.294,1.2527,1.2355,0.0,1.2183,1.1019,0.0,0.9181,0.8143,0.0,0.6098,0.0,0.6136,0.5902,0.6108,0.0,0.0,0.2637,0.217,0.1248,0.0428,0.0,0.0,0.0,0.0,0.0,-0.0269,-0.0837,-0.1726,-0.1902,-0.2343,-0.3011,-0.3825,-0.4193,-0.4165,-0.4723,-0.4941,-0.4938,-0.4904,-0.4887,-0.4881,-0.4833,-0.4826,-0.4887,-0.5054,-0.5075,-0.519,-0.6198,-0.7467,-0.8639,-0.8815,-0.9266,-0.9729,-0.9773,-0.9639,-0.9437,-0.9437,-0.9224,-0.9031,-0.9031,-0.8918,-0.8824,-0.8871,-0.8864,-0.8804,-0.8804,-0.8804,-0.8804,-0.8804,-0.8804,-0.9106,-1.0115,-1.0559,-1.1099,-1.1983,-1.1931,-1.169,-1.1384,-1.1334,-1.1334,-1.1334,-1.1174,-1.104,-1.104,-1.0889,-1.0788,-1.0788,-1.0965,-1.1291,-1.1789,-1.1972,-1.2344,-1.2881,-1.2905,-1.2954,-1.3037,-1.3037,-1.3096,-1.3203,-1.3203,-1.3369,1.1167,1.1828,1.2288,1.2368,1.2647,1.2978,1.3238,1.3079,1.2905,1.2905,1.2905,1.2875,1.2831,1.2802,1.2708,0.0,0.0,0.0,0.9988,0.8956,0.7917,0.0,0.6408,0.0,0.6159,0.6098,0.542,0.0,0.3256,0.2387,0.0967,0.0315,0.0,0.0,0.0,0.0,0.0,0.0,-0.0255,-0.0744,-0.1126,-0.1541,-0.2037,-0.2923,-0.3446,-0.3732,0.0,-0.4518,-0.4813,-0.4748,-0.4718,-0.4718,-0.4697,-0.4704,-0.4718,-0.4697,-0.4679,-0.4674,-0.5091,-0.6111,-0.7343,-0.8005,-0.8699,-0.9319,-0.9452,-0.9344,-0.9211,-0.9211,-0.9091,-0.8944,-0.8838,-0.8804,-0.8804,-0.8804,-0.8804,-0.8804,-0.8804,-0.8804,-0.8804,-0.8804,-0.8804,-0.9035,-0.9788,-1.0167,-1.0517,-1.1015,-1.1007,-1.0686,-1.002,-1.044,-1.0788,-1.0788,-1.0542,-1.0364,-1.0364,-1.009,-0.9917,-0.9917,-1.0192,-1.0661,-1.1341,-1.1641,-1.2153,-1.2881,-1.2905,-1.2905,-1.2905,-1.2905,-1.2905,-1.2905,-1.2905,-1.3032,1.2104,1.2508,1.2855,1.2944,1.2949,1.3058,1.3555,1.3204,1.274,1.274,0.0,1.2856,1.3214,1.345,1.3462,1.3176,0.0,1.2692,1.1045,0.9933,0.8908,0.7897,0.6708,0.5983,0.5963,0.5878,0.5428,0.4541,0.361,0.222,0.0316,0.0068,0.0,0.0,0.0,0.0,0.0,0.0,0.0,0.0,-0.0764,-0.1082,-0.0999,-0.2014,-0.2781,-0.3261,0.0,0.0,-0.4503,-0.4402,-0.4405,-0.4505,-0.4638,-0.4607,-0.4505,-0.4641,-0.4604,-0.4491,-0.4491,-0.4948,-0.5733,-0.7095,-0.8049,-0.8718,-0.905,-0.9158,-0.9158,-0.9158,-0.9158,-0.9098,-0.8871,-0.8804,-0.8804,-0.8804,-0.8804,-0.8804,-0.8804,-0.8804,-0.8804,-0.8804,-0.8804,-0.8857,-0.9035,-0.9536,-0.9795,-0.9394,-0.9692,-0.971,-0.9133,-0.9917,-1.0542,-1.0542,-1.0012,-0.9666,-0.9666,-0.9133,-0.8804,-0.8804,-0.9335,-1.002,-1.0771,-1.1366,-1.2055,-1.2881,-1.2905,-1.2905,-1.2905,-1.2905,-1.2905,-1.2905,-1.2905,-1.2905,1.2028,1.2295,1.2412,1.2367,1.267,1.3006,1.3048,1.2491,0.0,0.0,1.1996,1.2024,1.2088,1.2833,1.3278,1.2789,1.2953,1.2586,1.1008,0.9933,0.8849,0.0,0.6634,0.5942,0.5854,0.5817,0.0,0.0,0.0,0.2455,0.1364,0.0468,0.0,0.0,0.0,0.0,0.0,0.0,0.0,0.0,-0.0146,-0.0202,-0.0206,-0.1006,-0.1444,-0.1577,0.0,0.0,-0.354,-0.3519,-0.3901,-0.4494,-0.4518,-0.4511,-0.4494,-0.4518,-0.4511,-0.4491,-0.4491,-0.4948,-0.5651,-0.6502,-0.7289,-0.8002,-0.8678,-0.8858,-0.8858,-0.8858,-0.8858,-0.8871,-0.8824,-0.8804,-0.8804,-0.8804,-0.8804,-0.8804,-0.8804,-0.8804,-0.8804,-0.8804,-0.8804,-0.9159,-1.0261,-1.0542,-1.0973,-1.2033,-1.1309,-1.0593,-1.0466,-0.9692,-0.9133,-0.9133,-0.9035,-0.8982,-0.8982,-0.8857,-0.8804,-0.8804,-0.891,-0.951,-1.0745,-1.0914,-1.1584,-1.2881,-1.2905,-1.2905,-1.2905,-1.2905,-1.2905,-1.2905,-1.2905,-1.2905,1.1866,1.1917,1.2005,1.2282,1.2215,1.2206,1.2725,0.0,0.0,0.0,1.1291,1.1391,1.174,1.2582,1.3042,1.2446,1.2877,1.2806,1.1558,1.0522,0.9663,0.9072,0.802,0.71,0.0,0.0,0.0,0.0,0.0,0.2407,0.1507,0.0516,0.0,0.0,0.0,0.0,0.0,0.0,0.0,0.0,0.0,0.0,0.0,-0.0367,-0.0727,-0.1118,-0.148,0.0,-0.2732,-0.2732,-0.3176,-0.3873,-0.3873,-0.4125,-0.4491,-0.4491,-0.4491,-0.4491,-0.4491,-0.4708,-0.5085,-0.5792,-0.6529,-0.7182,-0.7563,-0.791,-0.8235,-0.8235,-0.8507,-0.8804,-0.8804,-0.8804,-0.8804,-0.8804,-0.8804,-0.8804,-0.8804,-0.8804,-0.8804,-0.8804,-0.9087,-0.951,-1.0167,-1.0568,-1.1023,-1.1717,-1.0948,-1.0287,-1.0287,-0.9413,-0.8804,-0.8804,-0.8804,-0.8804,-0.8804,-0.8804,-0.8804,-0.8804,-0.8804,-0.9413,-1.0737,-1.0788,-1.1459,-1.2881,-1.2905,-1.2905,-1.2905,-1.2905,-1.2905,-1.2905,-1.2905,-1.2905,1.1702,1.1662,1.1814,1.2031,1.1724,1.1531,1.2218,1.1449,0.0,1.0593,1.0593,1.0762,1.1369,1.2175,1.2581,0.0,1.2582,1.2798,1.2017,1.1024,1.0384,0.0,0.9297,0.0,0.6967,0.0,0.0,0.0,0.0,0.0,0.1075,0.0371,0.0,0.0,0.0,0.0,0.0,0.0,0.0,0.0,0.0,0.0,0.0,0.0,-0.0308,-0.0866,-0.0866,0.0,0.0,-0.1952,-0.2397,-0.3093,-0.3234,-0.3707,-0.4294,-0.4436,-0.4491,-0.4491,-0.4491,-0.4491,-0.4598,-0.5113,-0.5764,-0.6394,-0.6561,-0.7128,-0.7696,-0.7696,-0.8242,-0.8804,-0.8804,-0.8804,-0.8804,-0.8804,-0.8804,-0.8804,-0.8804,-0.8804,-0.8804,-0.8804,-0.9237,-0.964,-0.9762,-1.0244,-1.0636,-1.0788,-1.0244,-0.9788,-0.9788,-0.9211,-0.8804,-0.8804,-0.8804,-0.8804,-0.8804,-0.8804,-0.8804,-0.8804,-0.8804,-0.9335,-1.0542,-1.0712,-1.1375,-1.2642,-1.2822,-1.2905,-1.2905,-1.2905,-1.2905,-1.2905,-1.2905,-1.2905,1.1702,1.1912,1.1999,1.1028,1.1309,1.1701,1.1122,0.0,0.9891,0.9891,0.9891,1.0008,1.0363,1.1108,1.1636,1.1662,0.0,1.1929,1.1884,1.1024,1.0319,1.0166,0.0,0.0,0.6845,0.0,0.0,0.0,0.0,0.0,0.0208,0.003,0.0,0.0,0.0,0.0,0.0,0.0,0.0,0.0,0.0,0.0,0.0,0.0,-0.0028,-0.0112,0.0,0.0,0.0,-0.1202,-0.1647,-0.2369,-0.3037,-0.3372,-0.3594,-0.4267,-0.4491,-0.4491,-0.4491,-0.4491,-0.4519,-0.457,-0.5058,-0.5733,-0.6394,-0.7128,-0.7696,-0.7696,-0.8242,-0.8804,-0.8804,-0.8804,-0.8804,-0.8804,-0.8804,-0.8804,-0.8804,-0.8804,-0.8804,-0.8804,-0.8857,-0.9087,-0.9684,-0.9865,-1.009,-1.072,-1.0244,-0.9788,-0.9788,-0.9211,-0.8804,-0.8804,-0.8804,-0.8804,-0.8804,-0.8804,-0.8804,-0.8804,-0.8804,-0.914,-0.9865,-1.0491,-1.1141,-1.1898,-1.2559,-1.2905,-1.2905,-1.2905,-1.2905,-1.2905,-1.2905,-1.2905,1.2012,1.1637,1.123,1.1008,1.0619,1.0262,1.0208,0.9692,0.9211,0.9211,0.9211,0.9351,0.9914,1.0271,1.0605,0.0,1.1093,1.1263,1.1553,1.1242,1.1051,1.1185,1.0649,0.0,0.0,0.0,0.0,0.0,0.0,0.0,0.0086,0.0,0.0,0.0,0.0,0.0,0.0,0.0,0.0,0.0,0.0,0.0,0.0,0.0,0.0,0.0,0.0,0.0,0.0,-0.0448,-0.1146,-0.2232,-0.2536,-0.3231,-0.4098,-0.4405,-0.4491,-0.4491,-0.4491,-0.4491,-0.4491,-0.4491,-0.468,-0.4948,-0.5254,-0.5819,-0.6384,-0.6384,-0.723,-0.8129,-0.8129,-0.8454,-0.8804,-0.8804,-0.8804,-0.8804,-0.8804,-0.8804,-0.8804,-0.8804,-0.914,-0.9491,-0.9762,-1.0141,-1.0491,-1.0762,-1.0244,-0.9788,-0.9788,-0.9211,-0.8804,-0.8804,-0.8804,-0.8804,-0.8804,-0.8804,-0.8804,-0.8804,-0.8804,-0.929,-1.0364,-1.0661,-1.1325,-1.2452,-1.274,-1.2905,-1.2905,-1.2905,-1.2905,-1.2905,-1.2905,-1.2905,1.163,1.1129,1.0635,1.0634,0.9978,0.9386,0.9485,0.9133,0.8804,0.8804,0.8878,0.9065,0.9523,0.9701,0.9946,0.0,1.0624,1.085,1.1316,1.1503,1.1637,0.0,0.0,0.0,0.0,0.0,0.0,0.0,0.0,0.0,0.0,0.0112,0.0112,0.0308,0.0336,0.042,0.0643,0.0643,0.0532,0.0336,0.0336,0.0224,0.0,0.0,0.0,0.0,0.0,0.0,0.0,0.0,-0.0615,-0.1591,-0.2037,-0.2871,-0.3873,-0.4322,-0.4491,-0.4491,-0.4491,-0.4491,-0.4491,-0.4491,-0.4491,-0.4491,-0.4491,-0.4976,-0.5515,-0.5515,-0.6546,-0.775,-0.7969,-0.8401,-0.8804,-0.8804,-0.8804,-0.8804,-0.8804,-0.8804,-0.8804,-0.8804,-0.9185,-0.9517,-0.9517,-0.9891,-1.0218,-1.0218,-0.9814,-0.9517,-0.9517,-0.908,-0.8804,-0.8804,-0.8804,-0.8804,-0.8804,-0.8804,-0.8804,-0.8804,-0.8804,-0.9237,-1.0167,-1.0593,-1.1275,-1.2255,-1.27,-1.2905,-1.2905,-1.2905,-1.2905,-1.2905,-1.2905,-1.2905,1.0335,1.0491,1.0546,0.9484,0.9499,0.9607,0.8956,0.8811,0.8804,0.8804,0.9004,0.9211,0.9204,0.9472,0.9802,1.006,1.0392,1.0787,1.1309,1.1683,1.1899,0.0,0.0,0.0,0.0,0.0,0.0,0.0,0.0,0.0,0.0,0.0392,0.0336,0.1062,0.109,0.1452,0.2174,0.2174,0.1814,0.109,0.109,0.0699,0.0,0.0,0.0,0.0,0.0,0.0,0.0,0.0,0.0,-0.0168,-0.1619,-0.2202,-0.2397,-0.3929,-0.4491,-0.4491,-0.4491,-0.4491,-0.4491,-0.4491,-0.4491,-0.4491,-0.4491,-0.4976,-0.5515,-0.5515,-0.6546,-0.7857,-0.8586,-0.8804,-0.8804,-0.8804,-0.8804,-0.8804,-0.8804,-0.8804,-0.8804,-0.8804,-0.8811,-0.8804,-0.8804,-0.8804,-0.8831,-0.8831,-0.8804,-0.8804,-0.8804,-0.8804,-0.8804,-0.8804,-0.8804,-0.8804,-0.8804,-0.8804,-0.8804,-0.8804,-0.8804,-0.8811,-0.8831,-1.009,-1.0813,-1.0813,-1.2181,-1.2905,-1.2905,-1.2905,-1.2905,-1.2905,-1.2905,-1.2905,1.0515,1.0361,1.0041,0.9687,0.9367,0.9061,0.8857,0.8804,0.8864,0.9038,0.9144,0.9277,0.9506,0.9619,0.9876,1.0372,0.0,0.0,0.0,0.0,0.0,1.2138,1.1271,0.0,0.0,0.0,0.0,0.0,0.0,0.0,0.0,0.1619,0.1368,0.1118,0.109,0.1452,0.2202,0.2202,0.2091,0.1842,0.134,0.1229,0.148,0.0978,0.0,0.0,0.0,0.0,0.0,0.0,-0.0308,-0.0838,-0.1813,-0.2508,-0.3065,-0.4125,-0.4491,-0.4491,-0.4491,-0.4491,-0.4491,-0.4491,-0.4491,-0.4491,-0.4491,-0.4653,-0.4924,-0.5378,-0.6199,-0.7128,-0.7857,-0.8427,-0.8804,-0.8804,-0.8804,-0.8804,-0.8804,-0.8804,-0.8804,-0.8804,-0.8804,-0.8804,-0.8804,-0.8804,-0.8804,-0.8804,-0.8804,-0.8804,-0.8804,-0.8804,-0.8804,-0.8804,-0.8804,-0.8804,-0.8804,-0.8804,-0.8804,-0.8804,-0.8804,-0.9008,-0.9465,-0.9891,-1.0542,-1.1466,-1.1922,-1.2393,-1.2905,-1.2905,-1.2905,-1.2881,-1.2369,-1.2427,0.9415,0.9521,0.9413,0.9413,0.9113,0.8804,0.8804,0.8891,0.8991,0.9178,0.9384,0.9564,0.9666,0.9896,1.0124,1.0378,1.07,0.0,0.0,0.0,0.0,1.2131,0.0,0.0,0.0,0.0,0.0,0.0,0.0,0.0,0.0,0.0,0.212,0.1924,0.1924,0.2286,0.3065,0.3065,0.2926,0.2619,0.2147,0.2037,0.2174,0.173,0.0,0.0,0.0,0.0,0.0,0.0112,-0.028,-0.0755,-0.1507,-0.2063,-0.2591,-0.368,-0.4098,-0.4125,-0.4405,-0.4491,-0.4491,-0.4491,-0.4491,-0.4491,-0.4491,-0.4491,-0.4653,-0.53,-0.5842,-0.6421,-0.7423,-0.8049,-0.8454,-0.8725,-0.8804,-0.8804,-0.8804,-0.8804,-0.8804,-0.8804,-0.8804,-0.8804,-0.8804,-0.8804,-0.8804,-0.8804,-0.8804,-0.8804,-0.8804,-0.8804,-0.8804,-0.8804,-0.8804,-0.8804,-0.8804,-0.8804,-0.8804,-0.8804,-0.8804,-0.8982,-0.9413,-0.9666,-1.0312,-1.1391,-1.1416,-1.1774,-1.2476,-1.223,-1.2107,-1.2098,-1.1649,-1.1674,0.0,0.8235,0.8804,0.8804,0.8804,0.8804,0.8804,0.9004,0.0,0.9237,0.969,1.0047,0.982,1.0251,1.0546,1.0281,1.0922,0.0,0.0,1.1937,0.0,0.0,0.0,0.0,0.0,0.0,0.0,0.0,0.0,0.0,0.0,0.0,0.2676,0.337,0.3398,0.3735,0.4491,0.4491,0.4125,0.3398,0.3345,0.2982,0.2371,0.2313,0.0,0.0,0.0,0.0,0.0,0.0392,0.0084,0.0,-0.0783,-0.109,-0.1284,-0.276,-0.3317,-0.3428,-0.4153,-0.4405,-0.4436,-0.4491,-0.4491,-0.4491,-0.4491,-0.4491,-0.4625,-0.5242,-0.546,-0.5842,-0.7257,-0.767,-0.7883,-0.8619,-0.8804,-0.8804,-0.8804,-0.8804,-0.8804,-0.8804,-0.8804,-0.8804,-0.8804,-0.8804,-0.8804,-0.8804,-0.8804,-0.8804,-0.8804,-0.8804,-0.8804,-0.8804,-0.8804,-0.8804,-0.8804,-0.8804,-0.8804,-0.8804,-0.8804,-0.8804,-0.8804,-0.9387,-1.0038,-1.0712,-1.0788,-1.1116,-1.174,-1.1065,-1.0737,-1.0788,-1.0737,-1.0737,0.7643,0.0,0.8804,0.8804,0.8804,0.8804,0.0,0.9004,0.9277,0.9532,0.9866,1.0234,1.0615,1.0795,1.1015,1.1396,0.0,0.0,1.2064,0.0,0.0,0.0,0.0,0.0,0.0,0.0,0.0,0.0,0.0,0.0,0.0,0.0,0.4042,0.4208,0.4208,0.4322,0.4491,0.4491,0.4405,0.4208,0.3652,0.3566,0.3929,0.3317,0.0,0.0,0.0,0.0,0.1898,0.1146,0.0838,0.0699,-0.0587,-0.109,-0.1202,-0.2148,-0.2482,-0.2593,-0.3317,-0.3594,-0.368,-0.4294,-0.4491,-0.4491,-0.4491,-0.4491,-0.4543,-0.4677,-0.5109,-0.5706,-0.661,-0.7262,-0.7883,-0.8619,-0.8804,-0.8804,-0.8804,-0.8804,-0.8804,-0.8804,-0.8804,-0.8804,-0.8804,-0.8804,-0.8804,-0.8804,-0.8804,-0.8804,-0.8804,-0.8804,-0.8804,-0.8804,-0.8804,-0.8804,-0.8804,-0.8804,-0.8804,-0.8804,-0.8804,-0.8804,-0.8804,-0.8956,-0.9361,-1.0012,-1.0542,-1.0889,-1.104,-1.0364,-1.0287,-1.0788,-1.0261,-1.032,0.8103,0.8577,0.8978,0.8978,0.9112,0.9212,0.9212,0.9432,0.9657,0.9846,1.0114,1.0461,1.0909,1.0995,1.1142,0.0,1.1819,0.0,0.0,0.0,0.0,0.0,0.0,0.0,0.0,0.0,0.0,0.0,0.0,0.0,0.0,0.0,0.4948,0.4948,0.5277,0.5144,0.4519,0.4491,0.4491,0.4491,0.4098,0.4125,0.4491,0.4042,0.0,0.0,0.0,0.0,0.2704,0.1925,0.1396,0.1034,0.0223,-0.0307,-0.0671,-0.1424,-0.1703,-0.1814,-0.2538,-0.2788,-0.2871,-0.3314,-0.3707,-0.3987,-0.3959,-0.4208,-0.4491,-0.4491,-0.4759,-0.5277,-0.634,-0.6885,-0.7477,-0.8533,-0.8804,-0.8804,-0.8804,-0.8804,-0.8804,-0.8804,-0.8804,-0.8804,-0.8804,-0.8804,-0.8804,-0.8804,-0.8804,-0.8804,-0.8804,-0.8804,-0.8804,-0.8804,-0.8804,-0.8804,-0.8804,-0.8804,-0.8804,-0.8804,-0.8804,-0.8804,-0.8804,-0.8804,-0.8982,-0.9335,-0.9987,-1.0192,-0.9891,-0.951,-0.9536,-0.9865,-0.951,-0.9536,0.8672,0.9091,0.9324,0.9231,0.9459,0.9715,0.9715,0.9907,1.0083,1.0083,1.0385,1.0693,1.0995,1.1056,0.0,0.0,0.0,0.0,1.2204,1.1984,0.0,0.0,0.0,0.0,0.0,0.0,0.0,0.0,0.0,0.0,0.0,0.0,0.0,0.5651,0.6285,0.6018,0.4846,0.4708,0.4653,0.4653,0.4546,0.4491,0.4491,0.4491,0.4491,0.0,0.0,0.0,0.3511,0.2704,0.1924,0.1257,0.1146,0.0643,-0.0084,-0.0699,-0.0923,-0.1034,-0.1786,-0.212,-0.2202,-0.2202,-0.2649,-0.3231,-0.3287,-0.379,-0.4349,-0.446,-0.4491,-0.4791,-0.6095,-0.6507,-0.6939,-0.8315,-0.8725,-0.8804,-0.8804,-0.8725,-0.8619,-0.8619,-0.8533,-0.8454,-0.8454,-0.8454,-0.8507,-0.8619,-0.8619,-0.8672,-0.8778,-0.8804,-0.8804,-0.8804,-0.8804,-0.8804,-0.8804,-0.8804,-0.8804,-0.8804,-0.8804,-0.8804,-0.8804,-0.8804,-0.8804,-0.8804,-0.9361,-0.9361,-0.8804,-0.8804,-0.8804,-0.8804,-0.8804,-0.8804,0.905,0.9537,0.983,0.9337,0.9459,0.9715,0.9715,0.9907,1.0083,0.0,0.0,0.0,0.0,1.1329,1.1536,0.0,0.0,1.2164,0.0,0.0,0.0,0.0,0.0,0.0,0.0,0.0,0.0,0.0,0.0,0.0,0.0,0.0,0.0,0.6421,0.6534,0.6507,0.629,0.5655,0.5351,0.5351,0.4759,0.4491,0.4491,0.4491,0.4491,0.0,0.0,0.4322,0.4267,0.3456,0.2702,0.1981,0.1341,0.0643,0.0,-0.014,-0.0168,-0.028,-0.1006,-0.1675,-0.2202,-0.2202,-0.2286,-0.2508,-0.3121,-0.3398,-0.3622,-0.4294,-0.4491,-0.468,-0.5464,-0.6118,-0.6804,-0.767,-0.8342,-0.8804,-0.8804,-0.8315,-0.7857,-0.7857,-0.7369,-0.6939,-0.6939,-0.6939,-0.7155,-0.7777,-0.7857,-0.8103,-0.8725,-0.8804,-0.8804,-0.8804,-0.8804,-0.8804,-0.8804,-0.8804,-0.8804,-0.8804,-0.8804,-0.8804,-0.8804,-0.8804,-0.8804,-0.8804,-0.891,-0.891,-0.8804,-0.8804,-0.8804,-0.8804,-0.8804,-0.8804,0.8944,0.9736,1.0508,1.0466,1.0525,1.0581,1.0428,1.0615,1.0789,0.0,0.0,0.0,0.0,0.0,1.1804,1.2231,0.0,0.0,0.0,0.0,0.0,0.0,0.0,0.0,0.0,0.0,0.0,0.0,0.0,0.0,0.0,0.0,0.0,0.0,0.7589,0.7777,0.7777,0.7063,0.6276,0.5487,0.4814,0.4491,0.4491,0.4491,0.4491,0.4491,0.0,0.4491,0.446,0.4098,0.3262,0.2174,0.1813,0.1006,0.0,0.0,0.0,-0.0056,-0.0392,-0.0727,-0.1006,-0.1006,-0.1284,-0.1675,-0.2009,-0.2676,-0.337,-0.3763,-0.4153,-0.4653,-0.5324,-0.576,-0.6199,-0.6934,-0.7369,-0.7616,-0.7616,-0.7343,-0.7101,-0.7101,-0.6831,-0.6588,-0.6588,-0.6588,-0.6723,-0.7047,-0.745,-0.783,-0.8156,-0.8566,-0.8804,-0.8804,-0.8804,-0.8804,-0.8804,-0.8804,-0.8804,-0.8804,-0.8804,-0.8619,-0.8209,-0.8593,-0.8619,-0.8209,-0.8593,-0.8804,-0.8804,-0.8804,-0.8804,-0.8804,-0.8804,-0.8804,0.8918,0.9846,1.0938,1.1238,1.1483,1.1666,1.1744,1.1781,1.1787,1.1737,0.0,0.0,0.0,1.1906,0.0,1.2071,0.0,0.0,0.0,0.0,0.0,0.0,0.0,0.0,0.0,0.0,0.0,0.0,0.0,0.0,0.0,0.0,0.0,0.0,0.8507,0.8804,0.8804,0.8076,0.7042,0.576,0.5058,0.4653,0.4491,0.4491,0.4491,0.4491,0.4491,0.4491,0.4491,0.4491,0.3707,0.2454,0.2258,0.1312,0.0,0.0,0.0,0.0,0.0,0.0,0.0,0.0,-0.0392,-0.0867,-0.1062,-0.2009,-0.3065,-0.3259,-0.3873,-0.4625,-0.5136,-0.5378,-0.5651,-0.6199,-0.6475,-0.6588,-0.6588,-0.6475,-0.634,-0.634,-0.6204,-0.61,-0.61,-0.61,-0.615,-0.6312,-0.6966,-0.7503,-0.767,-0.8342,-0.8804,-0.8804,-0.8804,-0.8804,-0.8804,-0.8804,-0.8804,-0.8804,-0.8804,-0.848,-0.7723,-0.8235,-0.8262,-0.7723,-0.8262,-0.8619,-0.8804,-0.8804,-0.8804,-0.8804,-0.8804,-0.8804,0.9268,0.9925,1.0715,1.0737,1.156,1.2633,1.3785,1.345,1.2876,1.2813,0.0,0.0,0.0,1.1906,1.1784,1.1495,0.0,0.0,0.0,0.0,0.0,0.0,0.0,0.0,0.0,0.0,0.0,0.0,0.0,0.0,0.0,0.0,0.0,0.0,0.0,0.8804,0.8804,0.8076,0.7289,0.6507,0.5792,0.5109,0.4491,0.4491,0.4491,0.4491,0.4491,0.4491,0.4491,0.4491,0.3984,0.3148,0.2454,0.1312,0.0,0.0,0.0,0.0,0.0,0.0,0.0,0.0,-0.0028,-0.0196,-0.0895,-0.1647,-0.2425,-0.3093,-0.3873,-0.4519,-0.457,-0.503,-0.5515,-0.5569,-0.6091,-0.6588,-0.6588,-0.6064,-0.5569,-0.5569,-0.5085,-0.4653,-0.4653,-0.4653,-0.4869,-0.5487,-0.6199,-0.6939,-0.7616,-0.8342,-0.8804,-0.8804,-0.8804,-0.8804,-0.8804,-0.8804,-0.8804,-0.8804,-0.8804,-0.848,-0.7723,-0.775,-0.775,-0.7696,-0.775,-0.8103,-0.8804,-0.8804,-0.8804,-0.8804,-0.8804,-0.8804,1.0113,1.1161,1.2248,1.2541,1.3254,1.3879,1.3767,1.3851,1.4023,1.4281,1.4316,0.0,0.0,0.0,1.177,0.0,0.0,0.0,0.0,0.0,0.0,0.0,0.0,0.0,0.0,0.0,0.0,0.0,0.0,0.0,0.0,0.0,0.0,0.0,0.0,0.8804,0.8804,0.8513,0.7777,0.6588,0.5846,0.5136,0.4491,0.4491,0.4491,0.4491,0.4491,0.4491,0.4491,0.4491,0.4015,0.3176,0.1981,0.1174,0.0615,0.0168,0.0,0.0,0.0,0.0,0.0,0.0,0.0,-0.0056,-0.0336,-0.0923,-0.1563,-0.1842,-0.2815,-0.3873,-0.4377,-0.4677,-0.4869,-0.4869,-0.5089,-0.5281,-0.5281,-0.5089,-0.4869,-0.4869,-0.468,-0.4491,-0.4491,-0.4491,-0.4598,-0.4842,-0.585,-0.6696,-0.6966,-0.8049,-0.8804,-0.8804,-0.8401,-0.8103,-0.8103,-0.7696,-0.7423,-0.7423,-0.7857,-0.7777,-0.7047,-0.702,-0.6799,-0.633,-0.6772,-0.7155,-0.7423,-0.7423,-0.7423,-0.7423,-0.7423,-0.767,1.0909,1.2034,1.3177,1.3486,1.4119,1.4571,1.4118,1.4423,1.4868,1.5163,1.4998,1.4399,1.3169,0.0,0.0,0.0,0.0,0.0,0.0,0.0,0.0,0.0,0.0,0.0,0.0,0.0,0.0,0.0,0.0,0.0,0.0,0.0,0.0,0.0,0.0,0.8804,0.8804,0.8804,0.8182,0.6939,0.6199,0.5382,0.4491,0.4491,0.4491,0.4491,0.4491,0.4491,0.4491,0.4491,0.4042,0.3204,0.1952,0.1312,0.1006,0.028,0.0,0.0,0.0,0.0,0.0,0.0,0.0,0.0,0.0,-0.0504,-0.109,-0.109,-0.2009,-0.3093,-0.3624,-0.4125,-0.4491,-0.4491,-0.4491,-0.4491,-0.4491,-0.4491,-0.4491,-0.4491,-0.4491,-0.4491,-0.4491,-0.4491,-0.4491,-0.4491,-0.5496,-0.6253,-0.6253,-0.753,-0.8454,-0.8454,-0.7996,-0.7616,-0.7369,-0.6885,-0.6588,-0.6588,-0.6853,-0.6767,-0.6285,-0.6253,-0.6009,-0.5515,-0.6009,-0.6367,-0.6588,-0.6588,-0.6588,-0.6588,-0.6588,-0.6858,1.1517,1.2279,1.3114,1.3114,1.377,1.4569,1.5264,1.542,1.5387,1.5328,1.4574,1.3548,1.2407,0.0,0.0,0.0,0.0,0.0,0.0,0.0,0.0,0.0,0.0,0.0,0.0,0.0,0.0,0.0,0.0,0.0,0.0,0.0,0.0,0.0,0.0,0.0,0.8804,0.8804,0.8427,0.7696,0.6966,0.5878,0.4519,0.4491,0.4491,0.4491,0.4491,0.4491,0.4491,0.4491,0.407,0.3317,0.2536,0.1758,0.1034,0.028,0.0,0.0,0.0,0.0,0.0,0.0,0.0,0.0,0.0,-0.0504,-0.109,-0.109,-0.1619,-0.2202,-0.2202,-0.3317,-0.4491,-0.4491,-0.4491,-0.4491,-0.4491,-0.4491,-0.4491,-0.4491,-0.4491,-0.4491,-0.4491,-0.4491,-0.4491,-0.4491,-0.5085,-0.5515,-0.5515,-0.6794,-0.7696,-0.7696,-0.7696,-0.7375,-0.6642,-0.6588,-0.6588,-0.6588,-0.59,-0.5487,-0.5515,-0.5487,-0.5487,-0.5487,-0.5487,-0.5846,-0.6588,-0.6588,-0.6588,-0.6588,-0.6588,-0.6588,1.228,1.3126,1.38,1.38,1.4458,0.0,0.0,1.5859,0.0,0.0,1.5533,1.4474,1.3149,0.0,0.0,0.0,0.0,0.0,0.0,0.0,0.0,0.0,0.0,0.0,0.0,0.0,0.0,0.0,0.0,0.0,0.0,0.0,0.0,0.0,0.0,0.0,0.8804,0.8804,0.8427,0.7696,0.7477,0.6605,0.5191,0.4708,0.4491,0.4491,0.4491,0.4491,0.4491,0.4491,0.4377,0.4098,0.3287,0.2536,0.1786,0.1034,0.0448,0.0,0.0,0.0,0.0,0.0,0.0,0.0,0.0,-0.014,-0.0336,-0.0336,-0.0866,-0.1424,-0.1424,-0.2148,-0.3037,-0.3594,-0.4125,-0.4491,-0.4491,-0.4491,-0.4491,-0.4491,-0.4491,-0.4491,-0.4491,-0.4491,-0.4491,-0.4491,-0.5085,-0.5678,-0.6199,-0.6664,-0.6939,-0.6939,-0.647,-0.6059,-0.5846,-0.5386,-0.5117,-0.5117,-0.4924,-0.5003,-0.5487,-0.5058,-0.4787,-0.4787,-0.4787,-0.4897,-0.5117,-0.5117,-0.5117,-0.5117,-0.5117,-0.5386,1.328,1.4131,1.4611,1.4611,1.5156,1.5625,1.5449,0.0,0.0,0.0,1.5341,1.4453,1.3301,0.0,0.0,0.0,0.0,0.0,0.0,0.0,0.0,0.0,0.0,0.0,0.0,0.0,0.0,0.0,0.0,0.0,0.0,0.0,0.0,0.0,0.0,0.0,0.8637,0.8517,0.8222,0.7782,0.7489,0.6881,0.5996,0.5194,0.4669,0.4375,0.4375,0.4436,0.4491,0.4491,0.4491,0.4436,0.3649,0.2871,0.212,0.1369,0.0643,0.0,0.0,0.0196,0.0448,0.0448,0.0643,0.0811,0.0532,0.0448,0.0364,0.0084,-0.0308,-0.0671,-0.0671,-0.1202,-0.2037,-0.3093,-0.3707,-0.4153,-0.4436,-0.4491,-0.4491,-0.4491,-0.4491,-0.4491,-0.4491,-0.4491,-0.4491,-0.4491,-0.4842,-0.5355,-0.6064,-0.6172,-0.6172,-0.6172,-0.576,-0.5406,-0.5136,-0.4732,-0.4491,-0.4491,-0.4491,-0.4539,-0.4635,-0.4539,-0.4491,-0.4491,-0.4491,-0.4491,-0.4491,-0.4491,-0.4491,-0.4491,-0.4491,-0.4708,1.4118,1.4915,1.5235,1.5235,1.5565,1.578,1.542,1.5,1.4678,1.4717,0.0,1.3844,0.0,0.0,0.0,0.0,0.0,0.0,0.0,0.0,0.0,0.0,0.0,0.0,0.0,0.0,0.0,0.0,0.0,0.0,0.0,0.0,0.0,0.0,0.0,0.0,0.843,0.8087,0.7905,0.0,0.723,0.6853,0.6762,0.5723,0.487,0.4174,0.4174,0.4274,0.445,0.445,0.445,0.4395,0.3728,0.2961,0.2194,0.1528,0.0837,0.0196,0.0196,0.0643,0.1202,0.1202,0.1647,0.2063,0.1396,0.1146,0.095,0.028,0.0056,0.0,0.0,-0.0504,-0.1369,-0.276,-0.3204,-0.3483,-0.4153,-0.4349,-0.4377,-0.4377,-0.446,-0.4491,-0.4491,-0.4491,-0.4491,-0.4491,-0.4491,-0.4732,-0.5324,-0.5406,-0.5406,-0.5406,-0.5406,-0.5164,-0.4543,-0.4491,-0.4491,-0.4491,-0.4491,-0.4181,-0.3428,-0.4098,-0.4436,-0.4294,-0.4436,-0.446,-0.4377,-0.4405,-0.4405,-0.4405,-0.4322,-0.4294,1.2636,1.347,1.3992,1.3992,1.4057,1.4276,1.4819,1.4326,1.3877,1.4182,1.4172,0.0,0.0,0.0,0.0,0.0,0.0,0.0,0.0,0.0,0.0,0.0,0.0,0.0,0.0,0.0,0.0,0.0,0.0,0.0,0.0,0.0,0.0,0.0,0.0,0.8208,0.8623,0.8146,0.7905,0.0,0.7732,0.7355,0.6757,0.5529,0.464,0.4045,0.4045,0.4062,0.4114,0.4114,0.4114,0.4089,0.3932,0.3482,0.2897,0.2737,0.2264,0.173,0.173,0.184,0.1952,0.1952,0.2063,0.2174,0.2009,0.1563,0.1062,0.0895,0.0448,0.0,0.0,-0.0112,-0.0476,-0.1369,-0.2037,-0.2508,-0.2649,-0.3148,-0.3566,-0.3566,-0.407,-0.4491,-0.4491,-0.4491,-0.4491,-0.4491,-0.4491,-0.4543,-0.4704,-0.4708,-0.4708,-0.4708,-0.4708,-0.4653,-0.4519,-0.4491,-0.4491,-0.4491,-0.4491,-0.4436,-0.4239,-0.4405,-0.3929,-0.273,-0.3873,-0.4184,-0.3566,-0.3624,-0.3624,-0.3624,-0.2982,-0.2704,1.1902,1.2696,1.311,1.311,0.0,1.3405,1.3659,1.3583,1.3516,1.3525,1.3535,0.0,0.0,0.0,0.0,0.0,0.0,0.0,0.0,0.0,0.0,0.0,0.0,0.0,0.0,0.0,0.0,0.0,0.0,0.0,0.0,0.0,0.0,0.0,0.8138,0.7978,0.8497,0.7811,0.7473,0.7473,0.7473,0.7128,0.6481,0.532,0.4486,0.391,0.391,0.3951,0.3994,0.3994,0.3994,0.3994,0.3994,0.3585,0.3007,0.3085,0.2683,0.2104,0.2192,0.2454,0.276,0.2732,0.2982,0.3231,0.2871,0.251,0.2037,0.1312,0.0811,0.0448,0.0084,0.0,-0.0084,-0.0476,-0.1146,-0.1758,-0.212,-0.2508,-0.2871,-0.3231,-0.3649,-0.4042,-0.4436,-0.4491,-0.4491,-0.4491,-0.4491,-0.4491,-0.4491,-0.4491,-0.4491,-0.4491,-0.4491,-0.4491,-0.4491,-0.4491,-0.4491,-0.4491,-0.4491,-0.4349,-0.3987,-0.4322,-0.4125,-0.3317,-0.4098,-0.4098,-0.3287,-0.3372,-0.3206,-0.2815,-0.2397,-0.2202,1.1198,1.1951,1.2323,1.2323,1.2467,0.0,1.2527,1.2866,1.3156,1.2949,0.0,0.0,0.0,0.0,0.0,0.0,0.0,0.0,0.0,0.0,0.0,0.0,0.0,0.0,0.0,0.0,0.0,0.0,0.0,0.0,0.0,0.0,0.8442,0.8767,0.7895,0.7719,0.8361,0.7461,0.7,0.7,0.7,0.6732,0.6169,0.5348,0.4625,0.4052,0.396,0.3964,0.4063,0.3965,0.392,0.392,0.392,0.3563,0.3073,0.3216,0.2877,0.2401,0.2536,0.3037,0.3566,0.3539,0.3959,0.4377,0.3763,0.3511,0.3121,0.1842,0.1284,0.095,0.0336,0.0084,0.0,0.0,-0.0476,-0.109,-0.1675,-0.1925,-0.2232,-0.2954,-0.3317,-0.3707,-0.4377,-0.4491,-0.4491,-0.4491,-0.4491,-0.4491,-0.4491,-0.4491,-0.4491,-0.4491,-0.4491,-0.4491,-0.4491,-0.4491,-0.4491,-0.4491,-0.4491,-0.4153,-0.34,-0.3987,-0.4236,-0.4098,-0.4236,-0.3901,-0.3121,-0.3037,-0.2649,-0.2009,-0.2009,-0.2003,0.9515,1.0444,1.1138,0.0,1.0892,1.0983,0.0,0.0,1.2194,0.0,0.0,0.0,0.0,0.0,0.0,0.0,0.0,0.0,0.0,0.0,0.0,0.0,0.0,0.0,0.0,0.0,0.0,0.0,0.0,0.0,0.0,0.8081,0.8303,0.9033,0.7767,0.7581,0.8627,0.7558,0.7,0.7,0.7,0.6732,0.6206,0.6063,0.5658,0.5065,0.4539,0.4331,0.4311,0.3834,0.3662,0.3662,0.3662,0.3668,0.3697,0.3819,0.3901,0.392,0.4136,0.4267,0.4349,0.4349,0.4405,0.4491,0.4377,0.3901,0.3345,0.3093,0.2091,0.109,0.0978,0.0476,0.0,0.0,-0.0084,-0.0168,-0.028,-0.0783,-0.1452,-0.2202,-0.3428,-0.4377,-0.4491,-0.4491,-0.4491,-0.4491,-0.4491,-0.4491,-0.4491,-0.4491,-0.4491,-0.4491,-0.4491,-0.4491,-0.4491,-0.4491,-0.4491,-0.4491,-0.4491,-0.4153,-0.3345,-0.3456,-0.3231,-0.2508,-0.3121,-0.3093,-0.2343,-0.1703,-0.1341,-0.1257,-0.1257,-0.1183,0.8373,0.9213,0.9762,0.0,0.9979,1.0189,1.0843,0.0,1.1898,0.0,0.0,0.0,0.0,0.0,0.0,0.0,0.0,0.0,0.0,0.0,0.0,0.0,0.0,0.0,0.0,0.0,0.0,0.0,0.0,0.0,0.7906,0.7765,0.8038,0.8839,0.7651,0.7537,0.8695,0.7558,0.7,0.7,0.7,0.6873,0.6641,0.6641,0.6145,0.5281,0.5022,0.4718,0.4391,0.4136,0.388,0.3604,0.3604,0.3641,0.3713,0.3836,0.3934,0.4001,0.426,0.4341,0.4355,0.4464,0.4491,0.4491,0.4491,0.4267,0.3929,0.3428,0.2538,0.1619,0.1202,0.056,0.0,0.0,0.0,0.0,0.0,-0.0252,-0.0811,-0.1981,-0.3093,-0.3984,-0.4436,-0.4491,-0.4491,-0.4491,-0.4491,-0.4491,-0.4491,-0.4491,-0.4491,-0.4491,-0.4491,-0.4491,-0.4491,-0.4491,-0.4491,-0.4491,-0.4491,-0.4349,-0.3984,-0.4012,-0.3846,-0.3483,-0.3372,-0.2926,-0.2202,-0.2286,-0.212,-0.1701,-0.1644,-0.1563,0.7372,0.0,0.8339,0.8711,0.9052,0.9373,0.0,0.0,0.0,0.0,0.0,0.0,0.0,0.0,0.0,0.0,0.0,0.0,0.0,0.0,0.0,0.0,0.0,0.0,0.0,0.0,0.0,0.0,0.0,0.0,0.7504,0.7625,0.7997,0.8671,0.7869,0.791,0.8898,0.7786,0.7147,0.7,0.7,0.7,0.7,0.7,0.6528,0.5712,0.5588,0.5265,0.4848,0.4696,0.4395,0.4034,0.4034,0.4034,0.4053,0.4172,0.4139,0.4069,0.4339,0.4325,0.4244,0.4443,0.4491,0.4491,0.4491,0.4491,0.4377,0.3763,0.2926,0.2063,0.1535,0.0838,0.028,0.028,0.042,0.0448,0.0084,-0.014,-0.0616,-0.1703,-0.2676,-0.3483,-0.4125,-0.4377,-0.4491,-0.4491,-0.4491,-0.4491,-0.4491,-0.4491,-0.4491,-0.4491,-0.4491,-0.4491,-0.4491,-0.4491,-0.4491,-0.4491,-0.4322,-0.4211,-0.4184,-0.4015,-0.3901,-0.3901,-0.3511,-0.3037,-0.248,-0.2843,-0.2732,-0.22,-0.2103,-0.2043,0.0,0.6707,0.0,0.7601,0.7783,0.0,0.0,0.0,0.0,0.0,0.0,0.0,0.0,0.0,0.0,0.0,0.0,0.0,0.0,0.0,0.0,0.0,0.0,0.0,0.0,0.0,0.0,0.0,0.0,0.0,0.7504,0.7981,0.8393,0.8692,0.8635,0.8878,0.9459,0.8398,0.7572,0.7,0.7,0.7,0.7,0.7,0.6958,0.6873,0.6371,0.6136,0.6072,0.548,0.5243,0.5221,0.5221,0.5221,0.5224,0.5357,0.5088,0.4702,0.4963,0.4681,0.4244,0.4443,0.4491,0.4491,0.4491,0.4491,0.4491,0.446,0.3345,0.2202,0.2147,0.1591,0.1034,0.1034,0.1563,0.1703,0.0308,-0.056,-0.1062,-0.1146,-0.2313,-0.3345,-0.3428,-0.4042,-0.4491,-0.4491,-0.4491,-0.4491,-0.4491,-0.4491,-0.4491,-0.4491,-0.4491,-0.4491,-0.4491,-0.4491,-0.4491,-0.4491,-0.3846,-0.3428,-0.337,-0.2704,-0.2313,-0.2313,-0.2954,-0.3287,-0.3234,-0.2593,-0.2232,-0.22,-0.218,-0.2121,0.0,0.0,0.0,0.6939,0.7348,0.7824,0.8323,0.9164,0.0,0.0,0.0,0.0,0.0,0.0,0.0,0.0,0.0,0.0,0.0,0.0,0.0,0.0,0.0,0.0,0.0,0.0,0.0,0.0,0.0,0.0,0.7188,0.7353,0.7849,0.8683,0.8357,0.8439,0.8978,0.8255,0.7787,0.7572,0.7196,0.7,0.7,0.7,0.7,0.7,0.6795,0.652,0.6179,0.5959,0.5653,0.5303,0.5303,0.5303,0.5318,0.535,0.5252,0.5112,0.5301,0.505,0.468,0.4842,0.4703,0.4491,0.4491,0.4491,0.4491,0.4491,0.3763,0.2954,0.2926,0.2371,0.1814,0.1814,0.2009,0.1924,0.0923,0.014,-0.0532,-0.1006,-0.1535,-0.2202,-0.3231,-0.3594,-0.3901,-0.4436,-0.4491,-0.4491,-0.4491,-0.4491,-0.4491,-0.4491,-0.4491,-0.4491,-0.4491,-0.4491,-0.4294,-0.3763,-0.3483,-0.3121,-0.2619,-0.2343,-0.2425,-0.2899,-0.2702,-0.2815,-0.3287,-0.3037,-0.2926,-0.2952,-0.2345,-0.2045,0.5164,0.0,0.0,0.0,0.0,0.6784,0.753,0.0,0.0,0.0,0.0,0.0,0.0,0.0,0.0,0.0,0.0,0.0,0.0,0.0,0.0,0.0,0.0,0.0,0.0,0.0,0.0,0.0,0.0,0.0,0.7,0.7196,0.7807,0.8938,0.8622,0.8602,0.8958,0.8439,0.8077,0.7891,0.7196,0.686,0.6853,0.6774,0.6727,0.674,0.6834,0.6705,0.6477,0.6477,0.6237,0.5862,0.5862,0.5862,0.5862,0.5862,0.5755,0.562,0.5764,0.5386,0.4853,0.5038,0.4779,0.4399,0.4474,0.4491,0.4491,0.4491,0.3959,0.3372,0.3317,0.2954,0.2676,0.2926,0.276,0.2426,0.1952,0.1062,0.014,-0.0587,-0.0923,-0.1424,-0.2454,-0.2788,-0.3121,-0.3649,-0.3735,-0.3818,-0.407,-0.4098,-0.4208,-0.446,-0.4491,-0.4491,-0.4491,-0.4491,-0.4153,-0.3372,-0.3093,-0.2702,-0.2232,-0.1952,-0.2174,-0.2926,-0.2454,-0.2454,-0.2926,-0.2926,-0.2954,-0.298,-0.2103,-0.1683,0.0,0.0,0.0,0.0,0.0,0.0,0.0,0.0,0.0,0.0,0.0,0.0,0.0,0.0,0.0,0.0,0.0,0.0,0.0,0.0,0.0,0.0,0.0,0.0,0.0,0.0,0.0,0.0,0.0,0.7,0.7,0.7572,0.837,0.9401,0.9469,0.9489,0.9462,0.8953,0.8435,0.7882,0.7014,0.6593,0.6586,0.6324,0.6196,0.6209,0.6472,0.674,0.6993,0.7,0.7,0.7,0.7,0.7,0.7,0.7,0.6662,0.6235,0.6382,0.5672,0.4758,0.5039,0.4703,0.4247,0.4447,0.4491,0.4491,0.4491,0.3987,0.3428,0.3345,0.3372,0.3624,0.4322,0.3901,0.3317,0.3314,0.2147,0.0923,0.0168,-0.056,-0.1062,-0.109,-0.1703,-0.2174,-0.2202,-0.2202,-0.2454,-0.3204,-0.3287,-0.3622,-0.4405,-0.4491,-0.4491,-0.4491,-0.4487,-0.4153,-0.34,-0.2621,-0.2147,-0.2148,-0.1452,-0.1424,-0.2147,-0.2147,-0.2147,-0.2174,-0.2174,-0.2174,-0.2142,-0.1398,-0.0994,0.4491,0.0,0.0,0.0,0.0,0.0,0.0,0.0,0.0,0.0,0.0,0.0,0.0,0.0,0.0,0.0,0.0,0.0,0.0,0.0,0.0,0.0,0.0,0.0,0.0,0.0,0.0,0.0,0.7,0.7,0.7,0.7572,0.7934,0.7979,0.8963,0.9246,0.8712,0.8761,0.8402,0.7677,0.7056,0.6584,0.631,0.623,0.6196,0.6196,0.6283,0.6459,0.6727,0.6913,0.7,0.7,0.7,0.7,0.7,0.7,0.6894,0.6781,0.6809,0.6146,0.5316,0.5527,0.4962,0.4247,0.4447,0.4491,0.4491,0.4491,0.4349,0.4184,0.4181,0.4181,0.4236,0.446,0.4322,0.4015,0.3428,0.2565,0.1675,0.095,0.0196,-0.0476,-0.1006,-0.1256,-0.1591,-0.212,-0.2202,-0.2482,-0.3262,-0.3345,-0.3622,-0.4405,-0.4491,-0.4491,-0.4491,-0.3956,-0.3317,-0.2593,-0.1814,-0.1174,-0.0643,-0.042,-0.0643,-0.1396,-0.0867,-0.0867,-0.1396,-0.1396,-0.1406,-0.1397,-0.0659,-0.0292,0.4491,0.3707,0.0,0.0,0.0,0.0,0.0,0.5062,0.0,0.0,0.0,0.0,0.0,0.0,0.0,0.0,0.0,0.0,0.0,0.0,0.0,0.0,0.0,0.0,0.0,0.0,0.0,0.0,0.7,0.7,0.7,0.7342,0.7548,0.7611,0.8431,0.8782,0.8567,0.855,0.8307,0.7842,0.7159,0.6642,0.6243,0.6135,0.5975,0.5833,0.5936,0.609,0.6259,0.6673,0.6893,0.7,0.7,0.7,0.7,0.7,0.7,0.7,0.7,0.6304,0.5445,0.5617,0.496,0.4153,0.4328,0.444,0.4491,0.4491,0.4491,0.4491,0.4491,0.4491,0.4491,0.4491,0.4491,0.4377,0.3901,0.3231,0.2371,0.1312,0.0755,0.0224,-0.0503,-0.0391,-0.0419,-0.1174,-0.1284,-0.1563,-0.2343,-0.2676,-0.3148,-0.3959,-0.4322,-0.4491,-0.4491,-0.379,-0.301,-0.2259,-0.1507,-0.0783,-0.0028,0.0,-0.0196,-0.0643,-0.0224,-0.0224,-0.0643,-0.0643,-0.0632,-0.0637,-0.0201,0.0,0.4491,0.3372,0.2371,0.0,0.0,0.0,0.3668,0.4184,0.0,0.0,0.0,0.0,0.0,0.0,0.0,0.0,0.0,0.0,0.0,0.0,0.0,0.0,0.0,0.0,0.0,0.8435,0.7735,0.7201,0.7062,0.7,0.7,0.7,0.7245,0.7736,0.7874,0.8127,0.8527,0.8282,0.8112,0.8007,0.7273,0.668,0.6251,0.6001,0.5672,0.5313,0.5551,0.5668,0.5734,0.6273,0.668,0.6953,0.7049,0.7063,0.7,0.7084,0.7063,0.7,0.7,0.6246,0.5321,0.5457,0.4812,0.4001,0.4143,0.4338,0.447,0.4484,0.4436,0.4377,0.4487,0.4491,0.4491,0.4491,0.4491,0.4491,0.4491,0.3901,0.2982,0.1619,0.1284,0.1006,0.0364,0.0727,0.0867,0.0224,0.0056,-0.028,-0.1006,-0.1675,-0.2425,-0.3289,-0.3901,-0.4267,-0.4349,-0.3624,-0.2843,-0.212,-0.1396,-0.0671,-0.0028,0.0,0.0,0.0,0.0,0.0,0.0,0.0,0.0055,0.0133,0.0102,0.0148,0.4491,0.3372,0.2232,0.2397,0.0,0.0,0.2263,0.2917,0.3582,0.0,0.0,0.0,0.0,0.0,0.0,0.0,0.0,0.0,0.0,0.0,0.0,0.0,0.0,0.0,0.0,0.9377,0.8346,0.8208,0.7454,0.7,0.7,0.7,0.6955,0.6867,0.7295,0.7279,0.6804,0.7507,0.7537,0.6828,0.6998,0.6679,0.5979,0.5928,0.5672,0.53,0.536,0.5498,0.5701,0.5821,0.6192,0.6754,0.7458,0.7426,0.7063,0.7551,0.7426,0.7,0.7,0.6246,0.5321,0.5457,0.4743,0.3887,0.4139,0.4214,0.4287,0.4457,0.4042,0.368,0.4322,0.4491,0.4491,0.4491,0.4491,0.4491,0.4491,0.3873,0.3234,0.301,0.2425,0.1952,0.1786,0.1396,0.1062,0.0895,0.0392,-0.028,-0.1006,-0.1229,-0.184,-0.3176,-0.2926,-0.2899,-0.3483,-0.2313,-0.148,-0.1312,-0.0615,-0.014,0.0,0.0,0.0,0.0,0.0,0.0,0.0,0.0,0.0295,0.0874,0.077,0.1054,0.4491,0.3372,0.2202,0.2202,0.0,0.0,0.0,0.1824,0.2302,0.2951,0.0,0.0,0.0,0.0,0.0,0.0,0.0,0.0,0.0,0.0,0.0,0.0,0.0,0.0,0.0,1.0344,0.9322,0.8562,0.8041,0.7539,0.7027,0.7,0.6933,0.6807,0.6991,0.6925,0.6552,0.7161,0.7235,0.6796,0.7201,0.6978,0.6198,0.6198,0.5975,0.5601,0.5601,0.579,0.6104,0.6234,0.6614,0.7134,0.7501,0.7589,0.7563,0.8103,0.7946,0.7447,0.7447,0.6698,0.5717,0.5484,0.487,0.422,0.4049,0.4102,0.425,0.445,0.4208,0.3984,0.4405,0.4491,0.4491,0.4491,0.4491,0.4491,0.4491,0.4181,0.3901,0.3932,0.3624,0.3093,0.2343,0.1898,0.1535,0.1146,0.0476,-0.014,-0.0504,-0.0867,-0.1396,-0.212,-0.2202,-0.2343,-0.273,-0.173,-0.109,-0.109,-0.042,0.0,0.0,0.0,0.0,0.0,0.0,0.0,0.0,0.0,0.0349,0.1008,0.0922,0.1271,0.0,0.0,0.0,0.0,0.0,0.0224,0.0,0.0,0.0,0.1974,0.0,0.0,0.0,0.0,0.0,0.0,0.0,0.0,0.0,0.0,0.0,0.0,0.0,0.0,0.0,1.121,1.0316,0.8882,0.8638,0.8209,0.7334,0.7171,0.706,0.7,0.6849,0.6727,0.6688,0.686,0.6965,0.6999,0.7388,0.724,0.6616,0.6616,0.6397,0.6021,0.6021,0.6198,0.652,0.673,0.7099,0.7516,0.7618,0.7857,0.8193,0.8668,0.8521,0.8036,0.7933,0.7217,0.6237,0.5524,0.4947,0.4451,0.3968,0.3901,0.4062,0.4395,0.4377,0.4294,0.446,0.4491,0.446,0.4322,0.4294,0.4294,0.4267,0.4267,0.4322,0.446,0.4491,0.4098,0.2871,0.2536,0.2174,0.1424,0.0671,0.0168,0.0028,-0.0532,-0.095,-0.109,-0.1507,-0.1842,-0.1981,-0.1312,-0.0895,-0.0895,-0.0336,0.0,0.0,0.0,0.0,0.0,0.0,0.0,0.0,0.0111,0.0485,0.1121,0.1087,0.1479,0.0,0.0,0.0,0.0,0.1563,0.0,0.0,0.0,0.1087,0.1717,0.0,0.0,0.0,0.0,0.0,0.0,0.0,0.0,0.0,0.0,0.0,0.0,0.0,0.0,0.0,0.0,1.0887,0.9812,0.9189,0.8708,0.8355,0.7762,0.7316,0.7006,0.6747,0.6509,0.6263,0.6348,0.645,0.657,0.6984,0.7118,0.7035,0.7035,0.6811,0.6442,0.6442,0.6457,0.6503,0.6529,0.6785,0.7255,0.8246,0.863,0.8686,0.9222,0.9059,0.8541,0.8057,0.7454,0.6721,0.5642,0.4673,0.391,0.3951,0.3624,0.3393,0.4255,0.3984,0.3594,0.4322,0.4491,0.4349,0.368,0.3511,0.3511,0.3456,0.3428,0.3649,0.4349,0.4491,0.4432,0.4267,0.3707,0.2982,0.2202,0.1452,0.0727,0.0084,-0.0084,-0.0364,-0.1034,-0.0588,-0.0504,-0.1174,-0.056,-0.0112,-0.0112,-0.0056,0.0,0.0,0.0,0.0,0.0,0.0,0.0,0.0,0.0536,0.1173,0.1874,0.1762,0.238,0.0,0.0,0.0,0.0,0.0,0.0,0.0797,0.0,0.0437,0.0,0.0,0.0,0.0,0.0,0.0,0.0,0.0,0.0,0.0,0.0,0.0,0.0,0.0,0.0,0.0,0.0,0.0,0.0,0.0,0.9943,0.902,0.8705,0.8378,0.8008,0.7685,0.7255,0.6669,0.6731,0.6674,0.6503,0.691,0.7094,0.7094,0.7094,0.7014,0.685,0.685,0.6984,0.7196,0.7196,0.7463,0.7922,0.8649,0.8901,0.8967,0.9704,0.9617,0.9079,0.8553,0.8,0.728,0.5792,0.456,0.3762,0.4266,0.4239,0.4243,0.5223,0.493,0.4472,0.4945,0.4787,0.4322,0.3566,0.34,0.3262,0.276,0.301,0.34,0.3732,0.4181,0.4491,0.4491,0.3876,0.3289,0.2954,0.2232,0.148,0.0727,0.0643,0.0364,-0.0392,-0.0196,-0.0112,-0.0448,-0.0168,0.0,0.0,0.0,0.0,0.0,0.0,0.0,0.0,0.0,0.0,0.0,0.06,0.1249,0.1892,0.2179,0.2808,0.4491,0.0,0.0,0.0,0.0,0.0,0.0,0.0,0.0,0.0,0.0,0.0,0.0,0.0,0.0,0.0,0.0,0.0,0.0,0.0,0.0,0.0,0.0,0.0,0.0,0.0,0.0,0.0,0.0,0.0,0.9933,0.941,0.9044,0.8873,0.8528,0.7962,0.7175,0.721,0.7039,0.6669,0.6961,0.7163,0.7261,0.7261,0.7261,0.7261,0.7261,0.7442,0.7695,0.7695,0.7905,0.8258,0.8672,0.8906,0.9111,0.999,1.0059,0.9617,0.8938,0.8144,0.7189,0.5755,0.4744,0.4154,0.4575,0.4873,0.522,0.5986,0.5873,0.5509,0.5508,0.4995,0.4229,0.3287,0.2758,0.2367,0.198,0.2173,0.2587,0.3176,0.3763,0.4236,0.446,0.407,0.3624,0.3428,0.2899,0.2259,0.1507,0.1229,0.0895,0.0364,0.0112,0.0,0.0,0.0,0.0,0.0,0.0,0.0,0.0,0.0,0.0,0.0,0.0,0.0079,0.0258,0.0855,0.1458,0.2054,0.2499,0.3017,0.0,0.0,0.0,0.3178,0.0,0.0,0.0,0.0,0.0,0.0,0.0,0.0,0.0,0.0,0.0,0.0,0.0,0.0,0.0,0.0,0.0,0.0,0.0,0.0,0.0,0.0,0.0,0.0,0.0,0.0,1.1313,0.9658,0.8898,0.9268,0.889,0.832,0.7584,0.7586,0.7416,0.7089,0.7094,0.7305,0.7681,0.7681,0.7681,0.7681,0.7681,0.7695,0.7695,0.7695,0.7705,0.7763,0.8232,0.8659,0.9111,0.999,1.0283,1.0118,0.9059,0.762,0.6157,0.5502,0.5286,0.5174,0.48,0.5296,0.5986,0.6152,0.6376,0.6384,0.5678,0.4953,0.4042,0.2589,0.1141,0.0306,0.0977,0.0585,0.0751,0.2894,0.3317,0.3594,0.4377,0.4491,0.4211,0.3511,0.3372,0.3065,0.2258,0.1535,0.109,0.1062,0.042,0.0,0.0,0.0,0.0,0.0,0.0,0.0,0.0,0.0,0.0,0.0,0.0,0.0283,0.0883,0.1476,0.2071,0.2682,0.2699,0.3017,0.0,0.0,0.2927,0.2662,0.0,0.0,0.0,0.0,0.0,0.0,0.0,0.0,0.0,0.0,0.0,0.0,0.0,0.0,0.0,0.0,0.0,0.0,0.0,0.0,0.0,0.0,0.0,0.0,0.0,0.0,0.0,1.0264,0.9693,0.9692,0.9574,0.9188,0.8529,0.8273,0.7934,0.7551,0.7245,0.7305,0.7695,0.7695,0.7695,0.7695,0.7695,0.7695,0.7695,0.7695,0.7695,0.7744,0.8219,0.8483,0.8708,0.9541,0.982,0.9617,0.8541,0.7294,0.6157,0.5959,0.5631,0.5345,0.5618,0.6011,0.6532,0.7152,0.719,0.6932,0.6382,0.5311,0.3902,0.1941,0.0723,-0.0195,-0.0919,-0.0501,0.0222,0.0973,0.2308,0.3398,0.3649,0.4505,0.4917,0.4236,0.4505,0.4333,0.3093,0.2702,0.2369,0.187,0.1619,0.1452,0.1452,0.1369,0.111,0.0623,0.098,0.1201,0.1201,0.1201,0.1194,0.1179,0.1201,0.1292,0.1495,0.21,0.2508,0.2719,0.3103,0.3398,0.4331,0.3623,0.0,0.2248,0.1403,0.0,0.0109,0.0,0.0,0.0,0.0,0.0,0.0,0.0,0.0,0.0,0.0,0.0,0.0,0.0,0.0,0.0,0.0,0.0,0.0,0.0,1.1165,1.1408,0.0,0.0,0.0,0.0,0.9848,0.9826,0.9679,0.9392,0.8929,0.8531,0.8226,0.801,0.7549,0.7456,0.7695,0.7695,0.7695,0.7695,0.7695,0.7695,0.7695,0.7695,0.7695,0.7725,0.8037,0.8258,0.8493,0.9309,0.9441,0.9079,0.8201,0.728,0.6413,0.6002,0.5889,0.5905,0.5894,0.6377,0.7028,0.7593,0.7735,0.7561,0.6991,0.5636,0.3914,0.196,0.0333,-0.103,-0.2007,-0.1448,-0.064,-0.0111,0.1586,0.2982,0.3259,0.4745,0.5655,0.4948,0.5218,0.5156,0.4195,0.3619,0.3121,0.2649,0.2371,0.2192,0.2141,0.1994,0.1721,0.1252,0.158,0.182,0.1871,0.1822,0.181,0.186,0.1815,0.1908,0.2112,0.2505,0.2807,0.3034,0.342,0.3604]}]]